[[{"header":{"parameterUnit":"m.s-1","parameterCategory":1,"la1":31.0,"la2":29.5877,"lo1":-88.7671,"lo2":-86.6584,"dy":0.0162,"dx":0.0185,"nx":115,"ny":88,"refTime":"2023-09-10T06:00:00:Z","depth":0,"parameterNumber":2,"parameterNumberName":"U-component_of_WINDS"},"data":[0.0,0.0,0.0,0.0,0.0,0.0,0.0,0.0,0.0,0.0,0.0,0.0,0.0,0.0,0.0,0.0,0.0,0.0,0.0,0.0,0.0,0.0,0.0,0.0,0.0,0.0,0.0,0.0,0.0,0.0,0.0,0.0,0.0,0.0,0.0,0.0,0.0,0.0,0.0,0.0,0.0,0.0,0.0,0.0,0.0,0.0,0.0,0.0,0.0,0.0,0.0,0.0,0.0,0.0,0.0,0.0,0.0,0.0,0.0,0.0,0.0,0.0,0.0,0.0,0.0,0.0,0.0,0.0,0.0,0.0,0.0,0.0,0.0,0.0,0.0,0.0,0.0,0.0,0.0,0.0,0.0,0.0,0.0,0.0,0.0,0.0,0.0,0.0,0.0,0.0,0.0,0.0,0.0,0.0,0.0,0.0,0.0,0.0,0.0,0.0,0.0,0.0,0.0,0.0,0.0,0.0,0.0,0.0,0.0,0.0,0.0,0.0,0.0,0.0,0.0,0.0,0.0,0.0,0.0,0.0,0.0,0.0,0.0,0.0,0.0,0.0,0.0,0.0,0.0,0.0,0.0,0.0,0.0,0.0,0.0,0.0,0.0,0.0,0.0,0.0,0.0,0.0,0.0,0.0,0.0,0.0,0.0,0.0,0.0,0.0,0.0,0.0,0.0,0.0,0.0,0.0,0.0,0.0,0.0,0.0,0.0,0.0,0.0,0.0,0.0,0.0,0.0,0.0,0.0,0.0,0.0,0.0,0.0,0.0,0.0,0.0,0.0,0.0,0.0,0.0,0.0,0.0,0.0,0.0,0.0,0.0,0.0,0.0,0.0,0.0,0.0,0.0,0.0,0.0,0.0,0.0,0.0,0.0,0.0,0.0,0.0,0.0,0.0,0.0,0.0,0.0,0.0,0.0,0.0,0.0,0.0,0.0,0.0,0.0,0.0,0.0,0.0,0.0,0.0,0.0,0.0,0.0,0.0,0.0,0.0,0.0,0.0,0.0,0.0,0.0,0.0,0.0,0.0,0.0,0.0,0.0,0.0,0.0,0.0,0.0,0.0,0.0,0.0,0.0,0.0,0.0,0.0,0.0,0.0,0.0,0.0,0.0,0.0,0.0,0.0,0.0,0.0,0.0,0.0,0.0,0.0,0.0,0.0,0.0,0.0,0.0,0.0,0.0,0.0,0.0,0.0,0.0,0.0,0.0,0.0,0.0,0.0,0.0,0.0,0.0,0.0,0.0,0.0,0.0,0.0,0.0,0.0,0.0,0.0,0.0,0.0,0.0,0.0,0.0,0.0,0.0,0.0,0.0,0.0,0.0,0.0,0.0,0.0,0.0,0.0,0.0,0.0,0.0,0.0,0.0,0.0,0.0,0.0,0.0,0.0,0.0,0.0,0.0,0.0,0.0,0.0,0.0,0.0,0.0,0.0,0.0,0.0,0.0,0.0,0.0,0.0,0.0,0.0,0.0,0.0,0.0,0.0,0.0,0.0,0.0,0.0,0.0,0.0,0.0,0.0,0.0,0.0,0.0,0.0,0.0,0.0,0.0,0.0,0.0,0.0,0.0,0.0,0.0,0.0,0.0,0.0,0.0,0.0,0.0,0.0,0.0,0.0,0.0,0.0,0.0,0.0,0.0,0.0,0.0,0.0,0.0,0.0,0.0,0.0,0.0,0.0,0.0,0.0,0.0,0.0,0.0,0.0,0.0,0.0,0.0,0.0,0.0,0.0,0.0,0.0,0.0,0.0,0.0,0.0,0.0,0.0,0.0,0.0,0.0,0.0,0.0,0.0,0.0,0.0,0.0,0.0,0.0,0.0,0.0,0.0,0.0,0.0,0.0,0.0,0.0,0.0,0.0,0.0,0.0,0.0,0.0,0.0,0.0,0.0,0.0,0.0,0.0,0.0,0.0,0.0,0.0,0.0,0.0,0.0,0.0,0.0,0.0,0.0,0.0,0.0,0.0,0.0,0.0,0.0,0.0,0.0,0.0,0.0,0.0,0.0,0.0,0.0,0.0,0.0,0.0,0.0,0.0,0.0,0.0,0.0,0.0,0.0,0.0,0.0,0.0,0.0,0.0,0.0,0.0,0.0,0.0,0.0,0.0,0.0,0.0,0.0,0.0,0.0,0.0,0.0,0.0,0.0,0.0,0.0,0.0,0.0,0.0,0.0,0.0,0.0,0.0,0.0,0.0,0.0,0.0,0.0,0.0,0.0,0.0,0.0,0.0,0.0,0.0,0.0,0.0,0.0,0.0,0.0,0.0,0.0,0.0,0.0,0.0,0.0,0.0,0.0,0.0,0.0,0.0,0.0,0.0,0.0,0.0,0.0,0.0,0.0,0.0,0.0,0.0,0.0,0.0,0.0,0.0,0.0,0.0,0.0,0.0,0.0,0.0,0.0,0.0,0.0,0.0,0.0,0.0,0.0,0.0,0.0,0.0,0.0,0.0,0.0,0.0,0.0,0.0,0.0,0.0,0.0,0.0,0.0,0.0,0.0,0.0,0.0,0.0,0.0,0.0,0.0,0.0,0.0,0.0,0.0,0.0,0.0,0.0,0.0,0.0,0.0,0.0,0.0,0.0,0.0,0.0,0.0,0.0,0.0,0.0,0.0,0.0,0.0,0.0,0.0,0.0,0.0,0.0,0.0,0.0,0.0,0.0,0.0,0.0,0.0,0.0,0.0,0.0,0.0,0.0,0.0,0.0,0.0,0.0,0.0,0.0,0.0,0.0,0.0,0.0,0.0,0.0,0.0,0.0,0.0,0.0,0.0,0.0,0.0,0.0,0.0,0.0,0.0,0.0,0.0,0.0,0.0,0.0,0.0,0.0,0.0,0.0,0.0,0.0,0.0,0.0,0.0,0.0,0.0,0.0,0.0,0.0,0.0,0.0,0.0,0.0,0.0,0.0,0.0,0.0,0.0,0.0,0.0,0.0,0.0,0.0,0.0,0.0,0.0,0.0,0.0,0.0,0.0,0.0,0.0,0.0,0.0,0.0,0.0,0.0,0.0,0.0,0.0,0.0,0.0,0.0,0.0,0.0,0.0,0.0,0.0,0.0,0.0,0.0,0.0,0.0,0.0,0.0,0.0,0.0,0.0,0.0,0.0,0.0,0.0,0.0,0.0,0.0,0.0,0.0,0.0,0.0,0.0,0.0,0.0,0.0,0.0,0.0,0.0,0.0,0.0,0.0,0.0,0.0,0.0,0.0,0.0,0.0,0.0,0.0,0.0,0.0,0.0,0.0,0.0,0.0,0.0,0.0,0.0,0.0,0.0,0.0,0.0,0.0,0.0,0.0,0.0,0.0,0.0,0.0,0.0,0.0,0.0,0.0,0.0,0.0,0.0,0.0,0.0,0.0,0.0,0.0,0.0,0.0,0.0,0.0,0.0,0.0,0.0,0.0,0.0,0.0,0.0,0.0,0.0,0.0,0.0,0.0,0.0,0.0,0.0,0.0,0.0,0.0,0.0,0.0,0.0,0.0,0.0,0.0,0.0,0.0,0.0,0.0,0.0,0.0,0.0,0.0,0.0,0.0,0.0,0.0,0.0,0.0,0.0,0.0,0.0,0.0,0.0,0.0,0.0,0.0,0.0,0.0,0.0,0.0,0.0,0.0,0.0,0.0,0.0,0.0,0.0,0.0,0.0,0.0,0.0,0.0,0.0,0.0,0.0,0.0,0.0,0.0,0.0,0.0,0.0,0.0,0.0,0.0,0.0,0.0,0.0,0.0,0.0,0.0,0.0,0.0,0.0,0.0,0.0,0.0,0.0,0.0,0.0,0.0,0.0,0.0,0.0,0.0,0.0,0.0,0.0,0.0,0.0,0.0,0.0,0.0,0.0,0.0,0.0,0.0,0.0,0.0,0.0,0.0,0.0,0.0,0.0,0.0,0.0,0.0,0.0,0.0,0.0,0.0,0.0,0.0,0.0,0.0,0.0,0.0,0.0,0.0,0.0,0.0,0.0,0.0,0.0,0.0,0.0,0.0,0.0,0.0,0.0,0.0,0.0,0.0,0.0,0.0,0.0,0.0,0.0,0.0,0.0,0.0,0.0,0.0,0.0,0.0,0.0,0.0,0.0,0.0,0.0,0.0,0.0,0.0,0.0,0.0,0.0,0.0,0.0,0.0,0.0,0.0,0.0,0.0,0.0,0.0,0.0,0.0,0.0,0.0,0.0,0.0,0.0,0.0,0.0,0.0,0.0,0.0,0.0,0.0,0.0,0.0,0.0,0.0,0.0,0.0,0.0,0.0,0.0,0.0,0.8774,0.0,0.0,0.0,0.0,0.0,0.0,0.0,0.0,0.0,0.0,0.0,0.0,0.0,0.0,0.0,0.0,0.0,0.0,0.0,0.0,0.0,0.0,0.0,0.0,0.0,0.0,0.0,0.0,0.0,0.0,0.0,0.0,0.0,0.0,0.0,0.0,0.0,0.0,0.0,0.0,0.0,0.0,0.0,0.0,0.0,0.0,0.0,0.0,0.0,0.0,0.0,0.0,0.0,0.0,0.0,0.0,0.0,0.0,0.0,0.0,0.0,0.0,0.0,0.0,0.0,0.0,0.0,0.0,0.0,0.0,0.0,0.0,0.0,0.0,0.0,0.0,0.0,0.0,0.0,0.0,0.0,0.0,0.0,0.0,0.0,0.0,0.0,0.0,0.0,0.0,0.0,0.0,0.0,0.0,0.0,0.0,0.0,0.0,0.0,0.0,0.0,0.0,0.0,0.0,0.0,0.0,0.0,0.0,0.0,0.0,0.9214,0.9105,0.9395,0.9517,0.9448,0.0,0.0,0.0,0.0,0.0,0.0,0.0,0.0,0.0,0.0,0.0,0.0,0.0,0.0,0.0,0.0,0.0,0.0,0.0,0.0,0.0,0.0,0.0,0.0,0.0,0.0,0.0,0.0,0.0,0.0,0.0,0.0,0.0,0.0,0.0,0.0,0.0,0.0,0.0,0.0,0.0,0.0,0.0,0.0,0.0,0.0,0.0,0.0,0.0,0.0,0.0,0.0,0.0,0.0,0.0,0.0,0.0,0.0,0.0,0.0,0.0,0.0,0.0,0.0,0.0,0.0,0.0,0.0,0.0,0.0,0.0,0.0,0.0,0.0,0.0,0.0,0.0,0.0,0.0,0.0,0.0,0.0,0.0,0.0,0.0,0.0,0.0,0.0,0.0,0.0,0.0,0.0,0.0,0.0,0.0,0.0,0.0,0.0,0.0,0.0,0.0,0.0,0.0,0.0,0.0,0.0,0.0,0.0,0.0,0.0,0.0,0.0,1.0181,1.0301,1.0051,0.0,0.0,0.0,0.0,0.0,0.0,0.0,0.0,0.0,0.0,0.0,0.0,0.0,0.0,0.0,0.0,0.0,0.0,0.0,0.0,0.0,0.0,0.0,0.0,0.0,0.0,0.0,0.0,0.0,0.0,0.0,0.0,0.0,0.0,0.0,0.0,0.0,0.0,0.0,0.0,0.0,0.0,0.0,0.0,0.0,0.0,0.0,0.0,0.0,0.0,0.0,0.0,0.0,0.0,0.0,0.0,0.0,0.0,0.0,0.0,0.0,0.0,0.0,0.0,0.0,0.0,0.0,0.0,0.0,0.0,0.0,0.0,0.0,0.0,0.0,0.0,0.0,0.0,0.0,0.0,0.0,0.0,0.0,0.0,0.0,0.0,0.0,0.0,0.0,0.0,0.0,0.0,0.0,0.0,0.0,0.0,0.0,0.0,0.0,0.0,0.0,0.0,0.0,0.0,0.0,0.0,0.0,0.0,0.0,0.0,1.0797,1.1458,1.1416,0.0,1.0164,0.0,0.0,0.0,0.0,0.0,0.0,0.0,0.0,0.0,0.0,0.0,0.0,0.0,0.0,0.0,0.0,0.0,0.0,0.0,0.0,0.0,0.0,0.0,0.0,0.0,0.0,0.0,0.0,0.0,0.0,0.0,0.0,0.0,0.0,0.0,0.0,0.0,0.0,0.0,0.0,0.0,0.0,0.0,0.0,0.0,0.0,0.0,0.0,0.0,0.0,0.0,0.0,0.0,0.0,0.0,0.0,0.0,0.0,0.0,0.0,0.0,0.0,0.0,0.0,0.0,0.0,0.0,0.0,0.0,0.0,0.0,0.0,0.0,0.0,0.0,0.0,0.0,0.0,0.0,0.0,0.0,0.0,0.0,0.0,0.0,0.0,0.0,0.0,0.0,0.0,0.0,0.0,0.0,0.0,0.0,0.0,0.0,0.0,0.0,0.0,0.0,0.0,0.0,0.0,0.0,0.0,0.0,0.0,0.0,0.0,1.2219,1.2466,1.2728,1.2666,0.0,0.0,0.0,0.0,0.0,0.0,0.0,0.0,0.0,0.0,0.0,0.0,0.0,0.0,0.0,0.0,0.0,0.0,0.0,0.0,0.0,0.0,0.0,0.0,0.0,0.0,0.0,0.0,0.0,0.0,0.0,0.0,0.0,0.0,0.0,0.0,0.0,0.0,0.0,0.0,0.0,0.0,0.0,0.0,0.0,0.0,0.0,0.0,0.0,0.0,0.0,0.0,0.0,0.0,0.0,0.0,0.0,0.0,0.0,0.0,0.0,0.0,0.0,0.0,0.0,0.0,0.0,0.0,0.0,0.0,0.0,0.0,0.0,0.0,0.0,0.0,0.0,0.0,0.0,0.0,0.0,0.0,0.0,0.0,0.0,0.0,0.0,0.0,0.0,0.0,0.0,0.0,0.0,0.0,0.0,0.0,0.0,0.0,0.0,0.0,0.0,0.0,0.0,0.0,0.0,0.0,0.0,0.0,0.0,0.0,1.2276,1.2966,1.3315,1.3885,1.3843,1.3119,0.0,0.0,0.0,0.0,0.0,0.0,0.0,0.0,0.0,0.0,0.0,0.0,0.0,0.0,0.0,0.0,0.0,0.0,0.0,0.0,0.0,0.0,0.0,0.0,0.0,0.0,0.0,0.0,0.0,0.0,0.0,0.0,0.0,0.0,0.0,0.0,0.0,0.0,0.0,0.0,0.0,0.0,0.0,0.0,0.0,0.0,0.0,0.0,0.0,0.0,0.0,0.0,0.0,0.0,0.0,0.0,0.0,0.0,0.0,0.0,0.0,0.0,0.0,0.0,0.0,0.0,0.0,0.0,0.0,0.0,0.0,0.0,0.0,0.0,0.0,0.0,0.0,0.0,0.0,0.0,0.0,0.0,0.0,0.0,0.0,0.0,0.0,0.0,0.0,0.0,0.0,0.0,0.0,0.0,0.0,0.0,0.0,0.0,0.0,0.0,0.0,0.0,0.0,0.0,0.0,0.0,0.0,0.0,1.2162,1.2156,1.2715,1.4062,1.4777,1.4044,0.0,0.0,0.0,0.0,0.0,0.0,0.0,0.0,0.0,0.0,0.0,0.0,0.0,0.0,0.0,0.0,0.0,0.0,0.0,0.0,0.0,0.0,0.0,0.0,0.0,0.0,0.0,0.0,0.0,0.0,0.0,0.0,0.0,0.0,0.0,0.0,0.0,0.0,0.0,0.0,0.0,0.0,0.0,0.0,0.0,0.0,0.0,0.0,0.0,0.0,0.0,0.0,0.0,0.0,0.0,0.0,0.0,0.0,0.0,0.0,0.0,0.0,0.0,0.0,0.0,0.0,0.0,0.0,0.0,0.0,0.0,0.0,0.0,0.0,0.0,0.0,0.0,0.0,0.0,0.0,0.0,0.0,0.0,0.0,0.0,0.0,0.0,0.0,0.0,0.0,0.0,0.0,0.0,0.0,0.0,0.0,0.0,0.0,0.0,0.0,0.0,0.0,0.0,0.0,0.0,0.0,0.0,0.0,0.0,1.2326,1.3655,1.5061,1.6428,1.5767,1.4652,0.0,0.0,0.0,0.0,0.0,0.0,0.0,0.0,0.0,0.0,0.0,0.0,0.0,0.0,0.0,0.0,0.0,0.0,0.0,0.0,0.0,0.0,0.0,0.0,0.0,0.0,0.0,0.0,0.0,0.0,0.0,0.0,0.0,0.0,0.0,0.0,0.0,0.0,0.0,0.0,0.0,0.0,0.0,0.0,0.0,0.0,0.0,0.0,0.0,0.0,0.0,0.0,0.0,0.0,0.0,0.0,0.0,0.0,0.0,0.0,0.0,0.0,0.0,0.0,0.0,0.0,0.0,0.0,0.0,0.0,0.0,0.0,0.0,0.0,0.0,0.0,0.0,0.0,0.0,0.0,0.0,0.0,0.0,0.0,0.0,0.0,0.0,0.0,0.0,0.0,0.0,0.0,0.0,0.0,0.0,0.0,0.0,0.0,0.0,0.0,0.0,0.0,0.0,0.0,0.0,0.0,0.0,0.0,0.0,1.3132,0.0,1.6513,1.7125,1.6352,1.5085,0.0,0.0,0.0,0.0,0.0,0.0,0.0,0.0,0.0,0.0,0.0,0.0,0.0,0.0,0.0,0.0,0.0,0.0,0.0,0.0,0.0,0.0,0.0,0.0,0.0,0.0,0.0,0.0,0.0,0.0,0.0,0.0,0.0,0.0,0.0,0.0,0.0,0.0,0.0,0.0,0.0,0.0,0.0,0.0,0.0,0.0,0.0,0.0,0.0,0.0,0.0,0.0,0.0,0.0,0.0,0.0,0.0,0.0,0.0,0.0,0.0,0.0,0.0,0.0,0.0,0.0,0.0,0.0,0.0,0.0,0.0,0.0,0.0,0.0,0.0,0.0,0.0,0.0,0.0,0.0,0.0,0.0,0.0,0.0,0.0,0.0,0.0,0.0,0.0,0.0,0.0,0.0,0.0,0.0,0.0,0.0,0.0,0.0,0.0,0.0,0.0,0.0,0.0,0.0,0.0,0.0,0.0,0.0,1.2494,1.4775,1.6327,1.6774,1.5918,1.6505,1.528,0.0,0.0,0.0,0.0,0.0,0.0,0.0,0.0,0.0,0.0,0.0,0.0,0.0,0.0,0.0,0.0,0.0,0.0,0.0,0.0,0.0,0.0,0.0,0.0,0.0,0.0,0.0,0.0,0.0,0.0,0.0,0.0,0.0,0.0,0.0,0.0,0.0,0.0,0.0,0.0,0.0,0.0,0.0,0.0,0.0,0.0,0.0,0.0,0.0,0.0,0.0,0.0,0.0,0.0,0.0,0.0,0.0,0.0,0.0,0.0,0.0,0.0,0.0,0.0,0.0,0.0,0.0,0.0,0.0,0.0,0.0,0.0,0.0,0.0,0.0,0.0,0.0,0.0,0.0,0.0,0.0,0.0,0.0,0.0,0.0,0.0,0.0,0.0,0.0,0.0,0.0,0.0,0.0,0.0,0.0,0.0,0.0,0.0,0.0,0.0,0.0,0.0,0.0,0.0,0.0,0.0,0.0,0.0,0.0,1.7341,1.7832,1.8186,1.8385,1.749,1.5723,0.0,0.0,0.0,0.0,0.0,0.0,0.0,0.0,0.0,0.0,0.0,0.0,0.0,0.0,0.0,0.0,0.0,0.0,0.0,0.0,0.0,0.0,0.0,0.0,0.0,0.0,0.0,0.0,0.0,0.0,0.0,0.0,0.0,0.0,0.0,0.0,0.0,0.0,0.0,0.0,0.0,0.0,0.0,0.0,0.0,0.0,0.0,0.0,0.0,0.0,0.0,0.0,0.0,0.0,0.0,0.0,0.0,0.0,0.0,0.0,0.0,0.0,0.0,0.0,0.0,0.0,0.0,0.0,0.0,0.0,0.0,0.0,0.0,0.0,0.0,0.0,0.0,0.0,0.0,0.0,0.0,0.0,0.0,0.0,0.0,0.0,0.0,0.0,0.0,0.0,0.0,0.0,0.0,0.0,0.0,0.0,0.0,0.0,0.0,0.0,0.0,0.0,0.0,0.0,0.0,0.0,0.0,0.0,0.0,1.9412,1.919,1.9201,1.9618,1.8286,1.6279,1.3544,0.0,0.0,0.0,0.0,0.0,0.0,0.0,0.0,0.0,0.0,0.0,0.0,0.0,0.0,0.0,0.0,0.0,0.0,0.0,0.0,0.0,0.0,0.0,0.0,0.0,0.0,0.0,0.0,0.0,0.0,0.0,0.0,0.0,0.0,0.0,0.0,0.0,0.0,0.0,0.0,0.0,0.0,0.0,0.0,0.0,0.0,0.0,0.0,0.0,0.0,0.0,0.0,0.0,0.0,0.0,0.0,0.0,0.0,0.0,0.0,0.0,0.0,0.0,0.0,0.0,0.0,0.0,0.0,0.0,0.0,0.0,0.0,0.0,0.0,0.0,0.0,0.0,0.0,0.0,0.0,0.0,0.0,0.0,0.0,0.0,0.0,0.0,0.0,0.0,0.0,0.0,0.0,0.0,0.0,0.0,0.0,0.0,0.0,0.0,0.0,0.0,0.0,0.0,0.0,0.0,0.0,0.0,0.0,2.1181,2.0441,2.0007,1.9945,1.9064,1.703,0.0,0.0,0.0,0.0,0.0,0.0,0.0,0.0,0.0,0.0,0.0,0.0,0.0,0.0,0.0,0.0,0.0,0.0,0.0,0.0,0.0,0.0,0.0,0.0,0.0,0.0,0.0,0.0,0.0,0.0,0.0,0.0,0.0,0.0,0.0,0.0,0.0,0.0,0.0,0.0,0.0,0.0,0.0,0.0,0.0,0.0,0.0,0.0,0.0,0.0,0.0,0.0,0.0,0.0,0.0,0.0,0.0,0.0,0.0,0.0,0.0,0.0,0.0,0.0,0.0,0.0,0.0,0.0,0.0,0.0,0.0,0.0,0.0,0.0,0.0,0.0,0.0,0.0,0.0,0.0,0.0,0.0,0.0,0.0,0.0,0.0,0.0,0.0,0.0,0.0,0.0,0.0,0.0,0.0,0.0,0.0,0.0,0.0,0.0,0.0,0.0,0.0,0.0,0.0,0.0,0.0,0.0,0.0,0.0,2.1262,2.2252,2.2678,2.248,2.1093,1.907,0.0,0.0,0.0,0.0,0.0,0.0,0.0,0.0,0.0,0.0,0.0,0.0,0.0,0.0,0.0,0.0,0.0,0.0,0.0,0.0,0.0,0.0,0.0,0.0,0.0,0.0,0.0,0.0,0.0,0.0,0.0,0.0,0.0,0.0,0.0,0.0,0.0,0.0,0.0,0.0,0.0,0.0,0.0,0.0,0.0,0.0,0.0,0.0,0.0,0.0,0.0,0.0,0.0,0.0,0.0,0.0,0.0,0.0,0.0,0.0,0.0,0.0,0.0,0.0,0.0,0.0,0.0,0.0,0.0,0.0,0.0,0.0,0.0,0.0,0.0,0.0,0.0,0.0,0.0,0.0,0.0,0.0,0.0,0.0,0.0,0.0,0.0,0.0,0.0,0.0,0.0,0.0,0.0,0.0,0.0,0.0,0.0,0.0,0.0,0.0,0.0,0.0,0.0,0.0,0.0,0.0,0.0,0.0,2.0923,2.3007,2.4604,2.5336,2.5184,2.2809,2.0195,0.0,0.0,0.0,0.0,0.0,0.0,0.0,0.0,0.0,0.0,0.0,0.0,0.0,0.0,0.0,0.0,0.0,0.0,0.0,0.0,0.0,0.0,0.0,0.0,0.0,0.0,0.0,0.0,0.0,0.0,0.0,0.0,0.0,0.0,0.0,0.0,0.0,0.0,0.0,0.0,0.0,0.0,0.0,0.0,0.0,0.0,0.0,0.0,0.0,0.0,0.0,0.0,0.0,0.0,0.0,0.0,0.0,0.0,0.0,0.0,0.0,0.0,0.0,0.0,0.0,0.0,0.0,0.0,0.0,0.0,0.0,0.0,0.0,0.0,0.0,0.0,0.0,0.0,0.0,0.0,0.0,0.0,0.0,0.0,0.0,0.0,0.0,0.0,0.0,0.0,0.0,0.0,0.0,0.0,0.0,0.0,0.0,0.0,0.0,0.0,0.0,0.0,0.0,0.0,0.0,0.0,0.0,0.0,2.3756,2.5395,2.686,2.7586,2.7447,2.4308,2.1078,0.0,0.0,0.0,0.0,0.0,0.0,0.0,0.0,0.0,0.0,0.0,0.0,0.0,0.0,0.0,0.0,0.0,0.0,0.0,0.0,0.0,0.0,0.0,0.0,0.0,0.0,0.0,0.0,0.0,0.0,0.0,0.0,0.0,0.0,0.0,0.0,0.0,0.0,0.0,0.0,0.0,0.0,0.0,0.0,0.0,0.0,0.0,0.0,0.0,0.0,0.0,0.0,0.0,0.0,0.0,0.0,0.0,0.0,0.0,0.0,0.0,0.0,0.0,0.0,0.0,0.0,0.0,0.0,0.0,0.0,0.0,0.0,0.0,0.0,0.0,0.0,0.0,0.0,0.0,0.0,0.0,0.0,0.0,0.0,0.0,0.0,0.0,0.0,0.0,0.0,0.0,0.0,0.0,0.0,0.0,0.0,0.0,0.0,0.0,0.0,0.0,0.0,0.0,0.0,0.0,0.0,0.0,0.0,2.4768,2.6354,2.73,2.7735,2.7644,2.5499,2.3375,0.0,0.0,0.0,0.0,0.0,0.0,0.0,0.0,0.0,0.0,0.0,0.0,0.0,0.0,0.0,0.0,0.0,0.0,0.0,0.0,0.0,0.0,0.0,0.0,0.0,0.0,0.0,0.0,0.0,0.0,0.0,0.0,0.0,0.0,0.0,0.0,0.0,0.0,0.0,0.0,0.0,0.0,0.0,0.0,0.0,0.0,0.0,0.0,1.5482,0.0,0.0,0.0,0.0,0.0,0.0,0.0,0.0,0.0,0.0,0.0,0.0,0.0,0.0,0.0,0.0,0.0,0.0,0.0,0.0,0.0,0.0,0.0,0.0,0.0,0.0,0.0,0.0,0.0,0.0,0.0,0.0,0.0,0.0,0.0,0.0,0.0,0.0,0.0,0.0,0.0,0.0,0.0,0.0,0.0,0.0,0.0,0.0,0.0,0.0,0.0,0.0,0.0,0.0,0.0,0.0,0.0,0.0,0.0,2.6343,2.7964,2.8713,2.903,2.8877,2.7522,2.5389,0.0,0.0,0.0,0.0,0.0,0.0,0.0,0.0,0.0,0.0,0.0,0.0,0.0,0.0,0.0,0.0,0.0,0.0,0.0,0.0,0.0,0.0,0.0,0.0,0.0,0.0,0.0,0.0,0.0,0.0,0.0,0.0,0.0,0.0,0.0,0.0,0.0,0.0,0.0,0.0,0.0,0.0,0.0,0.0,0.0,0.0,0.0,0.0,0.0,0.0,0.0,0.0,0.0,0.0,0.0,0.0,0.0,0.0,0.0,0.0,0.0,0.0,0.0,0.0,0.0,0.0,0.0,0.0,0.0,0.0,0.0,0.0,0.0,0.0,0.0,0.0,0.0,0.0,0.0,0.0,0.0,0.0,0.0,0.0,0.0,0.0,0.0,0.0,0.0,0.0,0.0,0.0,0.0,0.0,0.0,0.0,0.0,0.0,0.0,0.0,0.0,0.0,0.0,0.0,0.0,0.0,0.0,2.536,2.7941,2.9616,3.0254,3.0472,3.0309,2.9417,2.6943,2.2798,0.0,0.0,0.0,0.0,0.0,0.0,0.0,0.0,0.0,0.0,0.0,0.0,0.0,0.0,0.0,0.0,0.0,0.0,0.0,0.0,0.0,0.0,0.0,0.0,0.0,0.0,0.0,0.0,0.0,0.0,0.0,0.0,0.0,0.0,0.0,0.0,0.0,0.0,1.416,1.6294,0.0,0.0,0.0,0.0,0.0,0.0,0.0,0.0,1.8066,0.0,0.0,0.0,0.0,0.0,0.0,0.0,0.0,0.0,0.0,0.0,0.0,0.0,0.0,0.0,0.0,0.0,0.0,0.0,0.0,0.0,0.0,0.0,0.0,0.0,0.0,0.0,0.0,0.0,0.0,0.0,0.0,0.0,0.0,0.0,0.0,0.0,0.0,0.0,0.0,0.0,0.0,0.0,0.0,0.0,0.0,0.0,0.0,0.0,0.0,0.0,0.0,0.0,0.0,0.0,0.0,2.2876,2.6252,2.8823,3.0541,3.0581,3.0554,3.0458,2.9502,2.7325,2.3826,0.0,0.0,0.0,0.0,0.0,0.0,0.0,0.0,0.0,0.0,0.0,0.0,0.0,0.0,0.0,0.0,0.0,0.0,0.0,0.0,0.0,0.0,0.0,0.0,0.0,0.0,0.0,0.0,0.0,0.0,0.0,0.0,0.0,0.0,0.0,0.0,0.0,0.0,0.0,1.8631,1.9619,0.0,0.0,0.0,0.0,0.0,0.0,0.0,0.0,2.0017,0.0,0.0,0.0,0.0,0.0,0.0,0.0,0.0,0.0,0.0,0.0,0.0,0.0,0.0,0.0,0.0,0.0,0.0,0.0,0.0,0.0,0.0,0.0,0.0,0.0,0.0,0.0,0.0,0.0,0.0,0.0,0.0,0.0,0.0,0.0,0.0,0.0,0.0,0.0,0.0,0.0,0.0,0.0,0.0,0.0,0.0,0.0,0.0,0.0,0.0,0.0,0.0,0.0,0.0,0.0,2.3149,2.6897,2.9505,3.0741,3.0678,3.0556,3.0482,2.9147,2.7006,0.0,0.0,0.0,0.0,0.0,0.0,0.0,0.0,0.0,0.0,0.0,0.0,0.0,0.0,0.0,0.0,0.0,0.0,0.0,0.0,0.0,0.0,0.0,0.0,0.0,0.0,0.0,0.0,0.0,0.0,0.0,0.0,0.0,0.0,0.0,0.0,0.0,0.0,0.0,0.0,2.0527,2.155,2.3119,0.0,0.0,0.0,0.0,0.0,0.0,2.1702,2.0935,0.0,0.0,0.0,0.0,0.0,0.0,0.0,0.0,0.0,0.0,0.0,0.0,0.0,0.0,0.0,0.0,0.0,0.0,0.0,0.0,0.0,0.0,0.0,0.0,0.0,0.0,0.0,0.0,0.0,0.0,0.0,0.0,0.0,0.0,0.0,0.0,0.0,0.0,0.0,0.0,0.0,0.0,0.0,0.0,0.0,0.0,0.0,0.0,0.0,0.0,0.0,0.0,0.0,0.0,0.0,2.3417,2.7422,2.9912,3.0735,3.0681,3.0575,3.0467,2.8637,2.6405,0.0,0.0,0.0,0.0,0.0,0.0,0.0,0.0,0.0,0.0,0.0,0.0,0.0,0.0,0.0,0.0,0.0,0.0,0.0,0.0,0.0,0.0,0.0,0.0,0.0,0.0,0.0,0.0,0.0,0.0,0.0,0.0,0.0,0.0,0.0,0.0,0.0,0.0,0.0,0.0,0.0,2.3232,2.5381,2.332,0.0,0.0,0.0,0.0,2.3318,2.3116,0.0,0.0,0.0,0.0,0.0,0.0,0.0,0.0,0.0,0.0,0.0,0.0,0.0,0.0,0.0,0.0,0.0,0.0,0.0,0.0,0.0,0.0,0.0,0.0,0.0,0.0,0.0,0.0,0.0,0.0,0.0,0.0,0.0,0.0,0.0,0.0,0.0,0.0,0.0,0.0,0.0,0.0,0.0,0.0,0.0,0.0,0.0,0.0,0.0,0.0,0.0,0.0,0.0,0.0,0.0,0.0,2.4236,2.772,2.9936,3.0735,3.0728,3.0638,3.0462,2.814,2.5582,0.0,0.0,0.0,0.0,0.0,0.0,0.0,0.0,0.0,0.0,0.0,0.0,0.0,0.0,0.0,0.0,0.0,0.0,0.0,0.0,0.0,0.0,0.0,0.0,0.0,0.0,0.0,0.0,0.0,0.0,0.0,0.0,0.0,0.0,0.0,0.0,0.0,0.0,0.0,0.0,0.0,2.3883,2.5555,2.4804,2.3841,0.0,0.0,2.5079,2.5273,2.5752,0.0,0.0,0.0,0.0,0.0,0.0,0.0,0.0,0.0,0.0,0.0,0.0,0.0,0.0,0.0,0.0,0.0,0.0,0.0,0.0,0.0,0.0,0.0,0.0,0.0,0.0,0.0,0.0,0.0,0.0,0.0,0.0,0.0,0.0,0.0,0.0,0.0,0.0,0.0,0.0,0.0,0.0,0.0,0.0,0.0,0.0,0.0,0.0,0.0,0.0,0.0,0.0,0.0,0.0,0.0,2.1409,2.4411,2.8211,3.0369,3.0776,3.0731,3.0651,3.0543,2.809,2.5511,0.0,0.0,0.0,0.0,0.0,0.0,0.0,0.0,0.0,0.0,0.0,0.0,0.0,0.0,0.0,0.0,0.0,0.0,0.0,0.0,0.0,0.0,0.0,0.0,0.0,0.0,0.0,0.0,0.0,0.0,0.0,0.0,0.0,0.0,0.0,0.0,0.0,0.0,0.0,0.0,0.0,0.0,2.6281,2.577,0.0,0.0,0.0,2.5606,2.5606,0.0,0.0,0.0,0.0,0.0,0.0,0.0,0.0,0.0,0.0,0.0,0.0,0.0,0.0,0.0,0.0,0.0,0.0,0.0,0.0,0.0,0.0,0.0,0.0,0.0,0.0,0.0,0.0,0.0,0.0,0.0,0.0,0.0,0.0,0.0,0.0,0.0,0.0,0.0,0.0,0.0,0.0,0.0,0.0,0.0,0.0,0.0,0.0,0.0,0.0,0.0,0.0,0.0,0.0,0.0,0.0,0.0,2.4699,2.8659,3.074,3.0769,3.0716,3.0655,3.0568,2.8325,0.0,0.0,0.0,0.0,0.0,0.0,0.0,0.0,0.0,0.0,0.0,0.0,0.0,0.0,0.0,0.0,0.0,0.0,0.0,0.0,0.0,0.0,0.0,0.0,0.0,0.0,0.0,1.1609,0.0,0.0,0.0,0.0,0.0,0.0,0.0,0.0,0.0,0.0,0.0,0.0,0.0,0.0,2.5305,2.6793,2.6664,2.6591,0.0,0.0,2.6228,2.6228,2.6911,2.6382,0.0,0.0,0.0,0.0,0.0,0.0,0.0,0.0,0.0,0.0,0.0,0.0,0.0,0.0,0.0,0.0,0.0,0.0,0.0,0.0,0.0,0.0,0.0,0.0,0.0,0.0,0.0,0.0,0.0,0.0,0.0,0.0,0.0,0.0,0.0,0.0,0.0,0.0,0.0,0.0,0.0,0.0,0.0,0.0,0.0,0.0,0.0,0.0,0.0,0.0,0.0,0.0,0.0,0.0,0.0,2.5507,2.8929,3.0711,3.07,3.0637,3.0602,3.0565,2.8848,2.6683,0.0,0.0,0.0,0.0,0.0,0.0,0.0,0.0,0.0,0.0,0.0,0.0,0.0,0.0,0.0,0.0,0.0,0.0,0.0,0.0,0.0,0.0,0.0,0.0,0.0,0.0,0.0,0.0,0.0,0.0,0.0,0.0,0.0,0.0,0.0,0.0,0.0,0.0,0.0,0.0,0.0,2.5274,2.6784,2.7597,2.8015,0.0,0.0,2.7937,2.7919,2.8602,2.8273,2.5763,0.0,0.0,0.0,0.0,0.0,0.0,0.0,0.0,0.0,0.0,0.0,0.0,0.0,0.0,0.0,0.0,0.0,0.0,0.0,0.0,0.0,0.0,0.0,0.0,0.0,0.0,0.0,0.0,0.0,0.0,0.0,0.0,0.0,0.0,0.0,0.0,0.0,0.0,0.0,0.0,0.0,0.0,0.0,0.0,0.0,0.0,0.0,0.0,0.0,0.0,0.0,0.0,0.0,2.2178,2.5568,2.8971,3.0664,3.0642,3.0645,3.0606,3.0477,2.9394,2.755,0.0,0.0,0.0,0.0,0.0,0.0,0.0,0.0,0.0,0.0,0.0,0.0,0.0,0.0,0.0,0.0,0.0,0.0,0.0,0.0,0.0,0.0,0.0,0.0,0.0,0.0,0.0,0.0,1.9923,2.0354,1.9146,0.0,0.0,0.0,0.0,0.0,0.0,0.0,0.0,0.0,0.0,2.6048,2.7541,2.8006,0.0,0.0,2.8114,2.8114,2.8114,2.8354,2.7897,2.5912,2.3951,0.0,0.0,0.0,0.0,0.0,0.0,0.0,0.0,0.0,0.0,0.0,0.0,0.0,0.0,0.0,0.0,0.0,0.0,0.0,0.0,0.0,0.0,0.0,0.0,0.0,0.0,0.0,0.0,0.0,0.0,0.0,0.0,0.0,0.0,0.0,0.0,0.0,0.0,0.0,0.0,0.0,0.0,0.0,0.0,0.0,0.0,0.0,0.0,0.0,0.0,0.0,0.0,2.2418,2.5562,2.8944,3.0645,3.0619,3.0606,3.0552,3.0374,2.9878,2.8493,0.0,0.0,0.0,0.0,0.0,0.0,0.0,0.0,0.0,0.0,0.0,0.0,0.0,0.0,0.0,0.0,0.0,0.0,0.0,0.0,0.0,0.0,0.0,0.0,0.0,0.0,0.0,0.0,2.1329,2.1139,1.8857,0.0,0.0,0.0,0.0,0.0,0.0,0.0,0.0,0.0,0.0,2.6829,2.8082,2.8445,2.8604,2.8536,2.8516,2.8403,2.8133,2.828,2.7889,2.6227,0.0,0.0,0.0,0.0,0.0,0.0,0.0,0.0,0.0,0.0,0.0,0.0,0.0,0.0,0.0,0.0,0.0,0.0,0.0,0.0,0.0,0.0,0.0,0.0,0.0,0.0,0.0,0.0,0.0,0.0,1.0426,0.0,0.0,0.0,0.0,0.0,0.0,0.0,0.0,0.0,0.0,0.0,0.0,0.0,0.0,0.0,0.0,0.0,0.0,0.0,0.0,0.0,0.0,2.2957,2.5579,2.8885,3.06,3.0595,3.0472,3.0407,3.0402,3.0388,2.9541,2.7723,0.0,0.0,0.0,0.0,0.0,0.0,0.0,0.0,0.0,0.0,0.0,0.0,0.0,0.0,0.0,0.0,0.0,0.0,0.0,0.0,0.0,0.0,0.0,0.0,0.0,0.0,1.7842,1.9242,1.9585,0.0,0.0,0.0,0.0,0.0,0.0,0.0,0.0,0.0,0.0,2.5698,2.747,2.8305,2.9073,2.9504,2.9436,2.9405,2.9076,2.8254,2.8732,2.8717,0.0,0.0,0.0,0.0,0.0,0.0,0.0,0.0,0.0,0.0,0.0,0.0,0.0,0.0,0.0,0.0,0.0,0.0,0.0,0.0,0.0,0.0,0.0,0.0,0.0,0.0,0.0,1.2504,1.2425,0.0,0.0,0.0,0.0,0.0,0.0,0.0,0.0,0.0,0.0,0.0,2.316,2.3496,0.0,0.0,0.0,0.0,0.0,0.0,0.0,0.0,0.0,0.0,0.0,0.0,2.2901,2.5479,2.8766,3.0462,3.0403,3.0392,3.0348,3.0267,3.0303,2.924,2.6921,0.0,0.0,0.0,0.0,0.0,0.0,0.0,0.0,0.0,0.0,0.0,0.0,0.0,0.0,0.0,0.0,0.0,0.0,0.0,0.0,0.0,0.0,0.0,0.0,0.0,1.9345,0.0,0.0,0.0,0.0,0.0,0.0,0.0,0.0,0.0,0.0,0.0,2.4024,2.5793,2.7207,2.8312,2.9026,2.9353,2.9512,0.0,0.0,0.0,0.0,0.0,0.0,0.0,0.0,0.0,0.0,0.0,0.0,0.0,0.0,2.235,2.1171,2.0722,2.0315,1.9702,0.0,0.0,0.0,0.0,0.0,0.0,0.0,0.0,0.0,0.0,0.0,0.0,0.0,0.0,1.4556,0.0,1.414,0.0,0.0,0.0,0.0,0.0,0.0,0.0,0.0,2.3257,2.4872,2.6048,2.6117,2.5899,0.0,2.4864,2.2976,0.0,0.0,0.0,0.0,0.0,0.0,0.0,0.0,2.3562,2.5837,2.8819,3.0331,3.031,3.0315,3.0292,3.0218,3.0241,2.9475,2.7765,2.6587,2.4548,0.0,0.0,0.0,0.0,0.0,0.0,0.0,0.0,0.0,0.0,0.0,0.0,0.0,0.0,0.0,0.0,0.0,0.0,0.0,0.0,0.0,0.0,0.0,2.1048,0.0,0.0,0.0,0.0,0.0,0.0,0.0,0.0,0.0,2.1347,2.4195,2.6597,2.7524,2.861,2.9373,2.9541,0.0,0.0,0.0,0.0,0.0,0.0,0.0,2.8326,2.7946,2.7607,2.7339,2.723,2.6855,2.6481,2.6202,0.0,0.0,2.3744,2.3395,2.3218,2.2721,2.2713,2.279,2.2838,2.2966,2.3269,0.0,0.0,0.0,0.0,0.0,0.0,0.0,0.0,1.6387,1.6785,0.0,1.6909,0.0,0.0,0.0,0.0,0.0,2.0409,0.0,0.0,2.6725,2.8136,2.8407,2.8469,2.8512,2.8433,2.6956,2.6271,2.6161,2.3244,0.0,0.0,0.0,0.0,0.0,0.0,2.4962,2.6656,2.9052,3.0304,3.0298,3.0227,3.0211,3.0211,3.0211,3.0192,3.0128,2.8553,2.7241,2.6298,2.2409,0.0,0.0,0.0,0.0,0.0,0.0,0.0,0.0,0.0,0.0,0.0,0.0,0.0,0.0,0.0,0.0,0.0,0.0,0.0,0.0,2.121,0.0,0.0,0.0,0.0,0.0,0.0,0.0,0.0,0.0,0.0,2.4098,2.6597,2.8509,2.8586,0.0,0.0,0.0,0.0,2.9701,2.9701,2.9579,2.9212,2.8398,2.8819,2.892,2.7915,0.0,0.0,2.8291,2.8014,2.7815,2.7672,2.7685,2.7239,2.5624,2.5232,2.5204,2.5397,2.5094,2.476,2.473,2.4633,2.4346,1.1719,0.0,0.0,0.0,0.0,1.5242,1.6298,1.6901,1.8087,1.8793,1.913,1.9146,0.0,0.0,0.0,0.0,0.0,0.0,2.4083,2.5854,2.7374,2.851,2.9307,2.9363,2.9353,2.9353,2.8974,2.8828,2.8844,2.8075,2.5658,2.1707,0.0,0.0,0.0,0.0,2.5718,2.7388,2.9245,3.024,3.0214,3.0206,3.0204,3.0204,3.0204,3.0204,3.0204,2.972,2.8757,2.7279,2.5482,0.0,0.0,0.0,0.0,0.0,0.0,0.0,0.0,0.0,0.0,0.0,0.0,0.0,0.0,0.0,0.0,0.0,0.0,0.0,2.2165,2.367,2.3261,0.0,0.0,0.0,0.0,0.0,0.0,0.0,0.0,0.0,2.7396,2.925,3.0473,0.0,0.0,3.0894,3.0612,3.0058,2.9701,2.9701,2.9626,0.0,2.9175,2.9071,2.8915,2.8606,2.8927,2.912,2.8753,2.8983,2.9128,2.88,2.8716,2.8528,2.8049,2.7649,2.7621,2.8085,2.7878,2.7604,2.7691,2.7409,2.7068,1.1174,1.1504,1.2685,1.353,1.4232,1.5672,1.666,1.7398,1.8964,1.9831,2.0125,2.0847,2.1049,2.0908,2.1149,0.0,0.0,0.0,2.5855,2.7316,2.8123,2.8928,2.9655,2.9701,2.9701,2.9692,2.9782,2.9849,2.9916,3.0019,2.8419,2.5225,0.0,0.0,2.4297,2.5548,2.6846,2.816,2.9511,3.0204,3.0204,3.0204,3.0204,3.0204,3.0204,3.0204,3.0204,3.0204,2.9706,2.8627,2.7428,2.5467,0.0,0.0,0.0,0.0,0.0,0.0,0.0,0.0,0.0,0.0,0.0,1.5612,1.6101,0.0,0.0,0.0,2.1207,2.2923,2.5645,2.5753,0.0,0.0,0.0,0.0,0.0,0.0,0.0,2.4868,2.6895,2.8371,2.8893,3.0326,3.1135,3.0627,3.0818,3.0876,3.049,0.0,2.9701,2.9701,2.9626,2.9502,2.9363,2.937,2.9417,2.952,2.9533,2.9486,2.9322,2.9512,2.9556,2.9282,2.9158,2.9206,2.9401,2.9189,2.9007,2.9248,2.8944,2.8667,2.8743,2.84,2.807,1.0461,1.085,1.211,1.3442,1.4848,1.5794,1.6379,1.6927,1.9139,2.0093,2.017,2.207,2.2691,2.2435,2.337,0.0,2.5221,2.6548,2.7607,2.8504,2.8888,2.9283,2.9645,2.9664,2.9683,2.9664,2.9683,2.9746,2.9872,2.9888,2.9589,2.8992,2.8249,2.7491,2.677,2.7433,2.8198,2.8987,2.9803,3.0204,3.0204,3.0204,3.0204,3.0204,3.0204,3.0204,3.0204,3.0204,3.0176,3.0072,2.8555,2.7247,2.6148,0.0,0.0,0.0,0.0,0.0,0.0,0.0,0.0,0.0,0.0,0.0,0.0,0.0,0.0,0.0,2.5075,0.0,2.8758,2.7504,0.0,0.0,0.0,2.3405,2.413,2.5024,2.5913,2.6724,0.0,0.0,2.9098,3.0277,3.0799,3.001,3.0461,3.0621,2.988,2.973,2.9673,2.9664,2.9635,2.9485,2.9351,2.9732,3.0122,3.0308,3.0138,2.9931,2.9915,2.9868,2.9661,2.9555,2.9416,2.9549,3.0112,3.0087,2.981,2.9317,2.8957,2.8691,2.8705,2.8369,2.8053,1.02,1.0529,1.0944,1.1844,1.3045,1.4599,1.5636,1.6501,1.8437,1.9938,2.1127,2.2417,2.3614,2.4721,2.5203,2.5816,2.654,2.7289,2.786,2.8285,2.8743,2.9064,2.9233,2.9412,2.9463,2.9472,2.9513,2.9579,2.9681,2.9786,2.9775,2.9668,2.9613,2.9179,2.837,2.8523,2.9039,2.9879,3.0096,3.0204,3.0204,3.0204,3.0204,3.0204,3.0204,3.0204,3.0204,3.0204,3.0185,3.0164,2.9631,2.8673,2.7199,2.4103,0.0,0.0,0.0,0.0,0.0,0.0,0.0,0.0,0.0,1.919,1.9864,0.0,2.2962,0.0,2.6765,2.8464,2.8853,2.8535,0.0,0.0,2.6422,2.6417,2.6046,2.7302,2.8283,2.8485,2.9438,3.0023,2.9868,3.011,3.0138,2.9805,3.0359,3.0741,3.0476,2.9924,2.9531,2.9596,2.9882,3.0068,2.9998,3.0199,3.0359,3.0227,3.0448,3.0646,3.0629,3.0993,3.1212,3.1066,3.0991,3.0982,3.0987,3.0942,3.0774,3.0508,3.0279,3.0155,3.0037,2.9774,2.95,1.0463,0.9876,1.024,1.0823,1.1602,1.3528,1.472,1.5485,1.7641,1.916,2.0225,2.2258,2.4003,2.5503,2.5866,2.6278,2.6775,2.7474,2.7837,2.798,2.859,2.8973,2.9115,2.922,2.9262,2.9262,2.9316,2.9378,2.9504,2.9589,2.9672,2.9779,2.998,2.9828,2.9383,2.9436,2.9707,3.0204,3.0204,3.0204,3.0204,3.0204,3.0204,3.0185,2.9822,2.9631,2.9624,2.9235,2.9037,2.9037,2.8886,2.8387,2.7415,2.49,2.2295,0.0,0.0,0.0,0.0,0.0,0.0,0.0,0.0,0.0,0.0,0.0,2.5071,2.6024,2.8162,2.9324,2.893,2.8891,2.8549,2.7707,2.8031,2.8316,2.823,2.9085,2.9673,2.9688,3.0104,3.0317,3.0122,3.0038,2.9888,2.968,2.9954,3.0173,3.0146,2.9754,2.9633,2.9987,3.0281,3.0651,3.096,3.0916,3.0896,3.1105,3.1288,3.1446,3.1429,3.1616,3.1746,3.1617,3.154,3.1462,3.1332,3.1235,3.1131,3.1026,3.1139,3.1062,3.0613,3.0321,3.013,1.0858,0.9384,0.995,1.029,1.0558,1.2594,1.3666,1.4218,1.6711,1.812,1.8877,2.1963,2.4045,2.5297,2.5703,2.603,2.6315,2.7192,2.7584,2.7595,2.8389,2.885,2.9038,2.9053,2.9071,2.9053,2.9082,2.9177,2.9361,2.9353,2.9444,2.957,2.9777,2.9916,2.9924,3.0106,3.0204,3.0204,3.0204,3.0204,3.0204,3.0204,3.0204,3.0192,2.9357,2.8891,2.8872,2.807,2.7592,2.7585,2.7463,2.7406,2.7385,2.5048,2.3034,0.0,1.9993,0.0,0.0,0.0,0.0,0.0,0.0,0.0,0.0,2.6136,2.6597,2.7595,2.9117,2.9758,2.9108,2.9063,2.9103,2.9168,2.9168,2.9467,3.0208,3.0373,3.0404,3.0404,3.0404,3.0311,3.0095,2.9962,2.9828,2.9608,2.9528,2.9578,2.9658,2.9715,2.9929,3.0611,3.0804,3.1219,3.189,3.1702,3.1597,3.2161,3.2127,3.209,3.2038,3.1929,3.1746,3.1653,3.1557,3.1462,3.1351,3.1271,3.1171,3.1032,3.1485,3.1646,3.0954,3.0731,3.051,1.0462,1.0367,1.023,1.0227,1.042,1.1572,1.2517,1.3364,1.5264,1.7461,1.994,2.2258,2.3655,2.4236,2.5005,2.5424,2.5545,2.6197,2.6771,2.7291,2.7723,2.8206,2.8694,2.8845,2.8945,2.8945,2.8934,2.9014,2.9156,2.9174,2.9222,2.9365,2.9716,2.9916,2.9905,0.0,0.0,0.0,3.0204,3.0204,3.0204,3.0204,3.0204,3.0166,2.9357,0.0,2.8872,2.807,2.7585,2.7596,2.7426,0.0,0.0,0.0,0.0,0.0,0.0,0.0,0.0,0.0,0.0,0.0,2.528,2.5386,2.5959,2.6696,2.7558,2.8536,2.8965,2.9374,2.9898,2.9956,2.9983,3.0043,3.0037,3.0145,3.0367,3.0404,3.0404,3.0404,3.0404,3.0299,2.9985,2.9918,2.9777,2.9501,2.9409,2.9667,3.0283,3.0368,3.0451,3.0634,3.133,3.2023,3.2578,3.2374,3.2108,3.2232,3.2161,3.2073,3.1948,3.1857,3.18,3.1763,3.1614,3.1498,3.1462,3.1308,3.1171,3.1052,3.1536,3.1922,3.1641,3.1906,3.2172,1.0827,0.0,1.0115,1.0103,0.0,1.0672,1.1343,1.2277,1.4459,1.6857,1.9418,2.1349,2.2558,2.3228,2.4184,2.4756,2.5035,2.5682,2.625,2.6738,2.7397,2.7929,2.837,2.8614,2.8749,2.8743,2.8761,2.8803,2.894,2.8968,2.9019,2.9141,2.9455,2.9653,2.9751,3.0049,3.0204,3.0204,3.0204,3.0204,3.0204,3.0204,3.0204,3.0185,2.9357,0.0,0.0,0.0,0.0,0.0,0.0,0.0,0.0,2.673,0.0,2.5867,2.5402,2.5225,2.5476,2.5887,2.6631,2.7824,2.797,2.7781,2.732,2.8126,2.8863,2.9424,2.9525,2.9725,3.0147,3.0204,3.0206,3.026,3.0279,3.0311,3.0336,3.0398,3.0404,3.0404,3.0404,3.0267,2.9942,2.9902,2.977,2.947,2.9388,2.9694,3.0418,3.0615,3.0827,3.1634,3.2261,3.2741,3.2957,3.2672,3.2354,3.2232,3.2144,3.2037,3.1912,3.1838,3.18,3.1781,3.1632,3.1481,3.1479,3.1344,3.1272,3.1618,3.2139,3.2689,3.2861,3.2862,3.2696,1.0901,0.9841,0.9728,0.9915,1.0283,1.0064,1.0545,1.1635,0.0,0.0,0.0,2.0169,2.1515,2.2606,2.3511,2.4249,2.489,2.5567,2.6151,2.6686,2.7364,2.7932,2.8398,2.8533,2.86,2.86,2.86,2.8662,2.8804,2.8816,2.8858,2.9017,2.9195,2.9387,2.9617,2.9961,3.0135,3.0106,3.0135,3.0142,3.015,3.015,3.015,3.013,2.9343,2.8878,2.8831,2.801,2.7462,2.7261,2.719,2.7119,2.7072,2.7012,2.685,2.6594,2.7145,2.7635,2.7907,2.8563,2.9219,2.9842,2.983,2.9521,2.8879,2.9501,2.998,3.011,3.0176,3.0204,3.0204,3.0204,3.0206,3.0214,3.0254,3.0305,3.031,3.0373,3.0404,3.0404,3.0404,3.0273,2.995,2.9902,2.9787,2.9509,2.9556,2.9973,3.0772,3.1125,3.1645,3.2862,3.319,3.327,3.3273,3.28,3.2405,3.2301,3.2179,3.2055,3.1912,3.182,3.18,3.18,3.1632,3.1536,3.1498,3.1516,3.1619,3.2175,3.2917,3.3542,3.3985,3.3656,3.3205,0.9377,0.9599,0.9074,0.9664,1.0908,1.0205,1.0931,1.2731,1.4844,1.6704,1.8235,1.9544,2.1263,2.3181,2.3445,2.4269,2.5462,2.5877,2.6865,2.8293,2.7844,2.8324,2.9488,2.8913,2.86,2.86,2.86,2.8662,2.8804,2.8816,2.8858,2.8998,2.9206,2.9405,2.9608,2.982,2.9845,2.9698,2.9836,2.9948,2.9956,2.9929,2.9948,2.9918,2.9267,2.881,2.8639,2.7824,2.7253,2.7054,2.6982,2.7193,2.773,2.7687,2.8052,2.8894,2.9042,2.9205,2.952,2.9768,2.9885,2.9815,2.9542,2.9476,2.9704,2.9931,3.0091,3.0183,3.0204,3.0204,3.0204,3.0204,3.0213,3.0273,3.0305,3.0331,3.0373,3.0398,3.0404,3.0404,3.0404,3.0267,2.9965,2.9894,2.977,2.9612,3.0121,3.0957,3.2128,3.2667,3.3039,3.371,3.3593,3.3465,3.3536,3.2959,3.2506,3.254,3.2284,3.2054,3.1856,3.1801,3.18,3.18,3.1671,3.1593,3.1568,3.1983,3.2258,3.25,3.3339,3.4085,3.4276,3.4441,3.4602,0.9122,0.9263,0.9079,0.9425,1.0105,0.9954,1.0965,1.2806,1.446,1.5578,1.6498,1.855,2.022,2.1506,2.2432,2.3767,2.5402,2.577,2.6676,2.7909,2.8152,2.8848,2.9831,2.9733,2.9742,2.9853,2.926,2.9124,2.9387,2.9016,2.8876,2.9017,2.9195,2.9345,2.9426,2.9635,2.9689,2.9608,2.9689,2.9796,2.9907,2.9916,2.9964,3.0057,2.9749,2.9515,2.9317,2.8933,2.8558,2.8248,2.8236,2.831,2.8478,2.8477,2.8772,2.9485,2.9424,2.9504,2.9899,2.9874,2.9789,2.9645,2.9636,2.969,2.9832,2.991,3.0007,3.019,3.0204,3.0204,3.0204,3.0204,3.0213,3.0305,3.0312,3.0337,3.0373,3.0404,3.0404,3.0398,3.0305,3.0168,2.9926,2.9811,2.9879,3.0073,3.1069,3.2184,3.2927,3.338,3.3751,3.4086,3.3837,3.3648,3.3734,3.3157,3.2687,3.2605,3.2318,3.2037,3.1855,3.18,3.18,3.18,3.169,3.1766,3.1978,3.229,3.27,3.3499,3.3892,3.4442,3.4802,3.5044,3.5048,0.8856,0.8737,0.8894,0.9089,0.9322,0.9728,1.0818,1.2335,1.3672,1.4407,1.5064,1.777,1.9434,2.0199,2.1805,2.359,2.529,2.5968,2.684,2.7904,2.8655,2.9489,3.0307,3.0483,3.0679,3.0875,3.0019,2.9799,3.0114,2.9429,2.9028,2.9023,2.9177,2.9272,2.9249,2.9435,2.9513,2.9474,2.9465,2.9551,2.9751,2.9794,2.9886,3.0049,3.0101,3.0042,2.9855,2.9796,2.9598,2.927,2.9238,2.9171,2.9028,2.8987,2.916,2.9474,2.9395,2.9446,2.9787,2.9653,2.9504,2.9454,2.9608,2.9717,2.9754,2.9754,2.9883,3.0142,3.0204,3.0204,3.0204,3.0204,3.0213,3.0292,3.0305,3.0331,3.0367,3.0398,3.0386,3.0323,3.0215,3.0102,2.9953,2.9981,3.0386,3.1296,3.2285,3.2971,3.328,3.3826,3.416,3.4148,3.3972,3.3829,3.3797,3.3258,3.2813,3.2669,3.2318,3.202,3.1838,3.18,3.18,3.18,3.1727,3.1926,3.2461,3.2738,3.3233,3.4151,3.4629,3.4935,3.529,3.5218,3.5065,0.7936,0.7936,0.8016,0.8475,0.9322,0.9733,1.0406,1.136,1.2647,1.3649,1.4556,1.7658,1.9544,2.0699,2.2424,2.4179,2.5891,2.6971,2.8162,2.9435,2.9627,3.0265,3.1235,3.0825,3.0679,3.0952,3.0578,3.0586,3.0952,3.0197,2.9514,2.9002,2.9174,2.9225,2.9078,2.9238,2.9249,2.9055,2.9055,2.913,2.9355,2.9523,2.9635,2.9662,2.9839,2.9839,2.9635,2.9436,2.9241,2.9055,2.9033,2.9028,2.8987,2.8987,2.9112,2.9332,2.9314,2.9405,2.9589,2.9426,2.9324,2.9322,2.9203,2.927,2.958,2.9626,2.9805,3.0113,3.0211,3.0211,3.0204,3.0211,3.0206,3.0221,3.0273,3.0305,3.0298,3.0373,3.0323,3.0143,3.0241,3.0241,3.0038,3.0619,3.1634,3.2611,3.2929,3.3343,3.3856,3.4067,3.4216,3.4161,3.3972,3.3934,3.3979,3.3343,3.2937,3.2903,3.2384,3.202,3.1893,3.1837,3.18,3.18,3.1886,3.2121,3.2713,3.318,3.383,3.4533,3.5074,3.5476,3.5498,3.5291,3.5088,0.8309,0.8737,0.8347,0.8589,0.9284,0.9473,1.0067,1.1031,1.2471,1.3055,1.3324,1.6157,1.8614,2.0525,2.1632,2.3427,2.5727,2.6388,2.749,2.8923,2.9536,3.0314,3.1147,3.1255,3.15,3.1951,3.1251,3.1176,3.1578,3.1099,3.0355,2.9692,2.9766,2.9568,2.9053,2.9089,2.9089,2.8987,2.8987,2.9033,2.9138,2.9314,2.9484,2.9579,2.9681,2.9635,2.9455,2.9345,2.9206,2.901,2.8987,2.8987,2.8987,2.8987,2.9082,2.9272,2.9304,2.9291,2.9249,2.9171,2.9108,2.9134,2.927,2.9444,2.9598,2.9809,3.0045,3.0166,3.0213,3.0219,3.024,3.0207,3.0207,3.0241,3.0279,3.0273,3.0188,3.0189,3.0182,3.0115,3.008,3.0118,3.019,3.1067,3.2166,3.3118,3.3486,3.3856,3.416,3.4216,3.4216,3.4197,3.4099,3.4068,3.4136,3.3743,3.3361,3.3163,3.2681,3.2197,3.2091,3.1893,3.18,3.18,3.2145,3.2586,3.3237,3.3932,3.4584,3.5081,3.5294,3.5594,3.5514,3.5337,3.5175,0.8231,0.8894,0.8531,0.8599,0.9056,0.9132,0.962,1.0545,1.1994,1.2331,1.2191,1.4751,1.7092,1.9133,2.0464,2.251,2.4812,2.5686,2.6672,2.793,2.9243,3.0261,3.0892,3.1456,3.2092,3.2579,3.187,3.1726,3.2176,3.1855,3.119,3.0527,3.0473,3.0106,2.9409,2.9335,2.9207,2.9005,2.8987,2.8987,2.901,2.913,2.9314,2.9485,2.9523,2.9436,2.9304,2.9241,2.916,2.8998,2.8987,2.8987,2.8987,2.8987,2.9048,2.9195,2.9217,2.9141,2.8998,2.8987,2.8987,2.904,2.9343,2.9551,2.9634,2.9904,3.0114,3.0161,3.018,3.02,3.0279,3.0207,3.0168,3.0207,3.0194,3.013,3.0019,3.0052,3.0095,3.0052,3.0326,3.062,3.1138,3.1998,3.2852,3.3598,3.3971,3.4216,3.4216,3.4216,3.4216,3.4216,3.4197,3.4197,3.4191,3.3837,3.3648,3.3372,3.2856,3.2335,3.2283,3.2002,3.1801,3.1869,3.2472,3.3072,3.3628,3.437,3.5023,3.544,3.56,3.5577,3.5549,3.5429,3.5314,0.7136,0.7874,0.8065,0.825,0.8479,0.8665,0.9013,0.9587,1.0901,1.1514,1.1834,1.3556,1.5035,1.6432,1.9221,2.159,2.3441,2.5135,2.6195,2.6952,2.8865,3.0141,3.066,3.1346,3.2074,3.2682,3.2347,3.219,3.227,3.232,3.1951,3.1217,3.1285,3.0944,3.0234,3.0087,2.9739,2.9152,2.9023,2.8987,2.8987,2.8998,2.9115,2.9283,2.9314,2.9304,2.9272,2.9086,2.9017,2.8987,2.8987,2.8987,2.8987,2.8987,2.9017,2.901,2.901,2.901,2.9017,2.8987,2.8998,2.9033,2.9228,2.9416,2.9605,2.9804,2.9977,3.0101,3.009,3.0145,3.0221,3.0111,3.0007,3.0019,2.9907,2.9851,2.9817,2.9962,3.0022,3.0167,3.0932,3.1959,3.3345,3.3584,3.3742,3.4191,3.4325,3.4209,3.4216,3.4216,3.4216,3.4216,3.4216,3.4216,3.4161,3.3915,3.363,3.3372,3.2937,3.2335,3.2214,3.2055,3.1911,3.199,3.2645,3.3281,3.3933,3.4531,3.507,3.5423,3.5588,3.5594,3.5571,3.5543,3.5406,0.7156,0.7978,0.8069,0.8217,0.8403,0.8627,0.9084,0.9728,1.0196,1.0746,1.1385,1.2375,1.3714,1.5329,1.7567,1.9663,2.1583,2.3932,2.5232,2.5827,2.7862,2.922,2.987,3.0592,3.1476,3.2334,3.2351,3.2543,3.2951,3.3077,3.2702,3.2042,3.2031,3.1693,3.0973,3.0424,3.0044,2.9739,2.9299,2.8987,2.9023,2.8987,2.9033,2.9093,2.9123,2.9104,2.9123,2.9033,2.8987,2.8987,2.8987,2.8987,2.8987,2.8987,2.8987,2.8987,2.8987,2.8987,2.8987,2.8987,2.9096,2.9254,2.933,2.9475,2.9729,2.9832,2.9899,2.9977,2.9981,3.0007,3.0015,2.9942,2.9875,2.9848,2.9826,2.9741,2.9699,2.9725,2.9945,3.0671,3.174,3.2856,3.3559,3.3726,3.3866,3.4446,3.4381,3.4221,3.4216,3.4216,3.4216,3.4216,3.4216,3.4185,3.4136,3.3979,3.3738,3.34,3.2999,3.2586,3.2352,3.202,3.1819,3.2007,3.2662,3.3606,3.4306,3.4928,3.5397,3.5486,3.5616,3.5616,3.5616,3.5566,3.5452,0.7468,0.7947,0.8056,0.8193,0.8331,0.8513,0.9084,0.9841,0.9906,1.0276,1.0956,1.1694,1.2757,1.4185,1.6026,1.7625,1.9425,2.2763,2.4629,2.5052,2.7395,2.881,2.9361,3.0272,3.1264,3.2231,3.2553,3.2878,3.3193,3.3404,3.3219,3.2756,3.2844,3.2491,3.1761,3.1212,3.0889,3.0522,2.9776,2.939,2.9372,2.9133,2.8987,2.8987,2.8987,2.8987,2.8987,2.9051,2.9051,2.9017,2.901,2.901,2.8987,2.8987,2.8987,2.8987,2.8987,2.8987,2.8987,2.8987,2.9067,2.9246,2.9343,2.9513,2.9712,2.9773,2.9834,2.9851,2.9826,2.9794,2.9744,2.9689,2.9671,2.9706,2.968,2.9636,2.9569,2.9833,3.0701,3.1909,3.2703,3.3421,3.3968,3.398,3.4095,3.4416,3.4281,3.4228,3.4216,3.4216,3.4216,3.4216,3.4216,3.4148,3.4099,3.3967,3.3889,3.3588,3.3093,3.2716,3.2403,3.2073,3.1906,3.2129,3.2815,3.3842,3.4686,3.5339,3.5562,3.5611,3.5616,3.5616,3.5594,3.5571,3.5481,0.8085,0.7885,0.7991,0.8121,0.8175,0.8336,0.9008,0.9879,0.9841,1.0024,1.07,1.1515,1.1983,1.2793,1.479,1.5974,1.7571,2.1939,2.4229,2.4602,2.7325,2.8802,2.9118,3.0335,3.1393,3.2248,3.2975,3.3132,3.2876,3.3235,3.3422,3.3541,3.3552,3.3218,3.2606,3.2405,3.2082,3.1403,3.0613,3.021,3.0118,2.95,2.9115,2.9078,2.9053,2.8998,2.8998,2.9112,2.9112,2.904,2.9074,2.9055,2.9028,2.8987,2.8987,2.9017,2.9005,2.8987,2.8987,2.8987,2.9017,2.9093,2.9257,2.9405,2.9523,2.9652,2.9715,2.9662,2.9608,2.9561,2.9451,2.9421,2.9481,2.957,2.9596,2.9639,2.9734,3.0499,3.1841,3.3353,3.3756,3.3968,3.4422,3.4478,3.436,3.4189,3.4185,3.4216,3.4216,3.4216,3.4216,3.4216,3.4216,3.4161,3.4074,3.3998,3.3947,3.3802,3.3196,3.2716,3.2487,3.2162,3.1874,3.2041,3.3076,3.4123,3.5273,3.5822,3.573,3.5734,3.5689,3.5639,3.5594,3.5571,3.5549,0.8223,0.8135,0.8095,0.8159,0.8317,0.8385,0.9268,1.0475,0.9306,0.9501,1.0663,1.0501,1.0901,1.2245,1.4185,1.5861,1.7313,2.0748,2.26,2.3476,2.5775,2.7758,2.8965,2.9679,3.0636,3.1771,3.2402,3.27,3.2813,3.2954,3.316,3.3419,3.3577,3.3519,3.325,3.2842,3.2417,3.2161,3.1421,3.1017,3.0944,3.0246,2.9824,2.9769,2.9391,2.9112,2.9085,2.91,2.9119,2.9074,2.9096,2.9096,2.9085,2.9055,2.9055,2.9044,2.9028,2.8987,2.8987,2.8998,2.9082,2.922,2.927,2.9375,2.9561,2.9542,2.9551,2.9531,2.9501,2.944,2.9399,2.9388,2.9475,2.947,3.0026,3.0394,3.0628,3.1817,3.2845,3.3355,3.3988,3.4382,3.4433,3.4435,3.4381,3.4142,3.4142,3.4216,3.4197,3.4197,3.4216,3.4216,3.4185,3.4161,3.4074,3.3967,3.3908,3.3716,3.3196,3.2716,3.247,3.2214,3.1929,3.2352,3.3386,3.4433,3.5582,3.6019,3.591,3.5778,3.5689,3.5644,3.5639,3.5594,3.5571,0.8353,0.8306,0.8214,0.8188,0.8304,0.8364,0.9224,1.0212,0.8965,0.9268,1.0438,1.0458,1.082,1.2037,1.3649,1.5361,1.7083,1.911,2.0682,2.2268,2.5011,2.7229,2.8979,2.9929,3.0592,3.147,3.2056,3.2317,3.2384,3.2682,3.2954,3.3268,3.3488,3.3615,3.3652,3.3276,3.3041,3.2926,3.2284,3.1861,3.1678,3.1054,3.0503,3.0203,2.98,2.9436,2.9174,2.9152,2.9163,2.9152,2.9152,2.9134,2.9134,2.9134,2.9134,2.9123,2.9108,2.9085,2.9085,2.9044,2.9104,2.9262,2.9257,2.9289,2.9493,2.945,2.9429,2.9431,2.9429,2.9537,2.9768,2.9842,2.9954,3.0288,3.0545,3.1098,3.1701,3.2758,3.357,3.3809,3.4229,3.4405,3.4371,3.4274,3.4276,3.4111,3.4148,3.4185,3.4166,3.4185,3.4185,3.4185,3.4185,3.4136,3.4043,3.3954,3.3863,3.3542,3.3181,3.2749,3.242,3.2126,3.1852,3.2817,3.3818,3.4622,3.5689,3.5925,3.5915,3.5822,3.5689,3.5644,3.5616,3.5616,3.5594,0.8463,0.8312,0.8288,0.8243,0.8196,0.8299,0.8912,0.9468,0.8922,0.9198,1.0175,1.072,1.1304,1.194,1.2908,1.435,1.6062,1.7358,1.9067,2.1561,2.4569,2.721,2.8856,3.0521,3.1278,3.1332,3.1877,3.2003,3.186,3.2417,3.2892,3.3111,3.3444,3.3675,3.3734,3.3788,3.3715,3.3568,3.3018,3.2669,3.2619,3.188,3.1176,3.0534,3.0421,3.0051,2.9447,2.9322,2.9262,2.9229,2.92,2.9229,2.9218,2.9218,2.9189,2.9189,2.9207,2.9197,2.9178,2.9134,2.9134,2.9222,2.9232,2.9229,2.9326,2.9378,2.9378,2.9407,2.9508,2.9805,3.0363,3.0641,3.0976,3.1589,3.1424,3.1773,3.3079,3.3417,3.3776,3.4375,3.448,3.4281,3.4257,3.4124,3.4049,3.4023,3.4099,3.4136,3.4136,3.4136,3.4161,3.4161,3.4161,3.4124,3.4049,3.3972,3.3855,3.3504,3.3181,3.2892,3.2437,3.2108,3.2076,3.3059,3.399,3.4829,3.5473,3.5745,3.5929,3.5888,3.5773,3.5684,3.5616,3.5616,3.5616,0.8584,0.8526,0.8349,0.8284,0.8269,0.8373,0.8849,0.9425,0.8775,0.8927,0.9674,0.997,1.0265,1.0602,1.1842,1.2974,1.4359,1.6441,1.8288,2.029,2.3493,2.6239,2.8389,3.0357,3.1291,3.1249,3.1428,3.1545,3.1732,3.2214,3.2651,3.3021,3.3412,3.3661,3.3726,3.378,3.3807,3.3788,3.3642,3.3476,3.333,3.2706,3.2236,3.2047,3.1537,3.0895,3.0146,2.963,2.9355,2.9272,2.9334,2.9315,2.9272,2.9272,2.9291,2.928,2.9229,2.9218,2.9218,2.9178,2.9207,2.9262,2.9262,2.9272,2.9302,2.9365,2.9376,2.9447,2.9848,3.0381,3.0679,3.118,3.1849,3.2523,3.253,3.2941,3.3875,3.4272,3.4292,3.4272,3.4203,3.4136,3.4049,3.4023,3.4004,3.3972,3.4036,3.4111,3.4074,3.4111,3.4136,3.4124,3.4111,3.4086,3.4036,3.3978,3.3802,3.348,3.3229,3.3093,3.2619,3.2197,3.2363,3.2904,3.3749,3.4591,3.5239,3.5731,3.581,3.5949,3.5839,3.5728,3.5661,3.5616,3.5616,0.8116,0.8604,0.8494,0.8302,0.8106,0.8186,0.8383,0.8502,0.8318,0.8318,0.8803,0.9367,0.9669,0.9895,1.0875,1.2013,1.336,1.5713,1.759,1.9555,2.3182,2.6225,2.8475,3.0365,3.119,3.119,3.119,3.1372,3.1732,3.2162,3.2617,3.3081,3.3484,3.3712,3.3775,3.3775,3.3807,3.3807,3.3807,3.382,3.3792,3.3406,3.3004,3.2791,3.2299,3.1797,3.1058,3.0304,2.9776,2.9466,2.9376,2.9376,2.9344,2.9344,2.9344,2.9344,2.9304,2.9294,2.9283,2.9262,2.9272,2.9323,2.9323,2.9323,2.9437,2.9646,2.9877,2.9959,3.062,3.1199,3.1682,3.2332,3.2953,3.3422,3.3593,3.3897,3.4401,3.4371,3.434,3.4197,3.4111,3.4074,3.3959,3.3985,3.3978,3.3952,3.3985,3.3998,3.3985,3.4061,3.4099,3.4061,3.4049,3.4036,3.4011,3.3965,3.3926,3.3592,3.3364,3.3232,3.2732,3.2283,3.2437,3.2841,3.358,3.4283,3.4953,3.5583,3.5955,3.6014,3.5883,3.5773,3.5684,3.5616,3.5616,0.7312,0.8432,0.8432,0.8096,0.7631,0.7843,0.7805,0.7374,0.7706,0.7744,0.7936,0.9031,0.9448,0.9528,1.0357,1.1422,1.2932,1.52,1.7345,1.9969,2.3383,2.6605,2.8397,3.0143,3.0978,3.1171,3.119,3.1351,3.1694,3.2179,3.2681,3.309,3.3536,3.3802,3.386,3.3815,3.3807,3.3807,3.382,3.3847,3.3881,3.3766,3.3541,3.3142,3.2871,3.2523,3.1882,3.1162,3.0437,2.9712,2.9527,2.9396,2.9396,2.9396,2.9396,2.9396,2.9368,2.9368,2.9386,2.9326,2.9344,2.9405,2.9437,2.9474,2.975,3.0281,3.0716,3.0705,3.1429,3.2202,3.2946,3.3714,3.3956,3.4061,3.4128,3.4191,3.4216,3.4216,3.4216,3.4197,3.4136,3.4086,3.4023,3.3998,3.3972,3.39,3.3934,3.3934,3.3934,3.3985,3.3998,3.3947,3.3959,3.3967,3.3959,3.3939,3.3913,3.3775,3.355,3.3321,3.2749,3.2422,3.2492,3.2779,3.322,3.3886,3.4714,3.5287,3.5784,3.6036,3.5905,3.5773,3.5644,3.5639,3.5616,0.5977,0.7408,0.7408,0.7099,0.6798,0.7593,0.7693,0.7227,0.7633,0.7629,0.7863,0.8993,0.9112,0.8551,1.0056,1.1143,1.1883,1.4884,1.8224,2.1663,2.4159,2.6078,2.757,2.9315,3.0584,3.1018,3.119,3.1252,3.1487,3.2109,3.2565,3.2822,3.3462,3.3829,3.3868,3.3793,3.3807,3.382,3.3829,3.3868,3.3921,3.3954,3.3913,3.3716,3.3307,3.2959,3.2637,3.1979,3.1478,3.1032,3.0196,2.9593,2.9574,2.95,2.9471,2.9463,2.9425,2.9388,2.9396,2.9471,2.9415,2.9613,3.0057,3.0344,3.0461,3.1109,3.1496,3.1663,3.2277,3.3064,3.3733,3.4048,3.4179,3.4216,3.4216,3.4216,3.4216,3.4216,3.4216,3.4197,3.4185,3.4155,3.4042,3.4011,3.3947,3.3855,3.3842,3.3868,3.3895,3.3921,3.3908,3.39,3.3895,3.3921,3.3908,3.39,3.3873,3.386,3.3707,3.3379,3.2795,3.2453,3.2477,3.2524,3.2647,3.3455,3.4387,3.4964,3.5462,3.5677,3.5905,3.5756,3.5667,3.5644,3.5616,0.4456,0.5972,0.6583,0.6548,0.6283,0.7034,0.7299,0.7092,0.7173,0.7326,0.7714,0.8623,0.8665,0.8217,0.9576,1.0331,1.1452,1.4411,1.7764,2.0579,2.2778,2.4518,2.6392,2.814,2.9659,3.0905,3.119,3.1252,3.1601,3.2161,3.2743,3.2932,3.3508,3.3753,3.3734,3.3569,3.353,3.3643,3.3707,3.3797,3.3954,3.4099,3.4154,3.4203,3.386,3.3648,3.355,3.2843,3.2448,3.2084,3.1218,3.053,3.0418,3.0158,2.9973,2.9935,2.9556,2.9667,2.9834,3.0023,3.0201,3.0498,3.1004,3.1163,3.1435,3.1961,3.2359,3.2571,3.3087,3.377,3.416,3.4197,3.4216,3.4216,3.4216,3.4216,3.4216,3.4216,3.4216,3.4216,3.4216,3.4148,3.4086,3.4036,3.3959,3.39,3.3834,3.3842,3.3847,3.3873,3.3873,3.386,3.386,3.386,3.386,3.3847,3.3834,3.382,3.3793,3.3394,3.2874,3.2602,3.2421,3.2405,3.2403,3.3197,3.4059,3.4582,3.5191,3.5681,3.5893,3.5761,3.5689,3.5644,3.56,0.2843,0.4472,0.5649,0.5993,0.5879,0.6438,0.6831,0.6922,0.6753,0.7061,0.7518,0.8093,0.825,0.8331,0.898,0.9879,1.1692,1.3706,1.6803,1.9238,2.0915,2.3116,2.5335,2.7413,2.9309,3.1018,3.119,3.1349,3.1695,3.2332,3.2802,3.3207,3.3583,3.3739,3.3643,3.3294,3.3223,3.3477,3.3597,3.3757,3.403,3.4209,3.4316,3.4333,3.4307,3.4239,3.4093,3.3645,3.325,3.3166,3.2541,3.2262,3.1953,3.1292,3.079,3.0772,3.0262,3.031,3.0711,3.0871,3.1112,3.1816,3.205,3.2123,3.2288,3.2788,3.3175,3.3413,3.378,3.4104,3.4216,3.4216,3.4216,3.4216,3.4216,3.4216,3.4216,3.4216,3.4216,3.4216,3.4197,3.4161,3.4111,3.4043,3.3985,3.3926,3.386,3.382,3.3807,3.3807,3.382,3.3834,3.3834,3.3834,3.3834,3.3834,3.3807,3.3807,3.3807,3.3465,3.3032,3.2781,3.2538,3.2159,3.2317,3.3007,3.3626,3.4206,3.4847,3.5578,3.5898,3.58,3.5711,3.5622,3.5622,0.1551,0.3475,0.4191,0.4673,0.5106,0.5944,0.6656,0.708,0.6942,0.7096,0.7522,0.7825,0.8059,0.8331,0.8941,1.0809,1.2824,1.4181,1.5791,1.8178,1.9852,2.1933,2.4599,2.6921,2.9245,3.0771,3.1134,3.1157,3.1526,3.2246,3.2753,3.2988,3.3458,3.3734,3.3597,3.3357,3.3117,3.3327,3.3555,3.3784,3.4011,3.4257,3.4386,3.4409,3.4409,3.4397,3.4386,3.4262,3.4188,3.4157,3.4045,3.3918,3.3492,3.2404,3.1768,3.1533,3.1343,3.1272,3.1607,3.1663,3.1756,3.2083,3.2568,3.2922,3.3179,3.3635,3.3899,3.4032,3.409,3.4209,3.4216,3.4216,3.4216,3.4216,3.4216,3.4216,3.4216,3.4216,3.4216,3.4216,3.4197,3.4185,3.4117,3.4068,3.4023,3.3947,3.3881,3.3847,3.3807,3.3807,3.382,3.382,3.382,3.382,3.3807,3.382,3.3807,3.3807,3.378,3.3625,3.3243,3.297,3.2654,3.2336,3.2137,3.2441,3.3076,3.3815,3.4472,3.5214,3.5531,3.5822,3.5756,3.5689,3.5622,0.0243,0.1945,0.2874,0.3859,0.4775,0.5562,0.6546,0.7373,0.7215,0.7403,0.7902,0.8165,0.8399,0.8703,0.9279,1.0963,1.2574,1.3099,1.4649,1.6846,1.8174,2.0333,2.3282,2.5733,2.7859,2.9518,3.0357,3.0882,3.1254,3.2179,3.2611,3.2789,3.3255,3.3494,3.335,3.299,3.293,3.3083,3.339,3.368,3.3954,3.4293,3.4484,3.4506,3.4476,3.4484,3.4461,3.4461,3.4439,3.4397,3.4367,3.4374,3.4109,3.3675,3.2884,3.2467,3.2117,3.2073,3.2389,3.2481,3.2705,3.3198,3.3545,3.3754,3.3889,3.415,3.4374,3.4358,3.4311,3.4257,3.4257,3.4221,3.4216,3.4216,3.4216,3.4216,3.4216,3.4216,3.4216,3.4216,3.4197,3.4185,3.4154,3.4093,3.4049,3.3985,3.3921,3.3868,3.382,3.3807,3.3807,3.3807,3.3807,3.3807,3.3807,3.3807,3.3807,3.3807,3.378,3.3638,3.3422,3.3124,3.2842,3.2554,3.2424,3.2133,3.2952,3.3838,3.4337,3.4881,3.5501,3.5924,3.5805,3.5734,3.5667,-0.0862,0.0707,0.1803,0.309,0.4375,0.4924,0.589,0.7011,0.6903,0.7211,0.8055,0.828,0.8508,0.9003,0.9722,1.0738,1.1855,1.1959,1.344,1.5217,1.6339,1.8408,2.1506,2.392,2.6195,2.9013,2.9864,3.0481,3.1254,3.2127,3.2484,3.2713,3.3075,3.3273,3.3124,3.2816,3.2687,3.2829,3.3085,3.3492,3.3979,3.4381,3.4612,3.4612,3.4612,3.4561,3.4517,3.4517,3.4495,3.4473,3.445,3.445,3.4427,3.442,3.4057,3.335,3.2721,3.281,3.3089,3.3343,3.3578,3.3988,3.43,3.4356,3.4379,3.4364,3.4473,3.4416,3.4347,3.4311,3.4281,3.4233,3.4228,3.4216,3.4216,3.4216,3.4216,3.4216,3.4216,3.4216,3.4216,3.4197,3.4185,3.4142,3.408,3.4023,3.3947,3.3881,3.3829,3.382,3.3807,3.3807,3.3807,3.3807,3.3807,3.3807,3.3807,3.3807,3.3793,3.3707,3.3494,3.3262,3.3032,3.2811,3.2179,3.208,3.2973,3.3746,3.427,3.4875,3.5648,3.6002,3.5898,3.58,3.5711,-0.1212,0.0629,0.1217,0.2275,0.3524,0.372,0.4338,0.5378,0.5625,0.6131,0.7288,0.7365,0.7906,0.8742,0.9873,1.0775,1.1329,1.1663,1.2528,1.4104,1.5283,1.747,2.073,2.3399,2.5752,2.8272,2.9512,3.0468,3.1237,3.2092,3.2498,3.2631,3.2996,3.3346,3.3169,3.2848,3.2786,3.3006,3.3169,3.3552,3.4154,3.4491,3.4591,3.4612,3.4612,3.4602,3.4591,3.4572,3.4561,3.4561,3.4561,3.4558,3.4506,3.4539,3.4476,3.4297,3.415,3.4113,3.412,3.409,3.4101,3.4291,3.4351,3.4393,3.4439,3.4461,3.4473,3.4397,3.434,3.4316,3.4305,3.4245,3.4228,3.4216,3.4216,3.4216,3.4216,3.4216,3.4216,3.4216,3.4216,3.4216,3.4197,3.4173,3.413,3.4061,3.3972,3.3908,3.3842,3.3834,3.3807,3.3807,3.3807,3.3807,3.3807,3.3807,3.3807,3.3807,3.3793,3.3748,3.3578,3.3422,3.3346,3.3014,3.2351,3.1982,3.2597,3.3331,3.4074,3.4785,3.5483,3.5822,3.6002,3.5888,3.5795,-0.1953,0.0589,0.0588,0.1761,0.3521,0.36,0.4334,0.5342,0.5616,0.6318,0.7288,0.748,0.8169,0.9155,0.9992,1.0556,1.1068,1.1143,1.1829,1.3201,1.4577,1.6608,1.9233,2.1674,2.4296,2.7155,2.8575,2.9762,3.0824,3.1695,3.2092,3.2213,3.2713,3.2986,3.3047,3.2928,3.2928,3.3129,3.3422,3.3863,3.4269,3.4506,3.4612,3.4612,3.4612,3.4612,3.4612,3.4612,3.4612,3.4612,3.4612,3.4583,3.4561,3.4572,3.4542,3.4509,3.4498,3.4446,3.4397,3.4381,3.4351,3.434,3.4328,3.4381,3.4461,3.4473,3.4484,3.4517,3.4397,3.4351,3.4328,3.4257,3.4221,3.4216,3.4216,3.4216,3.4216,3.4216,3.4216,3.4216,3.4216,3.4216,3.4216,3.4197,3.4161,3.4086,3.4011,3.3934,3.3868,3.3847,3.382,3.3807,3.3807,3.3807,3.3807,3.3807,3.3807,3.3807,3.3807,3.378,3.3694,3.3578,3.3433,3.3258,3.2781,3.2557,3.251,3.3173,3.417,3.4743,3.528,3.5689,3.6084,3.5975,3.5861,-0.2617,0.0314,0.0157,0.1291,0.3169,0.3324,0.3945,0.4874,0.519,0.5964,0.6969,0.751,0.8508,0.9539,0.9884,1.0293,1.0931,1.085,1.1422,1.2508,1.3865,1.5652,1.7915,2.0056,2.2698,2.6182,2.754,2.8819,3.0186,3.1225,3.1657,3.1749,3.2535,3.2731,3.2766,3.2912,3.3052,3.3086,3.3648,3.4074,3.4328,3.4583,3.4636,3.4666,3.4663,3.4653,3.4612,3.4612,3.4612,3.4612,3.4612,3.4583,3.4602,3.4583,3.4583,3.4591,3.4591,3.455,3.4484,3.442,3.4351,3.4316,3.4293,3.4328,3.4393,3.4404,3.4397,3.4484,3.4427,3.4363,3.4351,3.4269,3.424,3.4216,3.4216,3.4216,3.4216,3.4216,3.4216,3.4216,3.4216,3.4216,3.4216,3.4216,3.4161,3.4111,3.4036,3.3991,3.3913,3.3847,3.382,3.3807,3.3807,3.3807,3.3807,3.3807,3.3807,3.3807,3.3807,3.3793,3.3739,3.355,3.3346,3.3169,3.297,3.2687,3.2388,3.3328,3.4246,3.4634,3.5108,3.5821,3.6127,3.6036,3.5905,-0.309,-0.0196,0.0118,0.0785,0.1609,0.2078,0.243,0.2937,0.368,0.4499,0.5654,0.693,0.8399,0.9241,0.9771,1.0105,1.0556,1.1298,1.144,1.1835,1.2844,1.4719,1.672,1.8854,2.1332,2.4405,2.6274,2.7839,2.9223,3.0505,3.1133,3.175,3.2282,3.2616,3.2844,3.2972,3.3147,3.325,3.3775,3.4111,3.434,3.4575,3.481,3.4798,3.4797,3.4737,3.4623,3.4634,3.4634,3.4634,3.4612,3.4612,3.4612,3.4612,3.4612,3.4612,3.4612,3.4572,3.455,3.4517,3.4461,3.437,3.4293,3.4293,3.4311,3.4351,3.4363,3.4351,3.434,3.4328,3.4293,3.4264,3.4228,3.4216,3.4216,3.4216,3.4216,3.4216,3.4216,3.4216,3.4216,3.4216,3.4216,3.4216,3.4185,3.4136,3.4036,3.3972,3.3887,3.382,3.382,3.3807,3.3807,3.3807,3.3807,3.3807,3.3807,3.3807,3.3807,3.3807,3.3793,3.3583,3.3321,3.3108,3.2908,3.2587,3.2511,3.345,3.4164,3.4464,3.4987,3.5838,3.6084,3.591,3.58,-0.348,-0.1568,-0.0118,0.0863,0.153,0.2118,0.251,0.2824,0.3489,0.4693,0.6086,0.728,0.836,0.9165,0.9695,0.996,1.0288,1.126,1.1186,1.1515,1.2588,1.3922,1.5635,1.7676,2.0243,2.2715,2.4819,2.7061,2.893,2.9621,3.0484,3.1193,3.1861,3.2231,3.2502,3.3019,3.3283,3.3415,3.3721,3.4023,3.4305,3.4487,3.472,3.4869,3.4869,3.4859,3.4791,3.4758,3.4737,3.4716,3.4663,3.4623,3.4612,3.4612,3.4612,3.4612,3.4612,3.4612,3.4602,3.455,3.4461,3.4358,3.4293,3.4281,3.4245,3.4316,3.437,3.4358,3.4323,3.4293,3.4293,3.4264,3.4216,3.4216,3.4216,3.4216,3.4216,3.4216,3.4197,3.4197,3.4197,3.4216,3.4216,3.4216,3.4185,3.4161,3.4061,3.3941,3.3868,3.3807,3.3807,3.3807,3.3807,3.3807,3.3807,3.3807,3.3807,3.3807,3.3807,3.3807,3.378,3.3541,3.3276,3.3063,3.2844,3.252,3.2722,3.3554,3.4081,3.4308,3.5073,3.6044,3.6045,3.5827,3.5711,-0.3599,-0.2275,-0.0275,0.0864,0.1373,0.2157,0.2668,0.2981,0.353,0.4965,0.6903,0.7399,0.8127,0.9008,0.9695,0.9884,1.0293,1.1111,1.1298,1.1663,1.2315,1.3411,1.4773,1.6608,1.8984,2.111,2.3433,2.579,2.7204,2.8365,2.9421,3.0373,3.1225,3.1787,3.2453,3.305,3.3495,3.352,3.3694,3.3921,3.4209,3.4424,3.4618,3.4821,3.487,3.4898,3.4879,3.4849,3.48,3.4778,3.4727,3.4645,3.4623,3.4612,3.4612,3.4612,3.4612,3.4612,3.4602,3.4528,3.445,3.437,3.4305,3.4293,3.4281,3.4269,3.4281,3.4323,3.4293,3.4269,3.4269,3.4221,3.4216,3.4216,3.4161,3.4161,3.4173,3.4185,3.4197,3.4179,3.4197,3.4216,3.4185,3.4173,3.4148,3.4124,3.4061,3.3972,3.3881,3.3834,3.3807,3.3807,3.3807,3.3807,3.3807,3.3807,3.3807,3.3807,3.3807,3.3807,3.3739,3.3512,3.3335,3.3184,3.2908,3.252,3.2809,3.3483,3.3836,3.4096,3.5084,3.6131,3.6041,3.5844,3.5711,-0.3522,-0.2314,-0.0314,0.055,0.0825,0.1961,0.251,0.2707,0.345,0.4927,0.6668,0.6976,0.7629,0.8661,0.9463,0.9884,1.0218,1.1409,1.1929,1.1811,1.2181,1.3201,1.4604,1.6292,1.8181,1.994,2.2369,2.43,2.497,2.7195,2.8512,2.9583,3.0691,3.1674,3.2402,3.3114,3.3437,3.3452,3.3625,3.3831,3.4049,3.4348,3.4567,3.4723,3.4889,3.4936,3.4946,3.4889,3.4859,3.4829,3.4758,3.4666,3.4623,3.4612,3.4612,3.4612,3.4612,3.4612,3.4602,3.4528,3.4461,3.4404,3.434,3.4293,3.4252,3.4209,3.4221,3.4257,3.4221,3.4228,3.4209,3.4209,3.4216,3.4185,3.4148,3.4124,3.4148,3.4161,3.4142,3.413,3.4173,3.4216,3.4173,3.4148,3.4111,3.4074,3.4055,3.3991,3.3881,3.386,3.382,3.3807,3.3807,3.3807,3.3807,3.3807,3.3807,3.3807,3.3807,3.3807,3.3807,3.3726,3.3541,3.335,3.3016,3.2619,3.288,3.329,3.3779,3.4381,3.5252,3.6002,3.5932,3.5822,3.5689,-0.4297,-0.3209,-0.1565,-0.0274,0.0707,0.1961,0.251,0.2666,0.345,0.4735,0.6089,0.6672,0.7322,0.8241,0.9311,0.9922,1.0143,1.1186,1.1744,1.1781,1.2114,1.3201,1.4577,1.6172,1.7821,1.963,2.186,2.3661,2.4541,2.6223,2.7688,2.8885,3.0479,3.1605,3.2074,3.2619,3.3001,3.3083,3.3335,3.3652,3.3865,3.4172,3.4446,3.4603,3.486,3.5001,3.4992,3.4917,3.485,3.482,3.4749,3.4623,3.4602,3.4602,3.4602,3.4583,3.4583,3.4612,3.4572,3.4528,3.4473,3.4416,3.4381,3.4311,3.424,3.4216,3.4216,3.4216,3.4216,3.4216,3.4216,3.4197,3.4216,3.4185,3.4161,3.4105,3.4105,3.4111,3.4111,3.4086,3.4086,3.4086,3.4074,3.4074,3.4036,3.4011,3.3959,3.3921,3.3842,3.3834,3.3807,3.3807,3.3807,3.3807,3.3807,3.3807,3.3807,3.3807,3.3807,3.3807,3.3807,3.3807,3.3766,3.3583,3.3169,3.28,3.3054,3.3382,3.4086,3.4782,3.5433,3.5856,3.5932,3.5822,3.5644,-0.4647,-0.3675,-0.2227,-0.0744,0.0628,0.1726,0.2431,0.2981,0.3606,0.4579,0.586,0.6742,0.7357,0.8165,0.9306,0.9954,1.0067,1.1149,1.1855,1.1892,1.215,1.2931,1.4252,1.6121,1.7461,1.9164,2.1032,2.2822,2.3528,2.4651,2.6557,2.8747,3.0425,3.1114,3.1641,3.2214,3.265,3.2749,3.2986,3.3276,3.3542,3.3878,3.425,3.4494,3.4752,3.4974,3.4983,3.4908,3.4821,3.4781,3.4668,3.4547,3.4539,3.4528,3.4517,3.4506,3.4517,3.4558,3.4561,3.4506,3.4439,3.437,3.4351,3.4293,3.4209,3.4185,3.4216,3.4216,3.4216,3.4216,3.4216,3.4216,3.4216,3.4185,3.4136,3.408,3.4068,3.4086,3.4036,3.4011,3.4011,3.3998,3.3985,3.3972,3.3959,3.3921,3.3895,3.3855,3.3815,3.382,3.3807,3.3807,3.3807,3.3807,3.3807,3.3807,3.3807,3.3807,3.3807,3.3807,3.3807,3.3807,3.3807,3.3766,3.3346,3.3064,3.312,3.3492,3.3952,3.4524,3.5193,3.557,3.583,3.58,3.5639,-0.4572,-0.3634,-0.2266,-0.0822,0.0549,0.1372,0.2508,0.3724,0.3802,0.4618,0.5941,0.693,0.7506,0.8122,0.9604,1.0175,1.018,1.1192,1.1744,1.2157,1.2268,1.2806,1.406,1.5904,1.7378,1.8604,2.0245,2.213,2.2445,2.4167,2.6326,2.8311,2.9825,3.0562,3.1227,3.1824,3.2231,3.2368,3.2619,3.286,3.3075,3.3514,3.3865,3.4177,3.4472,3.4713,3.4792,3.4802,3.4761,3.4689,3.4604,3.4506,3.4431,3.4397,3.4351,3.434,3.4393,3.445,3.4495,3.4416,3.437,3.43,3.43,3.4209,3.4173,3.4173,3.4216,3.4216,3.4216,3.4216,3.4216,3.4216,3.4216,3.4148,3.4086,3.4061,3.4061,3.4036,3.3972,3.3947,3.3959,3.3965,3.3926,3.3913,3.3913,3.3887,3.3842,3.3842,3.3815,3.382,3.3807,3.3807,3.3807,3.3807,3.3807,3.3807,3.3807,3.3807,3.3807,3.3807,3.3807,3.3807,3.3807,3.3739,3.348,3.3255,3.3013,3.3157,3.3585,3.42,3.4822,3.539,3.5713,3.5722,3.5616,-0.5085,-0.3752,-0.3125,-0.18,0.0039,0.1451,0.2781,0.3915,0.4031,0.4654,0.575,0.6518,0.7242,0.7893,0.9112,0.983,1.0438,1.1005,1.1632,1.204,1.2342,1.3469,1.4759,1.6209,1.7687,1.9107,2.0578,2.1788,2.2604,2.4123,2.5638,2.732,2.9271,3.0119,3.0761,3.1399,3.1733,3.2056,3.2334,3.2453,3.2584,3.2947,3.3332,3.3692,3.4049,3.4327,3.4588,3.4649,3.4615,3.4623,3.4473,3.4363,3.4409,3.4386,3.4381,3.4323,3.4281,3.4269,3.4293,3.4233,3.4185,3.4173,3.4161,3.4167,3.4142,3.4167,3.4204,3.4173,3.4173,3.4161,3.4173,3.4185,3.4185,3.4148,3.4074,3.4023,3.4011,3.3959,3.3908,3.39,3.3913,3.39,3.386,3.3847,3.3847,3.382,3.382,3.3815,3.3815,3.382,3.3807,3.3807,3.3807,3.3807,3.3807,3.3807,3.3807,3.3807,3.3807,3.3807,3.3807,3.3807,3.3807,3.3666,3.3408,3.3024,3.2613,3.2876,3.319,3.3794,3.4413,3.5032,3.5506,3.5565,3.5616,-0.5276,-0.3713,-0.3478,-0.1955,0.0431,0.1764,0.3093,0.4263,0.4384,0.4815,0.5637,0.6521,0.7207,0.797,0.9178,1.0088,1.0519,1.1149,1.1744,1.2157,1.2305,1.3273,1.4676,1.6201,1.7547,1.9095,2.045,2.1569,2.2543,2.4,2.5573,2.6431,2.8712,2.9772,3.0447,3.1135,3.166,3.1967,3.2162,3.2179,3.2299,3.2516,3.2927,3.315,3.3524,3.395,3.4291,3.4333,3.442,3.4461,3.4316,3.4281,3.4293,3.4269,3.4281,3.4209,3.4173,3.4173,3.4197,3.4124,3.4086,3.4061,3.4049,3.4023,3.4049,3.4086,3.4111,3.4111,3.4124,3.4124,3.4148,3.4161,3.4161,3.4161,3.4074,3.4016,3.3947,3.3895,3.3855,3.3834,3.382,3.382,3.3807,3.3807,3.3807,3.3807,3.3807,3.382,3.382,3.382,3.3807,3.3807,3.3807,3.3807,3.3807,3.3807,3.3807,3.3807,3.3807,3.3807,3.3807,3.3793,3.3793,3.3597,3.3335,3.2914,3.2491,3.2529,3.2816,3.3456,3.4108,3.4695,3.5259,3.5577,3.5616,-0.516,-0.3359,-0.3163,-0.1132,0.1528,0.235,0.3522,0.4927,0.4854,0.509,0.5828,0.6749,0.7476,0.8237,0.9518,1.0351,1.0844,1.1372,1.1892,1.2342,1.2452,1.3105,1.4106,1.5562,1.6908,1.8255,1.964,2.108,2.2353,2.3732,2.494,2.5625,2.7676,2.9098,2.9997,3.0804,3.1304,3.1568,3.1915,3.2109,3.2144,3.2482,3.2945,3.2834,3.3138,3.3547,3.3737,3.393,3.4124,3.4185,3.4221,3.4185,3.4161,3.4086,3.4099,3.4086,3.4036,3.403,3.4061,3.4011,3.3998,3.3972,3.3947,3.3934,3.3972,3.4036,3.4061,3.4061,3.4061,3.4074,3.4086,3.4086,3.4099,3.4074,3.4023,3.3959,3.3921,3.3829,3.3703,3.368,3.3666,3.3694,3.3807,3.3807,3.3807,3.3807,3.3807,3.3807,3.3807,3.3807,3.3807,3.3807,3.3807,3.3807,3.3807,3.3807,3.3807,3.3807,3.3807,3.3807,3.3807,3.3793,3.3766,3.3494,3.3217,3.2844,3.2523,3.2581,3.2811,3.3388,3.3998,3.4427,3.4905,3.547,3.5616,-0.516,-0.3203,-0.1212,0.0704,0.227,0.2934,0.4027,0.5404,0.5404,0.5637,0.6219,0.7022,0.7821,0.8585,0.9561,1.0432,1.1329,1.1663,1.215,1.2599,1.2783,1.3083,1.3601,1.4914,1.627,1.7649,1.9105,2.0739,2.2168,2.3446,2.4399,2.5052,2.7069,2.8777,2.9256,3.0136,3.0957,3.121,3.1699,3.2074,3.2214,3.2299,3.2549,3.2709,3.3033,3.3281,3.3468,3.362,3.3765,3.385,3.4011,3.4061,3.4124,3.3985,3.3947,3.3965,3.3926,3.3908,3.3908,3.3895,3.3895,3.3926,3.3926,3.3908,3.3934,3.3985,3.4011,3.3998,3.3998,3.4011,3.4023,3.4023,3.4023,3.3998,3.3959,3.3934,3.3895,3.3762,3.3592,3.355,3.3522,3.3625,3.3753,3.3807,3.3807,3.3807,3.3807,3.3807,3.3807,3.3807,3.3807,3.3807,3.3807,3.3807,3.3807,3.3807,3.3807,3.3807,3.3807,3.3807,3.3807,3.3698,3.3583,3.3364,3.3078,3.2732,3.2579,3.2719,3.3024,3.3472,3.402,3.4554,3.5035,3.5566,3.5616,-0.4999,-0.2964,-0.0663,0.1175,0.2387,0.2854,0.3988,0.5404,0.5598,0.587,0.6296,0.6834,0.7599,0.8661,0.9523,1.0576,1.1626,1.2077,1.2526,1.2929,1.3331,1.3513,1.4013,1.4645,1.6235,1.775,1.9716,2.1333,2.2254,2.3327,2.4255,2.4685,2.6707,2.8206,2.8561,2.9805,3.066,3.0977,3.1589,3.1986,3.2265,3.2435,3.235,3.2531,3.258,3.2903,3.3211,3.3372,3.3532,3.3689,3.3868,3.3934,3.3972,3.3908,3.3881,3.3887,3.386,3.3807,3.3807,3.382,3.3802,3.386,3.3873,3.386,3.3634,3.3703,3.3881,3.3881,3.3881,3.3895,3.3934,3.3947,3.3947,3.3934,3.3921,3.3895,3.3855,3.3775,3.3578,3.3422,3.3465,3.3578,3.3694,3.3748,3.3748,3.3793,3.3793,3.3793,3.3775,3.3762,3.3762,3.3775,3.3793,3.3807,3.3807,3.3807,3.3793,3.3793,3.3762,3.3748,3.3739,3.3555,3.3383,3.3232,3.3001,3.2619,3.2546,3.2802,3.3048,3.3403,3.4045,3.4692,3.5199,3.5616,3.5616,-0.4737,-0.2725,-0.0657,0.1055,0.2387,0.2659,0.3793,0.5401,0.5598,0.587,0.6261,0.6296,0.7253,0.8504,0.9621,1.0714,1.1657,1.2372,1.2893,1.3368,1.3861,1.4049,1.4438,1.51,1.6374,1.8288,2.0482,2.1439,2.2216,2.328,2.405,2.4456,2.5833,2.756,2.8529,2.9496,3.024,3.0884,3.1459,3.1879,3.2231,3.2518,3.2368,3.2179,3.2092,3.2536,3.2925,3.3111,3.3306,3.3555,3.3739,3.3788,3.3815,3.3788,3.3834,3.382,3.3807,3.3793,3.3807,3.3807,3.3807,3.382,3.3807,3.3694,3.3494,3.3494,3.3694,3.3734,3.3734,3.3834,3.3855,3.39,3.39,3.3881,3.3868,3.3868,3.3815,3.3748,3.3536,3.3335,3.3422,3.3536,3.3578,3.3634,3.3734,3.378,3.378,3.3762,3.3748,3.3734,3.3721,3.3734,3.3748,3.378,3.3793,3.378,3.3766,3.3712,3.3698,3.368,3.3652,3.3559,3.3397,3.3235,3.2957,3.2691,3.2739,3.2988,3.3208,3.3583,3.4341,3.5081,3.5284,3.5616,3.5616,-0.4441,-0.2452,0.0,0.1614,0.2538,0.3203,0.4341,0.5443,0.5598,0.587,0.6222,0.6412,0.7176,0.8775,0.9927,1.1013,1.2033,1.2673,1.3229,1.371,1.4165,1.4453,1.4903,1.5508,1.621,1.8288,2.0653,2.1913,2.2402,2.3203,2.3829,2.4166,2.537,2.6698,2.753,2.8474,2.9275,3.0089,3.0818,3.1189,3.1414,3.1824,3.2468,3.2334,3.2074,3.2586,3.2896,3.27,3.2941,3.325,3.3549,3.3647,3.3671,3.3684,3.3698,3.3739,3.3726,3.3721,3.3753,3.3766,3.3766,3.378,3.3753,3.3638,3.3465,3.3335,3.3451,3.3451,3.3508,3.3734,3.3802,3.3834,3.3847,3.3847,3.3834,3.3834,3.382,3.3638,3.3441,3.335,3.3379,3.3408,3.3408,3.3536,3.378,3.3793,3.3766,3.3748,3.3726,3.3712,3.368,3.3694,3.3707,3.3707,3.3712,3.3726,3.3712,3.3657,3.3615,3.3619,3.3605,3.3587,3.3444,3.3268,3.3167,3.2987,3.309,3.3374,3.3799,3.4265,3.4943,3.5481,3.56,3.5616,3.5616]},{"header":{"parameterUnit":"m.s-1","parameterCategory":1,"la1":31.0,"la2":29.5877,"lo1":-88.7671,"lo2":-86.6584,"dy":0.0162,"dx":0.0185,"nx":115,"ny":88,"refTime":"2023-09-10T06:00:00:Z","depth":0,"parameterNumber":3,"parameterNumberName":"V-component_of_WINDS"},"data":[0.0,0.0,0.0,0.0,0.0,0.0,0.0,0.0,0.0,0.0,0.0,0.0,0.0,0.0,0.0,0.0,0.0,0.0,0.0,0.0,0.0,0.0,0.0,0.0,0.0,0.0,0.0,0.0,0.0,0.0,0.0,0.0,0.0,0.0,0.0,0.0,0.0,0.0,0.0,0.0,0.0,0.0,0.0,0.0,0.0,0.0,0.0,0.0,0.0,0.0,0.0,0.0,0.0,0.0,0.0,0.0,0.0,0.0,0.0,0.0,0.0,0.0,0.0,0.0,0.0,0.0,0.0,0.0,0.0,0.0,0.0,0.0,0.0,0.0,0.0,0.0,0.0,0.0,0.0,0.0,0.0,0.0,0.0,0.0,0.0,0.0,0.0,0.0,0.0,0.0,0.0,0.0,0.0,0.0,0.0,0.0,0.0,0.0,0.0,0.0,0.0,0.0,0.0,0.0,0.0,0.0,0.0,0.0,0.0,0.0,0.0,0.0,0.0,0.0,0.0,0.0,0.0,0.0,0.0,0.0,0.0,0.0,0.0,0.0,0.0,0.0,0.0,0.0,0.0,0.0,0.0,0.0,0.0,0.0,0.0,0.0,0.0,0.0,0.0,0.0,0.0,0.0,0.0,0.0,0.0,0.0,0.0,0.0,0.0,0.0,0.0,0.0,0.0,0.0,0.0,0.0,0.0,0.0,0.0,0.0,0.0,0.0,0.0,0.0,0.0,0.0,0.0,0.0,0.0,0.0,0.0,0.0,0.0,0.0,0.0,0.0,0.0,0.0,0.0,0.0,0.0,0.0,0.0,0.0,0.0,0.0,0.0,0.0,0.0,0.0,0.0,0.0,0.0,0.0,0.0,0.0,0.0,0.0,0.0,0.0,0.0,0.0,0.0,0.0,0.0,0.0,0.0,0.0,0.0,0.0,0.0,0.0,0.0,0.0,0.0,0.0,0.0,0.0,0.0,0.0,0.0,0.0,0.0,0.0,0.0,0.0,0.0,0.0,0.0,0.0,0.0,0.0,0.0,0.0,0.0,0.0,0.0,0.0,0.0,0.0,0.0,0.0,0.0,0.0,0.0,0.0,0.0,0.0,0.0,0.0,0.0,0.0,0.0,0.0,0.0,0.0,0.0,0.0,0.0,0.0,0.0,0.0,0.0,0.0,0.0,0.0,0.0,0.0,0.0,0.0,0.0,0.0,0.0,0.0,0.0,0.0,0.0,0.0,0.0,0.0,0.0,0.0,0.0,0.0,0.0,0.0,0.0,0.0,0.0,0.0,0.0,0.0,0.0,0.0,0.0,0.0,0.0,0.0,0.0,0.0,0.0,0.0,0.0,0.0,0.0,0.0,0.0,0.0,0.0,0.0,0.0,0.0,0.0,0.0,0.0,0.0,0.0,0.0,0.0,0.0,0.0,0.0,0.0,0.0,0.0,0.0,0.0,0.0,0.0,0.0,0.0,0.0,0.0,0.0,0.0,0.0,0.0,0.0,0.0,0.0,0.0,0.0,0.0,0.0,0.0,0.0,0.0,0.0,0.0,0.0,0.0,0.0,0.0,0.0,0.0,0.0,0.0,0.0,0.0,0.0,0.0,0.0,0.0,0.0,0.0,0.0,0.0,0.0,0.0,0.0,0.0,0.0,0.0,0.0,0.0,0.0,0.0,0.0,0.0,0.0,0.0,0.0,0.0,0.0,0.0,0.0,0.0,0.0,0.0,0.0,0.0,0.0,0.0,0.0,0.0,0.0,0.0,0.0,0.0,0.0,0.0,0.0,0.0,0.0,0.0,0.0,0.0,0.0,0.0,0.0,0.0,0.0,0.0,0.0,0.0,0.0,0.0,0.0,0.0,0.0,0.0,0.0,0.0,0.0,0.0,0.0,0.0,0.0,0.0,0.0,0.0,0.0,0.0,0.0,0.0,0.0,0.0,0.0,0.0,0.0,0.0,0.0,0.0,0.0,0.0,0.0,0.0,0.0,0.0,0.0,0.0,0.0,0.0,0.0,0.0,0.0,0.0,0.0,0.0,0.0,0.0,0.0,0.0,0.0,0.0,0.0,0.0,0.0,0.0,0.0,0.0,0.0,0.0,0.0,0.0,0.0,0.0,0.0,0.0,0.0,0.0,0.0,0.0,0.0,0.0,0.0,0.0,0.0,0.0,0.0,0.0,0.0,0.0,0.0,0.0,0.0,0.0,0.0,0.0,0.0,0.0,0.0,0.0,0.0,0.0,0.0,0.0,0.0,0.0,0.0,0.0,0.0,0.0,0.0,0.0,0.0,0.0,0.0,0.0,0.0,0.0,0.0,0.0,0.0,0.0,0.0,0.0,0.0,0.0,0.0,0.0,0.0,0.0,0.0,0.0,0.0,0.0,0.0,0.0,0.0,0.0,0.0,0.0,0.0,0.0,0.0,0.0,0.0,0.0,0.0,0.0,0.0,0.0,0.0,0.0,0.0,0.0,0.0,0.0,0.0,0.0,0.0,0.0,0.0,0.0,0.0,0.0,0.0,0.0,0.0,0.0,0.0,0.0,0.0,0.0,0.0,0.0,0.0,0.0,0.0,0.0,0.0,0.0,0.0,0.0,0.0,0.0,0.0,0.0,0.0,0.0,0.0,0.0,0.0,0.0,0.0,0.0,0.0,0.0,0.0,0.0,0.0,0.0,0.0,0.0,0.0,0.0,0.0,0.0,0.0,0.0,0.0,0.0,0.0,0.0,0.0,0.0,0.0,0.0,0.0,0.0,0.0,0.0,0.0,0.0,0.0,0.0,0.0,0.0,0.0,0.0,0.0,0.0,0.0,0.0,0.0,0.0,0.0,0.0,0.0,0.0,0.0,0.0,0.0,0.0,0.0,0.0,0.0,0.0,0.0,0.0,0.0,0.0,0.0,0.0,0.0,0.0,0.0,0.0,0.0,0.0,0.0,0.0,0.0,0.0,0.0,0.0,0.0,0.0,0.0,0.0,0.0,0.0,0.0,0.0,0.0,0.0,0.0,0.0,0.0,0.0,0.0,0.0,0.0,0.0,0.0,0.0,0.0,0.0,0.0,0.0,0.0,0.0,0.0,0.0,0.0,0.0,0.0,0.0,0.0,0.0,0.0,0.0,0.0,0.0,0.0,0.0,0.0,0.0,0.0,0.0,0.0,0.0,0.0,0.0,0.0,0.0,0.0,0.0,0.0,0.0,0.0,0.0,0.0,0.0,0.0,0.0,0.0,0.0,0.0,0.0,0.0,0.0,0.0,0.0,0.0,0.0,0.0,0.0,0.0,0.0,0.0,0.0,0.0,0.0,0.0,0.0,0.0,0.0,0.0,0.0,0.0,0.0,0.0,0.0,0.0,0.0,0.0,0.0,0.0,0.0,0.0,0.0,0.0,0.0,0.0,0.0,0.0,0.0,0.0,0.0,0.0,0.0,0.0,0.0,0.0,0.0,0.0,0.0,0.0,0.0,0.0,0.0,0.0,0.0,0.0,0.0,0.0,0.0,0.0,0.0,0.0,0.0,0.0,0.0,0.0,0.0,0.0,0.0,0.0,0.0,0.0,0.0,0.0,0.0,0.0,0.0,0.0,0.0,0.0,0.0,0.0,0.0,0.0,0.0,0.0,0.0,0.0,0.0,0.0,0.0,0.0,0.0,0.0,0.0,0.0,0.0,0.0,0.0,0.0,0.0,0.0,0.0,0.0,0.0,0.0,0.0,0.0,0.0,0.0,0.0,0.0,0.0,0.0,0.0,0.0,0.0,0.0,0.0,0.0,0.0,0.0,0.0,0.0,0.0,0.0,0.0,0.0,0.0,0.0,0.0,0.0,0.0,0.0,0.0,0.0,0.0,0.0,0.0,0.0,0.0,0.0,0.0,0.0,0.0,0.0,0.0,0.0,0.0,0.0,0.0,0.0,0.0,0.0,0.0,0.0,0.0,0.0,0.0,0.0,0.0,0.0,0.0,0.0,0.0,0.0,0.0,0.0,0.0,0.0,0.0,0.0,0.0,0.0,0.0,0.0,0.0,0.0,0.0,0.0,0.0,0.0,0.0,0.0,0.0,0.0,0.0,0.0,0.0,0.0,0.0,0.0,0.0,0.0,0.0,0.0,0.0,0.0,0.0,0.0,0.0,0.0,0.0,0.0,0.0,0.0,0.0,0.0,0.0,0.0,0.0,0.0,0.0,0.0,0.0,0.0,0.0,0.0,0.0,0.0,0.0,0.0,0.0,0.0,0.0,0.0,0.0,0.0,0.0,0.0,0.0,0.0,0.0,0.0,0.0,0.0,0.5456,0.0,0.0,0.0,0.0,0.0,0.0,0.0,0.0,0.0,0.0,0.0,0.0,0.0,0.0,0.0,0.0,0.0,0.0,0.0,0.0,0.0,0.0,0.0,0.0,0.0,0.0,0.0,0.0,0.0,0.0,0.0,0.0,0.0,0.0,0.0,0.0,0.0,0.0,0.0,0.0,0.0,0.0,0.0,0.0,0.0,0.0,0.0,0.0,0.0,0.0,0.0,0.0,0.0,0.0,0.0,0.0,0.0,0.0,0.0,0.0,0.0,0.0,0.0,0.0,0.0,0.0,0.0,0.0,0.0,0.0,0.0,0.0,0.0,0.0,0.0,0.0,0.0,0.0,0.0,0.0,0.0,0.0,0.0,0.0,0.0,0.0,0.0,0.0,0.0,0.0,0.0,0.0,0.0,0.0,0.0,0.0,0.0,0.0,0.0,0.0,0.0,0.0,0.0,0.0,0.0,0.0,0.0,0.0,0.0,0.0,0.4632,0.4841,0.5208,0.5508,0.5663,0.0,0.0,0.0,0.0,0.0,0.0,0.0,0.0,0.0,0.0,0.0,0.0,0.0,0.0,0.0,0.0,0.0,0.0,0.0,0.0,0.0,0.0,0.0,0.0,0.0,0.0,0.0,0.0,0.0,0.0,0.0,0.0,0.0,0.0,0.0,0.0,0.0,0.0,0.0,0.0,0.0,0.0,0.0,0.0,0.0,0.0,0.0,0.0,0.0,0.0,0.0,0.0,0.0,0.0,0.0,0.0,0.0,0.0,0.0,0.0,0.0,0.0,0.0,0.0,0.0,0.0,0.0,0.0,0.0,0.0,0.0,0.0,0.0,0.0,0.0,0.0,0.0,0.0,0.0,0.0,0.0,0.0,0.0,0.0,0.0,0.0,0.0,0.0,0.0,0.0,0.0,0.0,0.0,0.0,0.0,0.0,0.0,0.0,0.0,0.0,0.0,0.0,0.0,0.0,0.0,0.0,0.0,0.0,0.0,0.0,0.0,0.0,0.5356,0.571,0.5832,0.0,0.0,0.0,0.0,0.0,0.0,0.0,0.0,0.0,0.0,0.0,0.0,0.0,0.0,0.0,0.0,0.0,0.0,0.0,0.0,0.0,0.0,0.0,0.0,0.0,0.0,0.0,0.0,0.0,0.0,0.0,0.0,0.0,0.0,0.0,0.0,0.0,0.0,0.0,0.0,0.0,0.0,0.0,0.0,0.0,0.0,0.0,0.0,0.0,0.0,0.0,0.0,0.0,0.0,0.0,0.0,0.0,0.0,0.0,0.0,0.0,0.0,0.0,0.0,0.0,0.0,0.0,0.0,0.0,0.0,0.0,0.0,0.0,0.0,0.0,0.0,0.0,0.0,0.0,0.0,0.0,0.0,0.0,0.0,0.0,0.0,0.0,0.0,0.0,0.0,0.0,0.0,0.0,0.0,0.0,0.0,0.0,0.0,0.0,0.0,0.0,0.0,0.0,0.0,0.0,0.0,0.0,0.0,0.0,0.0,0.4849,0.5237,0.5599,0.0,0.5634,0.0,0.0,0.0,0.0,0.0,0.0,0.0,0.0,0.0,0.0,0.0,0.0,0.0,0.0,0.0,0.0,0.0,0.0,0.0,0.0,0.0,0.0,0.0,0.0,0.0,0.0,0.0,0.0,0.0,0.0,0.0,0.0,0.0,0.0,0.0,0.0,0.0,0.0,0.0,0.0,0.0,0.0,0.0,0.0,0.0,0.0,0.0,0.0,0.0,0.0,0.0,0.0,0.0,0.0,0.0,0.0,0.0,0.0,0.0,0.0,0.0,0.0,0.0,0.0,0.0,0.0,0.0,0.0,0.0,0.0,0.0,0.0,0.0,0.0,0.0,0.0,0.0,0.0,0.0,0.0,0.0,0.0,0.0,0.0,0.0,0.0,0.0,0.0,0.0,0.0,0.0,0.0,0.0,0.0,0.0,0.0,0.0,0.0,0.0,0.0,0.0,0.0,0.0,0.0,0.0,0.0,0.0,0.0,0.0,0.0,0.5155,0.5469,0.6071,0.6419,0.0,0.0,0.0,0.0,0.0,0.0,0.0,0.0,0.0,0.0,0.0,0.0,0.0,0.0,0.0,0.0,0.0,0.0,0.0,0.0,0.0,0.0,0.0,0.0,0.0,0.0,0.0,0.0,0.0,0.0,0.0,0.0,0.0,0.0,0.0,0.0,0.0,0.0,0.0,0.0,0.0,0.0,0.0,0.0,0.0,0.0,0.0,0.0,0.0,0.0,0.0,0.0,0.0,0.0,0.0,0.0,0.0,0.0,0.0,0.0,0.0,0.0,0.0,0.0,0.0,0.0,0.0,0.0,0.0,0.0,0.0,0.0,0.0,0.0,0.0,0.0,0.0,0.0,0.0,0.0,0.0,0.0,0.0,0.0,0.0,0.0,0.0,0.0,0.0,0.0,0.0,0.0,0.0,0.0,0.0,0.0,0.0,0.0,0.0,0.0,0.0,0.0,0.0,0.0,0.0,0.0,0.0,0.0,0.0,0.0,0.459,0.5239,0.5721,0.6456,0.677,0.6648,0.0,0.0,0.0,0.0,0.0,0.0,0.0,0.0,0.0,0.0,0.0,0.0,0.0,0.0,0.0,0.0,0.0,0.0,0.0,0.0,0.0,0.0,0.0,0.0,0.0,0.0,0.0,0.0,0.0,0.0,0.0,0.0,0.0,0.0,0.0,0.0,0.0,0.0,0.0,0.0,0.0,0.0,0.0,0.0,0.0,0.0,0.0,0.0,0.0,0.0,0.0,0.0,0.0,0.0,0.0,0.0,0.0,0.0,0.0,0.0,0.0,0.0,0.0,0.0,0.0,0.0,0.0,0.0,0.0,0.0,0.0,0.0,0.0,0.0,0.0,0.0,0.0,0.0,0.0,0.0,0.0,0.0,0.0,0.0,0.0,0.0,0.0,0.0,0.0,0.0,0.0,0.0,0.0,0.0,0.0,0.0,0.0,0.0,0.0,0.0,0.0,0.0,0.0,0.0,0.0,0.0,0.0,0.0,0.3776,0.429,0.5025,0.606,0.6618,0.653,0.0,0.0,0.0,0.0,0.0,0.0,0.0,0.0,0.0,0.0,0.0,0.0,0.0,0.0,0.0,0.0,0.0,0.0,0.0,0.0,0.0,0.0,0.0,0.0,0.0,0.0,0.0,0.0,0.0,0.0,0.0,0.0,0.0,0.0,0.0,0.0,0.0,0.0,0.0,0.0,0.0,0.0,0.0,0.0,0.0,0.0,0.0,0.0,0.0,0.0,0.0,0.0,0.0,0.0,0.0,0.0,0.0,0.0,0.0,0.0,0.0,0.0,0.0,0.0,0.0,0.0,0.0,0.0,0.0,0.0,0.0,0.0,0.0,0.0,0.0,0.0,0.0,0.0,0.0,0.0,0.0,0.0,0.0,0.0,0.0,0.0,0.0,0.0,0.0,0.0,0.0,0.0,0.0,0.0,0.0,0.0,0.0,0.0,0.0,0.0,0.0,0.0,0.0,0.0,0.0,0.0,0.0,0.0,0.0,0.3637,0.4735,0.5781,0.6679,0.6693,0.6466,0.0,0.0,0.0,0.0,0.0,0.0,0.0,0.0,0.0,0.0,0.0,0.0,0.0,0.0,0.0,0.0,0.0,0.0,0.0,0.0,0.0,0.0,0.0,0.0,0.0,0.0,0.0,0.0,0.0,0.0,0.0,0.0,0.0,0.0,0.0,0.0,0.0,0.0,0.0,0.0,0.0,0.0,0.0,0.0,0.0,0.0,0.0,0.0,0.0,0.0,0.0,0.0,0.0,0.0,0.0,0.0,0.0,0.0,0.0,0.0,0.0,0.0,0.0,0.0,0.0,0.0,0.0,0.0,0.0,0.0,0.0,0.0,0.0,0.0,0.0,0.0,0.0,0.0,0.0,0.0,0.0,0.0,0.0,0.0,0.0,0.0,0.0,0.0,0.0,0.0,0.0,0.0,0.0,0.0,0.0,0.0,0.0,0.0,0.0,0.0,0.0,0.0,0.0,0.0,0.0,0.0,0.0,0.0,0.0,0.3734,0.0,0.5969,0.6509,0.6503,0.6248,0.0,0.0,0.0,0.0,0.0,0.0,0.0,0.0,0.0,0.0,0.0,0.0,0.0,0.0,0.0,0.0,0.0,0.0,0.0,0.0,0.0,0.0,0.0,0.0,0.0,0.0,0.0,0.0,0.0,0.0,0.0,0.0,0.0,0.0,0.0,0.0,0.0,0.0,0.0,0.0,0.0,0.0,0.0,0.0,0.0,0.0,0.0,0.0,0.0,0.0,0.0,0.0,0.0,0.0,0.0,0.0,0.0,0.0,0.0,0.0,0.0,0.0,0.0,0.0,0.0,0.0,0.0,0.0,0.0,0.0,0.0,0.0,0.0,0.0,0.0,0.0,0.0,0.0,0.0,0.0,0.0,0.0,0.0,0.0,0.0,0.0,0.0,0.0,0.0,0.0,0.0,0.0,0.0,0.0,0.0,0.0,0.0,0.0,0.0,0.0,0.0,0.0,0.0,0.0,0.0,0.0,0.0,0.0,0.2927,0.4167,0.505,0.5511,0.5423,0.6048,0.5865,0.0,0.0,0.0,0.0,0.0,0.0,0.0,0.0,0.0,0.0,0.0,0.0,0.0,0.0,0.0,0.0,0.0,0.0,0.0,0.0,0.0,0.0,0.0,0.0,0.0,0.0,0.0,0.0,0.0,0.0,0.0,0.0,0.0,0.0,0.0,0.0,0.0,0.0,0.0,0.0,0.0,0.0,0.0,0.0,0.0,0.0,0.0,0.0,0.0,0.0,0.0,0.0,0.0,0.0,0.0,0.0,0.0,0.0,0.0,0.0,0.0,0.0,0.0,0.0,0.0,0.0,0.0,0.0,0.0,0.0,0.0,0.0,0.0,0.0,0.0,0.0,0.0,0.0,0.0,0.0,0.0,0.0,0.0,0.0,0.0,0.0,0.0,0.0,0.0,0.0,0.0,0.0,0.0,0.0,0.0,0.0,0.0,0.0,0.0,0.0,0.0,0.0,0.0,0.0,0.0,0.0,0.0,0.0,0.0,0.4707,0.5198,0.5582,0.5863,0.5895,0.551,0.0,0.0,0.0,0.0,0.0,0.0,0.0,0.0,0.0,0.0,0.0,0.0,0.0,0.0,0.0,0.0,0.0,0.0,0.0,0.0,0.0,0.0,0.0,0.0,0.0,0.0,0.0,0.0,0.0,0.0,0.0,0.0,0.0,0.0,0.0,0.0,0.0,0.0,0.0,0.0,0.0,0.0,0.0,0.0,0.0,0.0,0.0,0.0,0.0,0.0,0.0,0.0,0.0,0.0,0.0,0.0,0.0,0.0,0.0,0.0,0.0,0.0,0.0,0.0,0.0,0.0,0.0,0.0,0.0,0.0,0.0,0.0,0.0,0.0,0.0,0.0,0.0,0.0,0.0,0.0,0.0,0.0,0.0,0.0,0.0,0.0,0.0,0.0,0.0,0.0,0.0,0.0,0.0,0.0,0.0,0.0,0.0,0.0,0.0,0.0,0.0,0.0,0.0,0.0,0.0,0.0,0.0,0.0,0.0,0.4975,0.5277,0.5597,0.5974,0.5787,0.5329,0.4515,0.0,0.0,0.0,0.0,0.0,0.0,0.0,0.0,0.0,0.0,0.0,0.0,0.0,0.0,0.0,0.0,0.0,0.0,0.0,0.0,0.0,0.0,0.0,0.0,0.0,0.0,0.0,0.0,0.0,0.0,0.0,0.0,0.0,0.0,0.0,0.0,0.0,0.0,0.0,0.0,0.0,0.0,0.0,0.0,0.0,0.0,0.0,0.0,0.0,0.0,0.0,0.0,0.0,0.0,0.0,0.0,0.0,0.0,0.0,0.0,0.0,0.0,0.0,0.0,0.0,0.0,0.0,0.0,0.0,0.0,0.0,0.0,0.0,0.0,0.0,0.0,0.0,0.0,0.0,0.0,0.0,0.0,0.0,0.0,0.0,0.0,0.0,0.0,0.0,0.0,0.0,0.0,0.0,0.0,0.0,0.0,0.0,0.0,0.0,0.0,0.0,0.0,0.0,0.0,0.0,0.0,0.0,0.0,0.5061,0.5286,0.5548,0.5837,0.5783,0.5288,0.0,0.0,0.0,0.0,0.0,0.0,0.0,0.0,0.0,0.0,0.0,0.0,0.0,0.0,0.0,0.0,0.0,0.0,0.0,0.0,0.0,0.0,0.0,0.0,0.0,0.0,0.0,0.0,0.0,0.0,0.0,0.0,0.0,0.0,0.0,0.0,0.0,0.0,0.0,0.0,0.0,0.0,0.0,0.0,0.0,0.0,0.0,0.0,0.0,0.0,0.0,0.0,0.0,0.0,0.0,0.0,0.0,0.0,0.0,0.0,0.0,0.0,0.0,0.0,0.0,0.0,0.0,0.0,0.0,0.0,0.0,0.0,0.0,0.0,0.0,0.0,0.0,0.0,0.0,0.0,0.0,0.0,0.0,0.0,0.0,0.0,0.0,0.0,0.0,0.0,0.0,0.0,0.0,0.0,0.0,0.0,0.0,0.0,0.0,0.0,0.0,0.0,0.0,0.0,0.0,0.0,0.0,0.0,0.0,0.4617,0.5112,0.5681,0.642,0.6223,0.5694,0.0,0.0,0.0,0.0,0.0,0.0,0.0,0.0,0.0,0.0,0.0,0.0,0.0,0.0,0.0,0.0,0.0,0.0,0.0,0.0,0.0,0.0,0.0,0.0,0.0,0.0,0.0,0.0,0.0,0.0,0.0,0.0,0.0,0.0,0.0,0.0,0.0,0.0,0.0,0.0,0.0,0.0,0.0,0.0,0.0,0.0,0.0,0.0,0.0,0.0,0.0,0.0,0.0,0.0,0.0,0.0,0.0,0.0,0.0,0.0,0.0,0.0,0.0,0.0,0.0,0.0,0.0,0.0,0.0,0.0,0.0,0.0,0.0,0.0,0.0,0.0,0.0,0.0,0.0,0.0,0.0,0.0,0.0,0.0,0.0,0.0,0.0,0.0,0.0,0.0,0.0,0.0,0.0,0.0,0.0,0.0,0.0,0.0,0.0,0.0,0.0,0.0,0.0,0.0,0.0,0.0,0.0,0.0,0.3361,0.4264,0.5146,0.5908,0.6601,0.6406,0.5886,0.0,0.0,0.0,0.0,0.0,0.0,0.0,0.0,0.0,0.0,0.0,0.0,0.0,0.0,0.0,0.0,0.0,0.0,0.0,0.0,0.0,0.0,0.0,0.0,0.0,0.0,0.0,0.0,0.0,0.0,0.0,0.0,0.0,0.0,0.0,0.0,0.0,0.0,0.0,0.0,0.0,0.0,0.0,0.0,0.0,0.0,0.0,0.0,0.0,0.0,0.0,0.0,0.0,0.0,0.0,0.0,0.0,0.0,0.0,0.0,0.0,0.0,0.0,0.0,0.0,0.0,0.0,0.0,0.0,0.0,0.0,0.0,0.0,0.0,0.0,0.0,0.0,0.0,0.0,0.0,0.0,0.0,0.0,0.0,0.0,0.0,0.0,0.0,0.0,0.0,0.0,0.0,0.0,0.0,0.0,0.0,0.0,0.0,0.0,0.0,0.0,0.0,0.0,0.0,0.0,0.0,0.0,0.0,0.3577,0.3965,0.5221,0.6053,0.64,0.64,0.5994,0.0,0.0,0.0,0.0,0.0,0.0,0.0,0.0,0.0,0.0,0.0,0.0,0.0,0.0,0.0,0.0,0.0,0.0,0.0,0.0,0.0,0.0,0.0,0.0,0.0,0.0,0.0,0.0,0.0,0.0,0.0,0.0,0.0,0.0,0.0,0.0,0.0,0.0,0.0,0.0,0.0,0.0,0.0,0.0,0.0,0.0,0.0,0.0,0.0,0.0,0.0,0.0,0.0,0.0,0.0,0.0,0.0,0.0,0.0,0.0,0.0,0.0,0.0,0.0,0.0,0.0,0.0,0.0,0.0,0.0,0.0,0.0,0.0,0.0,0.0,0.0,0.0,0.0,0.0,0.0,0.0,0.0,0.0,0.0,0.0,0.0,0.0,0.0,0.0,0.0,0.0,0.0,0.0,0.0,0.0,0.0,0.0,0.0,0.0,0.0,0.0,0.0,0.0,0.0,0.0,0.0,0.0,0.0,0.2932,0.3762,0.466,0.5328,0.5687,0.6151,0.6263,0.0,0.0,0.0,0.0,0.0,0.0,0.0,0.0,0.0,0.0,0.0,0.0,0.0,0.0,0.0,0.0,0.0,0.0,0.0,0.0,0.0,0.0,0.0,0.0,0.0,0.0,0.0,0.0,0.0,0.0,0.0,0.0,0.0,0.0,0.0,0.0,0.0,0.0,0.0,0.0,0.0,0.0,0.0,0.0,0.0,0.0,0.0,0.0,0.5885,0.0,0.0,0.0,0.0,0.0,0.0,0.0,0.0,0.0,0.0,0.0,0.0,0.0,0.0,0.0,0.0,0.0,0.0,0.0,0.0,0.0,0.0,0.0,0.0,0.0,0.0,0.0,0.0,0.0,0.0,0.0,0.0,0.0,0.0,0.0,0.0,0.0,0.0,0.0,0.0,0.0,0.0,0.0,0.0,0.0,0.0,0.0,0.0,0.0,0.0,0.0,0.0,0.0,0.0,0.0,0.0,0.0,0.0,0.0,0.2537,0.3186,0.4099,0.4858,0.5385,0.607,0.6271,0.0,0.0,0.0,0.0,0.0,0.0,0.0,0.0,0.0,0.0,0.0,0.0,0.0,0.0,0.0,0.0,0.0,0.0,0.0,0.0,0.0,0.0,0.0,0.0,0.0,0.0,0.0,0.0,0.0,0.0,0.0,0.0,0.0,0.0,0.0,0.0,0.0,0.0,0.0,0.0,0.0,0.0,0.0,0.0,0.0,0.0,0.0,0.0,0.0,0.0,0.0,0.0,0.0,0.0,0.0,0.0,0.0,0.0,0.0,0.0,0.0,0.0,0.0,0.0,0.0,0.0,0.0,0.0,0.0,0.0,0.0,0.0,0.0,0.0,0.0,0.0,0.0,0.0,0.0,0.0,0.0,0.0,0.0,0.0,0.0,0.0,0.0,0.0,0.0,0.0,0.0,0.0,0.0,0.0,0.0,0.0,0.0,0.0,0.0,0.0,0.0,0.0,0.0,0.0,0.0,0.0,0.0,0.1885,0.2199,0.2559,0.3614,0.4486,0.514,0.5885,0.6066,0.5605,0.0,0.0,0.0,0.0,0.0,0.0,0.0,0.0,0.0,0.0,0.0,0.0,0.0,0.0,0.0,0.0,0.0,0.0,0.0,0.0,0.0,0.0,0.0,0.0,0.0,0.0,0.0,0.0,0.0,0.0,0.0,0.0,0.0,0.0,0.0,0.0,0.0,0.0,0.3514,0.4538,0.0,0.0,0.0,0.0,0.0,0.0,0.0,0.0,0.6442,0.0,0.0,0.0,0.0,0.0,0.0,0.0,0.0,0.0,0.0,0.0,0.0,0.0,0.0,0.0,0.0,0.0,0.0,0.0,0.0,0.0,0.0,0.0,0.0,0.0,0.0,0.0,0.0,0.0,0.0,0.0,0.0,0.0,0.0,0.0,0.0,0.0,0.0,0.0,0.0,0.0,0.0,0.0,0.0,0.0,0.0,0.0,0.0,0.0,0.0,0.0,0.0,0.0,0.0,0.0,0.0,0.1575,0.1721,0.1921,0.227,0.3147,0.3887,0.445,0.5335,0.559,0.5146,0.0,0.0,0.0,0.0,0.0,0.0,0.0,0.0,0.0,0.0,0.0,0.0,0.0,0.0,0.0,0.0,0.0,0.0,0.0,0.0,0.0,0.0,0.0,0.0,0.0,0.0,0.0,0.0,0.0,0.0,0.0,0.0,0.0,0.0,0.0,0.0,0.0,0.0,0.0,0.5387,0.5905,0.0,0.0,0.0,0.0,0.0,0.0,0.0,0.0,0.7015,0.0,0.0,0.0,0.0,0.0,0.0,0.0,0.0,0.0,0.0,0.0,0.0,0.0,0.0,0.0,0.0,0.0,0.0,0.0,0.0,0.0,0.0,0.0,0.0,0.0,0.0,0.0,0.0,0.0,0.0,0.0,0.0,0.0,0.0,0.0,0.0,0.0,0.0,0.0,0.0,0.0,0.0,0.0,0.0,0.0,0.0,0.0,0.0,0.0,0.0,0.0,0.0,0.0,0.0,0.0,0.1264,0.1733,0.1966,0.1914,0.2751,0.3549,0.4284,0.4747,0.4975,0.0,0.0,0.0,0.0,0.0,0.0,0.0,0.0,0.0,0.0,0.0,0.0,0.0,0.0,0.0,0.0,0.0,0.0,0.0,0.0,0.0,0.0,0.0,0.0,0.0,0.0,0.0,0.0,0.0,0.0,0.0,0.0,0.0,0.0,0.0,0.0,0.0,0.0,0.0,0.0,0.5934,0.6537,0.7345,0.0,0.0,0.0,0.0,0.0,0.0,0.7872,0.7465,0.0,0.0,0.0,0.0,0.0,0.0,0.0,0.0,0.0,0.0,0.0,0.0,0.0,0.0,0.0,0.0,0.0,0.0,0.0,0.0,0.0,0.0,0.0,0.0,0.0,0.0,0.0,0.0,0.0,0.0,0.0,0.0,0.0,0.0,0.0,0.0,0.0,0.0,0.0,0.0,0.0,0.0,0.0,0.0,0.0,0.0,0.0,0.0,0.0,0.0,0.0,0.0,0.0,0.0,0.0,0.0971,0.1797,0.2026,0.1678,0.2482,0.3382,0.4248,0.4344,0.4448,0.0,0.0,0.0,0.0,0.0,0.0,0.0,0.0,0.0,0.0,0.0,0.0,0.0,0.0,0.0,0.0,0.0,0.0,0.0,0.0,0.0,0.0,0.0,0.0,0.0,0.0,0.0,0.0,0.0,0.0,0.0,0.0,0.0,0.0,0.0,0.0,0.0,0.0,0.0,0.0,0.0,0.7047,0.8094,0.7549,0.0,0.0,0.0,0.0,0.8286,0.8271,0.0,0.0,0.0,0.0,0.0,0.0,0.0,0.0,0.0,0.0,0.0,0.0,0.0,0.0,0.0,0.0,0.0,0.0,0.0,0.0,0.0,0.0,0.0,0.0,0.0,0.0,0.0,0.0,0.0,0.0,0.0,0.0,0.0,0.0,0.0,0.0,0.0,0.0,0.0,0.0,0.0,0.0,0.0,0.0,0.0,0.0,0.0,0.0,0.0,0.0,0.0,0.0,0.0,0.0,0.0,0.0,0.1032,0.1726,0.1962,0.1678,0.2621,0.3525,0.4281,0.4237,0.4281,0.0,0.0,0.0,0.0,0.0,0.0,0.0,0.0,0.0,0.0,0.0,0.0,0.0,0.0,0.0,0.0,0.0,0.0,0.0,0.0,0.0,0.0,0.0,0.0,0.0,0.0,0.0,0.0,0.0,0.0,0.0,0.0,0.0,0.0,0.0,0.0,0.0,0.0,0.0,0.0,0.0,0.7188,0.7996,0.791,0.7718,0.0,0.0,0.8452,0.8548,0.8899,0.0,0.0,0.0,0.0,0.0,0.0,0.0,0.0,0.0,0.0,0.0,0.0,0.0,0.0,0.0,0.0,0.0,0.0,0.0,0.0,0.0,0.0,0.0,0.0,0.0,0.0,0.0,0.0,0.0,0.0,0.0,0.0,0.0,0.0,0.0,0.0,0.0,0.0,0.0,0.0,0.0,0.0,0.0,0.0,0.0,0.0,0.0,0.0,0.0,0.0,0.0,0.0,0.0,0.0,0.0,0.1802,0.144,0.2251,0.2457,0.1983,0.2587,0.3222,0.3818,0.3605,0.3585,0.0,0.0,0.0,0.0,0.0,0.0,0.0,0.0,0.0,0.0,0.0,0.0,0.0,0.0,0.0,0.0,0.0,0.0,0.0,0.0,0.0,0.0,0.0,0.0,0.0,0.0,0.0,0.0,0.0,0.0,0.0,0.0,0.0,0.0,0.0,0.0,0.0,0.0,0.0,0.0,0.0,0.0,0.8098,0.8094,0.0,0.0,0.0,0.8599,0.8599,0.0,0.0,0.0,0.0,0.0,0.0,0.0,0.0,0.0,0.0,0.0,0.0,0.0,0.0,0.0,0.0,0.0,0.0,0.0,0.0,0.0,0.0,0.0,0.0,0.0,0.0,0.0,0.0,0.0,0.0,0.0,0.0,0.0,0.0,0.0,0.0,0.0,0.0,0.0,0.0,0.0,0.0,0.0,0.0,0.0,0.0,0.0,0.0,0.0,0.0,0.0,0.0,0.0,0.0,0.0,0.0,0.0,0.1808,0.2728,0.2926,0.2354,0.2755,0.3188,0.3618,0.329,0.0,0.0,0.0,0.0,0.0,0.0,0.0,0.0,0.0,0.0,0.0,0.0,0.0,0.0,0.0,0.0,0.0,0.0,0.0,0.0,0.0,0.0,0.0,0.0,0.0,0.0,0.0,0.2204,0.0,0.0,0.0,0.0,0.0,0.0,0.0,0.0,0.0,0.0,0.0,0.0,0.0,0.0,0.7196,0.8159,0.8311,0.8416,0.0,0.0,0.8712,0.8712,0.907,0.8988,0.0,0.0,0.0,0.0,0.0,0.0,0.0,0.0,0.0,0.0,0.0,0.0,0.0,0.0,0.0,0.0,0.0,0.0,0.0,0.0,0.0,0.0,0.0,0.0,0.0,0.0,0.0,0.0,0.0,0.0,0.0,0.0,0.0,0.0,0.0,0.0,0.0,0.0,0.0,0.0,0.0,0.0,0.0,0.0,0.0,0.0,0.0,0.0,0.0,0.0,0.0,0.0,0.0,0.0,0.0,0.2007,0.2786,0.3025,0.272,0.3355,0.3825,0.3956,0.383,0.3809,0.0,0.0,0.0,0.0,0.0,0.0,0.0,0.0,0.0,0.0,0.0,0.0,0.0,0.0,0.0,0.0,0.0,0.0,0.0,0.0,0.0,0.0,0.0,0.0,0.0,0.0,0.0,0.0,0.0,0.0,0.0,0.0,0.0,0.0,0.0,0.0,0.0,0.0,0.0,0.0,0.0,0.7307,0.8189,0.8602,0.89,0.0,0.0,0.9077,0.9071,0.9432,0.9494,0.8745,0.0,0.0,0.0,0.0,0.0,0.0,0.0,0.0,0.0,0.0,0.0,0.0,0.0,0.0,0.0,0.0,0.0,0.0,0.0,0.0,0.0,0.0,0.0,0.0,0.0,0.0,0.0,0.0,0.0,0.0,0.0,0.0,0.0,0.0,0.0,0.0,0.0,0.0,0.0,0.0,0.0,0.0,0.0,0.0,0.0,0.0,0.0,0.0,0.0,0.0,0.0,0.0,0.0,0.2184,0.2434,0.2949,0.3291,0.3491,0.3458,0.3792,0.4453,0.4164,0.4087,0.0,0.0,0.0,0.0,0.0,0.0,0.0,0.0,0.0,0.0,0.0,0.0,0.0,0.0,0.0,0.0,0.0,0.0,0.0,0.0,0.0,0.0,0.0,0.0,0.0,0.0,0.0,0.0,0.3535,0.3566,0.3333,0.0,0.0,0.0,0.0,0.0,0.0,0.0,0.0,0.0,0.0,0.7439,0.8519,0.8797,0.0,0.0,0.9101,0.9101,0.9101,0.9247,0.9199,0.867,0.813,0.0,0.0,0.0,0.0,0.0,0.0,0.0,0.0,0.0,0.0,0.0,0.0,0.0,0.0,0.0,0.0,0.0,0.0,0.0,0.0,0.0,0.0,0.0,0.0,0.0,0.0,0.0,0.0,0.0,0.0,0.0,0.0,0.0,0.0,0.0,0.0,0.0,0.0,0.0,0.0,0.0,0.0,0.0,0.0,0.0,0.0,0.0,0.0,0.0,0.0,0.0,0.0,0.2332,0.2687,0.3202,0.3627,0.3997,0.3792,0.4056,0.4743,0.4499,0.4385,0.0,0.0,0.0,0.0,0.0,0.0,0.0,0.0,0.0,0.0,0.0,0.0,0.0,0.0,0.0,0.0,0.0,0.0,0.0,0.0,0.0,0.0,0.0,0.0,0.0,0.0,0.0,0.0,0.3881,0.3727,0.3283,0.0,0.0,0.0,0.0,0.0,0.0,0.0,0.0,0.0,0.0,0.7693,0.8619,0.8833,0.8916,0.9066,0.9128,0.916,0.9107,0.9223,0.9163,0.8775,0.0,0.0,0.0,0.0,0.0,0.0,0.0,0.0,0.0,0.0,0.0,0.0,0.0,0.0,0.0,0.0,0.0,0.0,0.0,0.0,0.0,0.0,0.0,0.0,0.0,0.0,0.0,0.0,0.0,0.0,0.4862,0.0,0.0,0.0,0.0,0.0,0.0,0.0,0.0,0.0,0.0,0.0,0.0,0.0,0.0,0.0,0.0,0.0,0.0,0.0,0.0,0.0,0.0,0.2438,0.2717,0.3547,0.3995,0.4028,0.4486,0.4782,0.4815,0.4779,0.4877,0.5076,0.0,0.0,0.0,0.0,0.0,0.0,0.0,0.0,0.0,0.0,0.0,0.0,0.0,0.0,0.0,0.0,0.0,0.0,0.0,0.0,0.0,0.0,0.0,0.0,0.0,0.0,0.361,0.3675,0.3541,0.0,0.0,0.0,0.0,0.0,0.0,0.0,0.0,0.0,0.0,0.7097,0.8007,0.8351,0.8646,0.8844,0.9,0.9166,0.9237,0.9112,0.9474,0.9643,0.0,0.0,0.0,0.0,0.0,0.0,0.0,0.0,0.0,0.0,0.0,0.0,0.0,0.0,0.0,0.0,0.0,0.0,0.0,0.0,0.0,0.0,0.0,0.0,0.0,0.0,0.0,0.966,0.8781,0.0,0.0,0.0,0.0,0.0,0.0,0.0,0.0,0.0,0.0,0.0,0.6233,0.6186,0.0,0.0,0.0,0.0,0.0,0.0,0.0,0.0,0.0,0.0,0.0,0.0,0.3066,0.3383,0.4139,0.4688,0.5054,0.4882,0.5147,0.5815,0.5514,0.5353,0.5416,0.0,0.0,0.0,0.0,0.0,0.0,0.0,0.0,0.0,0.0,0.0,0.0,0.0,0.0,0.0,0.0,0.0,0.0,0.0,0.0,0.0,0.0,0.0,0.0,0.0,0.376,0.0,0.0,0.0,0.0,0.0,0.0,0.0,0.0,0.0,0.0,0.0,0.5768,0.6972,0.7577,0.8118,0.8736,0.8869,0.8952,0.0,0.0,0.0,0.0,0.0,0.0,0.0,0.0,0.0,0.0,0.0,0.0,0.0,0.0,1.0392,0.8959,0.8716,0.8676,0.8618,0.0,0.0,0.0,0.0,0.0,0.0,0.0,0.0,0.0,0.0,0.0,0.0,0.0,0.0,1.2459,0.0,1.0704,0.0,0.0,0.0,0.0,0.0,0.0,0.0,0.0,0.7361,0.7426,0.7224,0.712,0.6879,0.0,0.6199,0.5278,0.0,0.0,0.0,0.0,0.0,0.0,0.0,0.0,0.3548,0.3919,0.4694,0.5246,0.5583,0.5448,0.5683,0.6354,0.605,0.5896,0.587,0.5773,0.5498,0.0,0.0,0.0,0.0,0.0,0.0,0.0,0.0,0.0,0.0,0.0,0.0,0.0,0.0,0.0,0.0,0.0,0.0,0.0,0.0,0.0,0.0,0.0,0.4211,0.0,0.0,0.0,0.0,0.0,0.0,0.0,0.0,0.0,0.4953,0.5809,0.6755,0.7601,0.8069,0.8457,0.8786,0.0,0.0,0.0,0.0,0.0,0.0,0.0,0.9581,0.9725,0.998,1.0256,1.0487,1.1261,1.2068,1.2709,0.0,0.0,1.0915,1.0693,1.0704,1.0475,1.1262,1.1927,1.1794,1.2469,1.3132,0.0,0.0,0.0,0.0,0.0,0.0,0.0,0.0,1.6316,1.5246,0.0,1.3785,0.0,0.0,0.0,0.0,0.0,0.8194,0.0,0.0,0.9072,0.8905,0.8213,0.7996,0.784,0.7685,0.716,0.6611,0.598,0.4782,0.0,0.0,0.0,0.0,0.0,0.0,0.3954,0.4371,0.5188,0.5617,0.565,0.6115,0.6387,0.6387,0.6387,0.6383,0.6404,0.62,0.6164,0.6253,0.5302,0.0,0.0,0.0,0.0,0.0,0.0,0.0,0.0,0.0,0.0,0.0,0.0,0.0,0.0,0.0,0.0,0.0,0.0,0.0,0.0,0.4581,0.0,0.0,0.0,0.0,0.0,0.0,0.0,0.0,0.0,0.0,0.5453,0.7065,0.8141,0.7793,0.0,0.0,0.0,0.0,0.8517,0.8517,0.8797,0.8931,0.8852,0.9398,0.9958,1.0333,0.0,0.0,1.2375,1.2989,1.3454,1.3834,1.3765,1.3433,1.2951,1.303,1.3085,1.2836,1.3378,1.3867,1.392,1.4365,1.4883,2.2876,0.0,0.0,0.0,0.0,1.9421,1.9596,1.9443,1.9185,1.8187,1.6666,1.5678,0.0,0.0,0.0,0.0,0.0,0.0,0.9365,0.9314,0.9226,0.8887,0.8404,0.835,0.8313,0.8244,0.7628,0.7254,0.7025,0.6192,0.5162,0.4097,0.0,0.0,0.0,0.0,0.4854,0.5169,0.585,0.6152,0.6181,0.6317,0.642,0.642,0.642,0.642,0.642,0.6351,0.6277,0.6173,0.5971,0.0,0.0,0.0,0.0,0.0,0.0,0.0,0.0,0.0,0.0,0.0,0.0,0.0,0.0,0.0,0.0,0.0,0.0,0.0,0.4787,0.5031,0.4891,0.0,0.0,0.0,0.0,0.0,0.0,0.0,0.0,0.0,0.5917,0.6753,0.7598,0.0,0.0,0.8604,0.8742,0.8619,0.8517,0.8517,0.8705,0.0,0.892,0.9692,1.0382,1.066,1.1614,1.2624,1.3484,1.4136,1.4721,1.5353,1.5551,1.557,1.5508,1.4895,1.4532,1.4698,1.5453,1.5977,1.5827,1.6347,1.6832,2.6405,2.405,2.3182,2.2517,2.2127,2.2383,2.2514,2.247,2.1816,2.0626,1.914,1.8202,1.652,1.4336,1.296,0.0,0.0,0.0,1.0512,1.0315,0.9752,0.9121,0.8538,0.8517,0.8517,0.8479,0.8084,0.7754,0.7493,0.7068,0.6268,0.5132,0.0,0.0,0.4695,0.5111,0.5492,0.5793,0.6205,0.642,0.642,0.642,0.642,0.642,0.642,0.642,0.642,0.642,0.6416,0.6412,0.6395,0.6202,0.0,0.0,0.0,0.0,0.0,0.0,0.0,0.0,0.0,0.0,0.0,0.4293,0.4202,0.0,0.0,0.0,0.4774,0.4977,0.551,0.5474,0.0,0.0,0.0,0.0,0.0,0.0,0.0,0.4721,0.535,0.5837,0.601,0.6688,0.7439,0.8099,0.8366,0.8599,0.8743,0.0,0.8517,0.8517,0.8705,0.8985,0.9364,1.0149,1.0999,1.1815,1.2995,1.3946,1.442,1.4956,1.5468,1.6023,1.6287,1.644,1.6889,1.6431,1.5914,1.5922,1.6585,1.7098,1.6931,1.7575,1.8098,2.9136,2.8827,2.6269,2.5348,2.5459,2.4791,2.5041,2.5756,2.4008,2.2513,2.1302,2.0807,1.8747,1.5564,1.4007,0.0,1.3305,1.2344,1.179,1.1516,1.0514,0.955,0.8641,0.8576,0.8582,0.8576,0.8511,0.8214,0.7587,0.7521,0.7104,0.6295,0.594,0.5656,0.5477,0.5644,0.5897,0.6227,0.6335,0.642,0.642,0.642,0.642,0.642,0.642,0.642,0.642,0.642,0.6552,0.6839,0.6724,0.673,0.6854,0.0,0.0,0.0,0.0,0.0,0.0,0.0,0.0,0.0,0.0,0.0,0.0,0.0,0.0,0.0,0.5559,0.0,0.6178,0.5878,0.0,0.0,0.0,0.447,0.4418,0.4525,0.4657,0.4893,0.0,0.0,0.5887,0.6816,0.7501,0.7517,0.834,0.8853,0.8603,0.856,0.8544,0.8576,0.8884,0.9367,0.9963,1.0822,1.1941,1.3415,1.4618,1.5168,1.5242,1.559,1.5896,1.6256,1.6305,1.6548,1.7298,1.7458,1.7428,1.6799,1.7185,1.7625,1.7677,1.8247,1.8833,3.0157,2.9941,2.8603,2.7818,2.7427,2.661,2.6151,2.5776,2.4356,2.2936,2.1546,2.0722,1.9037,1.6753,1.6056,1.5321,1.4523,1.342,1.2623,1.2043,1.1069,1.0256,0.964,0.9274,0.9113,0.9081,0.8812,0.8517,0.8231,0.7842,0.7493,0.7191,0.6565,0.6169,0.603,0.6063,0.6172,0.6351,0.6363,0.642,0.642,0.642,0.642,0.642,0.642,0.642,0.642,0.642,0.6416,0.6515,0.7011,0.7149,0.6844,0.6487,0.0,0.0,0.0,0.0,0.0,0.0,0.0,0.0,0.0,0.5277,0.5253,0.0,0.5912,0.0,0.6056,0.6245,0.6199,0.6098,0.0,0.0,0.5226,0.5045,0.4798,0.4876,0.5051,0.5247,0.5357,0.5632,0.6213,0.6848,0.7409,0.7847,0.8562,0.9069,0.9136,0.9006,0.8888,0.8943,0.9601,1.028,1.066,1.201,1.3398,1.4296,1.5139,1.5657,1.5648,1.6177,1.6683,1.6911,1.709,1.7307,1.7576,1.7774,1.7947,1.8015,1.8284,1.8524,1.8678,1.9059,1.948,3.0935,3.1086,3.0494,2.9836,2.908,2.7736,2.69,2.6354,2.4962,2.3766,2.271,2.0893,1.905,1.7202,1.6758,1.6142,1.5303,1.3923,1.3092,1.2641,1.1406,1.051,0.999,0.9741,0.9614,0.9614,0.9384,0.9122,0.8844,0.8554,0.8264,0.7944,0.7232,0.6852,0.6784,0.6459,0.6314,0.642,0.642,0.642,0.642,0.642,0.642,0.6416,0.6339,0.6298,0.6331,0.6281,0.6271,0.6271,0.6935,0.7242,0.7026,0.6905,0.6498,0.0,0.0,0.0,0.0,0.0,0.0,0.0,0.0,0.0,0.0,0.0,0.6571,0.6308,0.634,0.6333,0.6215,0.6207,0.6036,0.5669,0.5544,0.5408,0.5232,0.5227,0.5266,0.5402,0.541,0.5653,0.6334,0.69,0.7521,0.8161,0.8837,0.9261,0.9217,0.9097,0.9024,0.9204,0.9766,1.0629,1.1614,1.3243,1.4572,1.5087,1.5642,1.6023,1.6057,1.6502,1.6968,1.7166,1.7348,1.7529,1.7681,1.7852,1.811,1.8367,1.871,1.8988,1.9083,1.9363,1.966,3.1646,3.2195,3.1923,3.1322,3.0448,2.8707,2.7712,2.7168,2.5733,2.4713,2.3892,2.1117,1.8998,1.7468,1.6972,1.6503,1.5968,1.4382,1.3528,1.3236,1.1795,1.0787,1.0212,1.011,1.0117,1.011,1.0085,0.9869,0.9434,0.9396,0.9107,0.8619,0.7874,0.7493,0.7461,0.6778,0.642,0.642,0.642,0.642,0.642,0.642,0.642,0.6383,0.6273,0.6207,0.6203,0.6127,0.6117,0.6147,0.6752,0.7215,0.737,0.7242,0.696,0.0,0.6017,0.0,0.0,0.0,0.0,0.0,0.0,0.0,0.0,0.7125,0.7065,0.6625,0.6455,0.6359,0.622,0.6244,0.6153,0.5934,0.5736,0.5628,0.5599,0.5458,0.5395,0.5395,0.5395,0.5686,0.6465,0.7055,0.7679,0.849,0.9098,0.9397,0.9209,0.9156,0.9257,0.9432,0.986,1.1132,1.2884,1.4364,1.5368,1.5773,1.6062,1.6307,1.6324,1.6621,1.6968,1.7141,1.7358,1.7529,1.7647,1.7828,1.8042,1.8279,1.8778,1.9156,1.9201,1.9484,1.9719,3.2806,3.2754,3.208,3.1712,3.1484,3.0746,2.9399,2.7707,2.664,2.5112,2.3141,2.0893,1.9543,1.885,1.7918,1.7352,1.7069,1.5975,1.4954,1.3981,1.3149,1.2228,1.1303,1.0856,1.0643,1.0643,1.0674,1.0453,1.011,0.9939,0.9671,0.9294,0.8102,0.7493,0.7456,0.0,0.0,0.0,0.642,0.642,0.642,0.642,0.642,0.6412,0.6273,0.0,0.6203,0.6127,0.6147,0.6276,0.6902,0.0,0.0,0.0,0.0,0.0,0.0,0.0,0.0,0.0,0.0,0.0,0.6922,0.6832,0.7108,0.6997,0.6775,0.6457,0.6421,0.6378,0.6355,0.6367,0.6237,0.5942,0.5873,0.5723,0.5491,0.5395,0.5395,0.5395,0.5395,0.5855,0.6957,0.7321,0.7874,0.9055,0.9414,0.9568,0.9694,0.9684,0.9747,0.988,1.1171,1.2816,1.4123,1.5053,1.5747,1.6026,1.6167,1.6342,1.6499,1.6716,1.6908,1.6978,1.7254,1.7505,1.7529,1.7803,1.8042,1.8245,1.8808,1.9228,1.939,1.9889,2.0348,3.3571,0.0,3.3343,3.2918,0.0,3.2245,3.1164,2.9458,2.7924,2.5895,2.3556,2.182,2.0626,1.9839,1.8852,1.8194,1.7775,1.6718,1.5812,1.5051,1.3772,1.2801,1.2042,1.1452,1.1216,1.1178,1.1185,1.1021,1.0713,1.0579,1.0383,1.0034,0.9005,0.8328,0.7972,0.6937,0.642,0.642,0.642,0.642,0.642,0.642,0.642,0.6416,0.6273,0.0,0.0,0.0,0.0,0.0,0.0,0.0,0.0,0.8621,0.0,0.7847,0.7766,0.7472,0.6797,0.6695,0.6856,0.739,0.7299,0.7249,0.7384,0.7241,0.7029,0.6692,0.6512,0.642,0.6408,0.642,0.6317,0.6053,0.5954,0.5789,0.5554,0.5428,0.5395,0.5395,0.5395,0.5918,0.7223,0.7386,0.7977,0.9221,0.9478,0.9612,0.9847,0.9874,0.9979,1.0278,1.1982,1.3436,1.4032,1.5062,1.5867,1.607,1.6202,1.6368,1.6568,1.6795,1.6908,1.6943,1.722,1.7495,1.7539,1.7779,1.81,1.8439,1.8978,1.9544,1.994,2.0237,2.0431,3.4183,3.4604,3.4636,3.4156,3.3374,3.344,3.2697,3.1327,0.0,0.0,0.0,2.3459,2.2231,2.1035,2.0169,1.9462,1.8799,1.7695,1.6821,1.6035,1.4435,1.3211,1.2422,1.1855,1.1591,1.1591,1.1591,1.1435,1.1129,1.1097,1.0933,1.0561,0.9875,0.916,0.8458,0.7228,0.6646,0.6778,0.6646,0.6613,0.6581,0.6581,0.6581,0.6576,0.6337,0.627,0.6392,0.6306,0.6593,0.7305,0.7636,0.8162,0.8894,0.9137,0.8821,0.7941,0.8073,0.7859,0.699,0.7022,0.7218,0.7544,0.7749,0.7772,0.7603,0.7458,0.7232,0.6848,0.6552,0.642,0.642,0.642,0.6317,0.6181,0.5984,0.5822,0.5583,0.5458,0.5395,0.5395,0.5395,0.5885,0.719,0.7386,0.7912,0.9163,0.9532,0.9703,0.9961,1.0075,1.0244,1.0796,1.2285,1.3484,1.3528,1.4732,1.5718,1.5885,1.6132,1.6377,1.6612,1.6786,1.6908,1.6908,1.722,1.7436,1.7505,1.7831,1.8163,1.8529,1.9196,1.9906,2.042,2.0624,2.0648,3.4693,3.4612,3.4773,3.4553,3.4078,3.4315,3.3516,3.191,2.9853,2.8288,2.7162,2.6113,2.4786,2.3333,2.2789,2.1996,2.1036,2.0491,1.8942,1.6541,1.5834,1.4277,1.2102,1.1755,1.1591,1.1591,1.1591,1.1435,1.1129,1.1097,1.0933,1.0555,0.9843,0.9166,0.849,0.7712,0.7614,0.8166,0.7647,0.7363,0.733,0.7358,0.7363,0.7321,0.6589,0.6486,0.7041,0.7002,0.7334,0.8174,0.8475,0.8901,0.9514,0.9873,0.9659,0.8903,0.9018,0.8616,0.7463,0.7112,0.7209,0.7884,0.8716,0.8731,0.7613,0.7186,0.6843,0.6519,0.642,0.642,0.642,0.642,0.6284,0.5987,0.5925,0.5793,0.5458,0.5428,0.5395,0.5395,0.5395,0.5918,0.7125,0.7419,0.7977,0.9159,0.9751,1.0021,1.04,1.0575,1.0695,1.1157,1.2435,1.3098,1.2915,1.4374,1.5461,1.539,1.5921,1.6421,1.676,1.6864,1.6908,1.6908,1.7107,1.7332,1.7499,1.7957,1.8344,1.8669,1.9442,2.0178,2.0544,2.0951,2.136,3.4801,3.4723,3.4792,3.472,3.4528,3.4572,3.3998,3.293,3.1637,3.0247,2.8792,2.7373,2.6114,2.5014,2.4214,2.3102,2.1744,2.1338,1.9965,1.7951,1.6665,1.5137,1.3477,1.2928,1.251,1.2137,1.2345,1.2063,1.1354,1.1175,1.094,1.0561,0.9875,0.9358,0.9032,0.8393,0.8199,0.849,0.8199,0.7879,0.7526,0.7493,0.7297,0.6905,0.6493,0.6645,0.731,0.7315,0.7819,0.894,0.9106,0.9507,1.0155,1.033,0.9907,0.8839,0.9172,0.8844,0.7559,0.7657,0.7982,0.8501,0.8463,0.8269,0.7819,0.7596,0.7204,0.6486,0.642,0.642,0.642,0.642,0.6284,0.5925,0.5892,0.576,0.5458,0.5395,0.5395,0.5428,0.5719,0.6309,0.7288,0.7744,0.8392,0.9518,1.0057,1.0418,1.0659,1.0846,1.0966,1.1199,1.2107,1.2622,1.2445,1.3861,1.4982,1.5161,1.5806,1.6412,1.6804,1.6908,1.6908,1.6908,1.7072,1.7382,1.7726,1.8129,1.8595,1.9243,1.9617,2.0187,2.0653,2.1161,2.153,3.487,3.4879,3.486,3.483,3.4788,3.4636,3.4311,3.3775,3.3109,3.1983,3.0463,2.8716,2.7498,2.6623,2.553,2.4163,2.2672,2.1983,2.0782,1.9089,1.7346,1.5804,1.4537,1.3932,1.33,1.2631,1.3053,1.2726,1.1748,1.1407,1.1034,1.06,0.9869,0.9582,0.9716,0.9069,0.8812,0.8941,0.8973,0.8613,0.7972,0.7809,0.7451,0.6937,0.6708,0.697,0.7652,0.7879,0.8522,0.9652,0.9748,1.0009,1.053,1.0586,1.004,0.8941,0.9198,0.8967,0.7912,0.8328,0.8844,0.9075,0.856,0.8172,0.8112,0.8112,0.7624,0.6613,0.642,0.642,0.642,0.642,0.6284,0.5991,0.5925,0.5793,0.5491,0.5428,0.5495,0.562,0.5976,0.6433,0.726,0.7789,0.8463,0.9531,1.0296,1.0713,1.0773,1.0991,1.1099,1.126,1.1781,1.2187,1.2218,1.3564,1.4609,1.4974,1.5762,1.6403,1.6795,1.6908,1.6908,1.6908,1.7003,1.7334,1.7901,1.8288,1.8802,1.9519,1.9943,2.0272,2.0787,2.1213,2.154,3.507,3.507,3.5072,3.4964,3.4788,3.4655,3.4439,3.4074,3.3492,3.3054,3.2408,3.0896,2.9528,2.8489,2.7203,2.5816,2.4356,2.3394,2.1658,1.9437,1.789,1.6134,1.44,1.3886,1.33,1.2702,1.3335,1.322,1.2231,1.1857,1.1403,1.0771,0.9939,0.9849,1.0333,0.9748,0.9716,1.0396,1.0396,1.0066,0.9326,0.871,0.8393,0.8296,0.7717,0.7717,0.8393,0.9,0.9678,1.0396,1.046,1.053,1.0586,1.0586,1.0238,0.946,0.9454,0.9166,0.8554,0.9032,0.9422,0.9492,0.9913,0.9652,0.8587,0.8425,0.7847,0.6745,0.6387,0.6387,0.642,0.6387,0.6317,0.6148,0.5987,0.5822,0.565,0.5458,0.562,0.6235,0.5947,0.5947,0.7073,0.7245,0.7704,0.9351,1.0264,1.0834,1.096,1.1069,1.1117,1.1223,1.1781,1.1892,1.17,1.3302,1.4279,1.4307,1.549,1.6359,1.6691,1.6839,1.6908,1.6908,1.6954,1.7259,1.7808,1.8297,1.8897,1.9638,2.0148,2.0585,2.0858,2.1205,2.1502,3.4944,3.4718,3.4935,3.4936,3.4798,3.4747,3.4539,3.4203,3.3579,3.3356,3.3292,3.1882,3.0375,2.8975,2.8256,2.689,2.5008,2.4339,2.2965,2.0966,1.9319,1.7767,1.643,1.5839,1.494,1.3851,1.4365,1.3962,1.2718,1.2016,1.1501,1.1101,1.0614,1.0471,1.0575,1.0301,1.0301,1.0586,1.0586,1.046,1.0104,0.9454,0.8909,0.8517,0.8231,0.8393,0.9005,0.9358,0.9843,1.0523,1.0586,1.0586,1.0586,1.0586,1.0263,0.9582,0.9486,0.9588,0.9716,1.0009,1.0129,1.0174,0.9652,0.9107,0.8522,0.7674,0.6868,0.6412,0.6284,0.6251,0.6152,0.6214,0.6214,0.605,0.5954,0.5987,0.621,0.6108,0.6141,0.6367,0.6531,0.6539,0.6935,0.7638,0.8468,0.9497,1.0317,1.096,1.1099,1.1117,1.1117,1.1111,1.1409,1.144,1.1298,1.2365,1.331,1.3694,1.4807,1.5965,1.6263,1.6691,1.6908,1.6908,1.7092,1.7509,1.8234,1.8712,1.9269,1.9899,2.0275,2.0654,2.0867,2.1128,2.1397,3.5303,3.5021,3.5031,3.4974,3.4859,3.4839,3.4687,3.4356,3.3753,3.3652,3.3723,3.2556,3.1235,2.9889,2.909,2.7612,2.5862,2.5022,2.391,2.2366,2.0381,1.8909,1.8016,1.7257,1.6088,1.489,1.5116,1.45,1.2959,1.2228,1.1778,1.1489,1.1242,1.0995,1.074,1.0713,1.0667,1.0593,1.0586,1.0586,1.0523,1.0066,0.9454,0.8839,0.878,0.9,0.9486,0.9678,1.004,1.0555,1.0586,1.0586,1.0586,1.0586,1.0358,0.9875,0.9811,1.0034,1.0555,1.0586,1.0586,1.0498,0.9428,0.8683,0.8253,0.7214,0.647,0.6342,0.6346,0.6247,0.5954,0.6214,0.6309,0.6214,0.628,0.6576,0.6896,0.6662,0.6465,0.6662,0.6688,0.6894,0.6903,0.7941,0.9072,0.9594,1.0467,1.1117,1.1117,1.1117,1.1117,1.1117,1.1111,1.1111,1.1192,1.2107,1.2622,1.323,1.4414,1.5683,1.5833,1.6438,1.6864,1.6945,1.7266,1.7677,1.8211,1.8807,1.9564,2.0256,2.0605,2.0644,2.0731,2.0974,2.1167,3.6496,3.6264,3.5462,3.5038,3.4983,3.4917,3.4849,3.4716,3.4183,3.3919,3.3768,3.3135,3.2426,3.1565,2.9739,2.8264,2.7085,2.5521,2.4374,2.3326,2.078,1.9064,1.8332,1.7375,1.6123,1.4851,1.5342,1.4755,1.3038,1.265,1.2305,1.1983,1.158,1.1263,1.1042,1.0988,1.0861,1.0646,1.06,1.0586,1.0586,1.0555,1.0168,0.955,0.9454,0.9486,0.9582,1.0193,1.0561,1.0586,1.0586,1.0586,1.0586,1.0586,1.0561,1.0523,1.0523,1.0523,1.0561,1.0586,1.0555,1.046,0.9779,0.9064,0.821,0.7535,0.699,0.6708,0.6671,0.6511,0.6148,0.6572,0.6859,0.6896,0.7284,0.7512,0.7642,0.7055,0.6793,0.7034,0.6469,0.6321,0.705,0.7947,0.8923,0.9723,1.0576,1.1074,1.1117,1.1117,1.1117,1.1117,1.1117,1.1117,1.1223,1.1885,1.2615,1.323,1.4279,1.5727,1.6017,1.6333,1.6656,1.7009,1.7358,1.7742,1.8138,1.8798,1.964,2.0246,2.0547,2.0654,2.0693,2.078,2.1012,3.703,3.6362,3.5481,3.5066,3.5001,3.4927,3.4811,3.4636,3.442,3.4211,3.4025,3.3656,3.3006,3.2137,3.0813,2.9567,2.8318,2.6521,2.5342,2.4509,2.2262,2.0651,1.9771,1.8747,1.7179,1.5596,1.5561,1.4874,1.3439,1.3071,1.2799,1.2501,1.2095,1.1771,1.1465,1.1149,1.0935,1.0861,1.07,1.0586,1.06,1.0586,1.046,1.0231,1.0206,1.0199,1.0206,1.046,1.0586,1.0586,1.0586,1.0586,1.0586,1.0586,1.0586,1.0586,1.0586,1.0586,1.0586,1.0586,1.0339,0.9824,0.953,0.8871,0.7827,0.7507,0.7316,0.699,0.706,0.7031,0.6999,0.7223,0.7414,0.7442,0.7609,0.7934,0.8236,0.8069,0.7849,0.7612,0.671,0.6312,0.7171,0.7941,0.8837,0.9755,1.0594,1.1037,1.1117,1.1117,1.1117,1.1117,1.1117,1.1149,1.1298,1.17,1.2321,1.3157,1.4135,1.5108,1.5648,1.6403,1.683,1.7018,1.7367,1.7963,1.8434,1.9212,1.9976,2.0333,2.0615,2.0615,2.0615,2.0741,2.0935,3.7546,3.6408,3.5784,3.5312,3.5039,3.4955,3.4811,3.4604,3.4545,3.4416,3.4227,3.3961,3.3451,3.2722,3.1795,3.0915,2.977,2.743,2.601,2.5438,2.2987,2.1416,2.0655,1.9332,1.7643,1.5851,1.518,1.451,1.3876,1.3411,1.3085,1.2821,1.2484,1.2148,1.1757,1.1438,1.1243,1.1109,1.0874,1.0734,1.0727,1.064,1.0586,1.0586,1.0586,1.0586,1.0586,1.0466,1.0466,1.0561,1.0523,1.0523,1.0586,1.0586,1.0586,1.0586,1.0586,1.0586,1.0586,1.0586,1.0364,0.9786,0.9428,0.8812,0.7892,0.7735,0.7577,0.7512,0.7609,0.7809,0.8074,0.8199,0.8194,0.8064,0.8161,0.8463,0.8899,0.8625,0.8047,0.7477,0.7063,0.7066,0.7764,0.8551,0.9415,1.0276,1.085,1.108,1.1117,1.1117,1.1117,1.1117,1.1117,1.126,1.1409,1.1737,1.1959,1.2725,1.3962,1.4824,1.5542,1.6298,1.6875,1.7038,1.7494,1.8184,1.8882,1.9639,2.012,2.0508,2.0615,2.0615,2.0654,2.0693,2.0848,3.8037,3.6702,3.6419,3.5889,3.5236,3.5058,3.4831,3.4594,3.4604,3.4531,3.4328,3.4043,3.3839,3.3437,3.2453,3.1952,3.1057,2.8018,2.6383,2.5982,2.2979,2.1361,2.0962,1.9233,1.7491,1.5816,1.4338,1.4021,1.4466,1.3724,1.3208,1.2959,1.2712,1.2378,1.1948,1.1874,1.1677,1.143,1.1142,1.0995,1.0962,1.0774,1.0633,1.062,1.0575,1.0555,1.0555,1.0238,1.0238,1.0498,1.0403,1.0396,1.053,1.0586,1.0586,1.0561,1.0593,1.0586,1.0586,1.0586,1.0561,1.0231,0.9754,0.9166,0.864,0.8188,0.8032,0.8296,0.849,0.8721,0.9215,0.9312,0.9119,0.8689,0.8943,0.9203,0.9162,0.8422,0.7424,0.7013,0.7368,0.8273,0.9103,0.9643,1.026,1.0944,1.1149,1.1117,1.1117,1.1117,1.1117,1.1117,1.1117,1.1223,1.1484,1.1706,1.1855,1.2261,1.3665,1.4824,1.5365,1.6079,1.6726,1.7037,1.7587,1.8239,1.9152,1.9856,2.0061,2.0372,2.045,2.0576,2.0654,2.0693,2.0731,3.8686,3.8066,3.6896,3.6241,3.5845,3.5267,3.4742,3.4397,3.4732,3.4699,3.434,3.4348,3.4183,3.3642,3.2722,3.1987,3.1314,2.8887,2.7538,2.677,2.4621,2.2578,2.1141,2.016,1.8636,1.6671,1.5498,1.4859,1.4609,1.4286,1.3905,1.3375,1.2973,1.2741,1.2514,1.2157,1.1839,1.1745,1.1436,1.1289,1.1263,1.1009,1.0855,1.0835,1.0444,1.0238,1.0371,1.0269,1.0276,1.0403,1.0339,1.0339,1.0371,1.0396,1.0396,1.0428,1.053,1.0586,1.0586,1.0555,1.0263,0.9741,0.9652,0.9262,0.8581,0.8716,0.8823,0.8888,0.9055,0.9318,0.9446,0.9478,0.94,0.9221,0.9073,0.9003,0.9036,0.8637,0.8571,0.886,0.8909,0.9253,0.9873,1.0282,1.0594,1.1217,1.1217,1.1117,1.1111,1.1111,1.1117,1.1117,1.1149,1.1223,1.1484,1.1737,1.1966,1.2439,1.3665,1.4824,1.5401,1.6017,1.6621,1.7202,1.7752,1.8405,1.9319,1.9863,2.0059,2.0294,2.045,2.0527,2.0576,2.0654,2.0693,3.9298,3.8868,3.7829,3.6935,3.6329,3.5693,3.5036,3.4476,3.4821,3.4742,3.4409,3.4341,3.4188,3.3758,3.3054,3.2295,3.1462,2.9996,2.8862,2.7683,2.5341,2.3153,2.1055,1.9716,1.8747,1.7354,1.6202,1.5631,1.5446,1.4851,1.4286,1.3695,1.3149,1.282,1.2666,1.2276,1.2067,1.1984,1.175,1.1597,1.153,1.1303,1.1102,1.0956,1.0516,1.0316,1.0295,1.018,1.0149,1.018,1.018,1.0174,1.0174,1.0174,1.0174,1.0206,1.0308,1.0371,1.0371,1.0428,1.0199,0.9614,0.9754,0.9658,0.8947,0.9285,0.935,0.928,0.935,0.9526,0.9636,0.966,0.9697,0.9805,0.9448,0.9101,0.9053,0.9046,0.9113,0.9495,0.9734,1.011,1.0426,1.0807,1.0931,1.1372,1.126,1.1149,1.1143,1.1149,1.1149,1.1149,1.1149,1.1298,1.1515,1.1774,1.2033,1.2792,1.3702,1.4752,1.5551,1.6281,1.6936,1.7449,1.7981,1.8506,1.9327,1.9709,2.001,2.0216,2.045,2.0527,2.0615,2.0615,2.0654,3.9814,3.9107,3.8992,3.7963,3.6593,3.631,3.558,3.4728,3.4812,3.4781,3.4487,3.426,3.4031,3.3834,3.3518,3.2905,3.2039,3.1155,3.0001,2.8163,2.5609,2.3086,2.1158,1.8749,1.7696,1.7681,1.6594,1.6306,1.6541,1.5376,1.443,1.397,1.3258,1.2716,1.2445,1.2298,1.2271,1.2218,1.2017,1.1891,1.1913,1.1603,1.1309,1.1076,1.081,1.0568,1.0283,0.9989,0.9862,0.9958,0.9983,0.9958,0.9989,0.9989,1.0015,1.0015,1.0021,1.0053,1.0047,1.0174,1.0174,0.9919,0.9888,0.9958,0.967,0.951,0.951,0.9484,0.9552,0.9648,0.9829,0.9919,1.0027,1.0226,0.9908,0.9638,0.9563,0.9661,0.9685,0.9574,1.0132,1.085,1.0925,1.1335,1.1558,1.1632,1.1409,1.1298,1.1298,1.1298,1.1223,1.1223,1.1223,1.1335,1.1558,1.1781,1.2114,1.2945,1.3702,1.443,1.5471,1.6272,1.7055,1.7578,1.8073,1.8616,1.911,1.9509,1.9864,2.0098,2.0342,2.0498,2.0615,2.0615,2.0615,4.0167,3.99,3.9279,3.8354,3.7297,3.6633,3.5657,3.472,3.487,3.4831,3.4591,3.4486,3.4379,3.4277,3.391,3.3472,3.2731,3.1582,3.0436,2.9044,2.6729,2.4096,2.1587,1.9015,1.7794,1.7906,1.751,1.7217,1.6828,1.5842,1.4966,1.423,1.3288,1.2753,1.2526,1.2378,1.2305,1.2298,1.2245,1.2184,1.2131,1.1904,1.1653,1.1427,1.1052,1.0638,1.0233,0.9806,0.9644,0.983,0.9708,0.9702,0.983,0.983,0.9836,0.9868,0.9958,0.9989,0.9989,1.0047,1.0021,0.9862,0.9862,0.983,0.9804,0.9612,0.958,0.9675,0.977,0.9835,0.9931,1.0094,1.031,1.045,1.0101,0.9757,0.9834,0.9868,1.0077,1.0683,1.1031,1.1298,1.1558,1.1632,1.175,1.1781,1.1595,1.1372,1.1484,1.1372,1.1298,1.1335,1.1372,1.1446,1.1595,1.1824,1.2261,1.3062,1.3637,1.3962,1.5037,1.6009,1.6802,1.7495,1.7944,1.8441,1.8885,1.9249,1.9595,2.0029,2.0225,2.042,2.0537,2.0615,2.0615,4.0344,4.0263,3.9747,3.8849,3.7733,3.7116,3.613,3.5078,3.4982,3.4982,3.4822,3.4655,3.4572,3.4508,3.4232,3.3808,3.3172,3.1863,3.0777,2.9544,2.6845,2.4083,2.1506,1.9112,1.8008,1.8008,1.8008,1.7569,1.6828,1.5948,1.4994,1.4042,1.3105,1.2562,1.2335,1.2335,1.2305,1.2305,1.2305,1.2268,1.2174,1.2035,1.1768,1.1491,1.1121,1.0716,1.0279,0.9883,0.9675,0.9681,0.958,0.958,0.9676,0.9676,0.9676,0.9676,0.9734,0.9766,0.9798,0.9862,0.983,0.974,0.974,0.974,0.9707,0.9633,0.9744,0.9807,0.9986,1.01,1.0256,1.0466,1.0707,1.0779,1.0431,1.0242,1.0395,1.0426,1.0663,1.1111,1.1372,1.1484,1.1818,1.1744,1.1824,1.1898,1.1744,1.1706,1.1744,1.1521,1.1409,1.1521,1.1558,1.1595,1.1669,1.1861,1.1972,1.2769,1.3353,1.368,1.4788,1.5833,1.6572,1.7279,1.7761,1.8229,1.8634,1.907,1.9573,1.9912,2.0147,2.0342,2.0498,2.0615,2.0615,4.0438,4.0319,4.0319,3.9352,3.7931,3.7708,3.6719,3.5452,3.5122,3.5113,3.507,3.4764,3.4653,3.4651,3.4413,3.4012,3.3362,3.2047,3.0893,2.9124,2.6488,2.3486,2.1544,1.9388,1.8293,1.8042,1.8008,1.7647,1.6941,1.5913,1.4807,1.3918,1.2915,1.2261,1.2157,1.2224,1.2305,1.2305,1.2268,1.2194,1.204,1.1957,1.1713,1.1371,1.1078,1.0764,1.0398,1.0088,0.9853,0.9618,0.9558,0.9516,0.9516,0.9516,0.9516,0.9516,0.9542,0.9542,0.9548,0.967,0.9676,0.9554,0.9707,0.9719,0.963,0.9766,0.9943,0.9977,1.0212,1.0424,1.0665,1.0954,1.1033,1.1026,1.1007,1.1068,1.1117,1.1117,1.1117,1.1111,1.1298,1.1446,1.1632,1.1706,1.1781,1.2046,1.1892,1.1892,1.1892,1.1744,1.1706,1.1855,1.1818,1.1737,1.1818,1.1935,1.2009,1.2335,1.2879,1.3462,1.4752,1.5726,1.6378,1.7018,1.7524,1.8018,1.8458,1.896,1.9479,1.9872,2.0108,2.0342,2.0527,2.0576,2.0615,4.0597,4.046,4.046,3.9504,3.807,3.774,3.6782,3.5323,3.5157,3.5138,3.5107,3.4774,3.4763,3.4945,3.4502,3.4166,3.3792,3.2194,3.0406,2.8232,2.5514,2.3636,2.2127,2.0242,1.8834,1.8226,1.8008,1.7862,1.7364,1.6009,1.5013,1.4442,1.3055,1.2187,1.2077,1.2342,1.2305,1.2268,1.2187,1.2077,1.1929,1.1774,1.1594,1.1322,1.0943,1.0749,1.0604,1.0352,1.019,1.0045,0.9775,0.9544,0.9538,0.9514,0.954,0.9502,0.949,0.9478,0.9516,0.954,0.9522,0.9479,0.9694,0.9823,0.9714,0.9996,1.0196,1.025,1.0448,1.0743,1.096,1.1063,1.1105,1.1117,1.1117,1.1117,1.1117,1.1117,1.1117,1.1111,1.1149,1.1304,1.1639,1.1669,1.1855,1.2114,1.215,1.2077,1.2003,1.1929,1.1966,1.2046,1.2003,1.1929,1.1966,1.2046,1.212,1.2157,1.2519,1.3317,1.4601,1.5436,1.6016,1.6661,1.7313,1.7789,1.8284,1.8737,1.9254,1.9674,2.0108,2.0333,2.0489,2.0527,2.0615,3.9495,3.9374,3.9336,3.8609,3.7544,3.7272,3.6484,3.545,3.5254,3.5223,3.516,3.4908,3.4917,3.5066,3.4678,3.4461,3.3981,3.2559,3.0768,2.8984,2.6907,2.5114,2.3196,2.1495,1.9911,1.8341,1.8008,1.7862,1.7113,1.586,1.4621,1.4191,1.2989,1.2452,1.2445,1.2886,1.3039,1.2746,1.2519,1.2218,1.1774,1.1409,1.118,1.1031,1.0757,1.0649,1.0699,1.0474,1.0426,1.0347,1.0106,0.9883,0.9847,0.9763,0.9703,0.969,0.9532,0.9568,0.9622,0.961,0.9631,0.9726,0.9813,0.9826,0.9874,1.0154,1.0319,1.0426,1.0671,1.0972,1.1099,1.1111,1.1117,1.1117,1.1117,1.1117,1.1117,1.1117,1.1117,1.1117,1.1117,1.126,1.1446,1.1595,1.1818,1.2046,1.2231,1.215,1.2194,1.212,1.212,1.2157,1.2157,1.2157,1.2157,1.2194,1.2231,1.2268,1.2342,1.328,1.4422,1.5073,1.5594,1.6378,1.7229,1.7651,1.8109,1.8581,1.9057,1.9626,2.005,2.0284,2.045,2.0527,2.0605,3.8254,3.8137,3.8079,3.7572,3.6858,3.6745,3.6197,3.5404,3.5357,3.5297,3.5182,3.5054,3.5038,3.5039,3.4878,3.4594,3.3837,3.2988,3.1436,3.0053,2.8525,2.6358,2.4148,2.2198,2.0285,1.8226,1.8008,1.7691,1.6897,1.5465,1.4391,1.3585,1.2849,1.2489,1.2746,1.3579,1.3804,1.3229,1.2813,1.2328,1.1552,1.1074,1.0738,1.0619,1.0571,1.0591,1.0668,1.0528,1.0484,1.0617,1.0456,1.0366,1.0305,1.013,0.9967,0.9961,0.976,0.9739,0.9831,0.9845,0.9922,1.0223,1.0067,0.9898,1.0026,1.0259,1.046,1.0615,1.0813,1.1081,1.1117,1.1117,1.1117,1.1117,1.1117,1.1117,1.1117,1.1117,1.1117,1.1117,1.1111,1.1223,1.1372,1.1515,1.1744,1.1972,1.2157,1.2268,1.2305,1.2305,1.2268,1.2231,1.2231,1.2231,1.2231,1.2231,1.2305,1.2305,1.2305,1.3098,1.4106,1.4681,1.5303,1.643,1.7183,1.755,1.7926,1.8332,1.8871,1.957,2.0001,2.0255,2.0411,2.0566,2.0566,3.8406,3.828,3.8267,3.7719,3.6914,3.6749,3.613,3.5392,3.53,3.527,3.5201,3.5115,3.5082,3.5039,3.4888,3.4151,3.3299,3.2809,3.2108,3.0706,2.9157,2.7024,2.476,2.264,2.0241,1.8489,1.8066,1.7988,1.7251,1.5597,1.4454,1.396,1.3011,1.2445,1.2813,1.3477,1.4057,1.355,1.2922,1.2254,1.1669,1.0925,1.0513,1.0438,1.0438,1.0475,1.0513,1.0516,1.0493,1.0525,1.049,1.0572,1.056,1.0373,1.0245,1.0208,1.0033,0.9935,1.0042,1.025,1.0089,0.9962,1.0113,1.0223,1.0184,1.0363,1.0567,1.073,1.0871,1.1074,1.1117,1.1117,1.1117,1.1117,1.1117,1.1117,1.1117,1.1117,1.1117,1.1117,1.1111,1.1149,1.1292,1.144,1.1632,1.1855,1.204,1.2194,1.2305,1.2305,1.2268,1.2268,1.2268,1.2268,1.2305,1.2268,1.2305,1.2305,1.2378,1.2739,1.36,1.425,1.5054,1.5947,1.6729,1.7158,1.7587,1.8027,1.862,1.9219,1.9695,2.0216,2.0333,2.045,2.0566,3.7128,3.7117,3.7037,3.6712,3.6269,3.6137,3.5753,3.5253,3.5266,3.5207,3.5098,3.5018,3.4982,3.4908,3.478,3.4122,3.352,3.336,3.2709,3.1434,3.0322,2.844,2.6028,2.3839,2.1668,1.991,1.9015,1.8418,1.7818,1.5825,1.4819,1.447,1.352,1.3025,1.339,1.4302,1.4489,1.4086,1.3237,1.2425,1.1774,1.0812,1.0255,1.018,1.0212,1.0255,1.0331,1.0331,1.0406,1.0475,1.0507,1.055,1.055,1.0497,1.0408,1.0432,1.0242,1.0189,1.029,1.0515,1.039,1.0388,1.0456,1.0441,1.0401,1.0482,1.055,1.0669,1.0818,1.0925,1.0925,1.1037,1.1117,1.1117,1.1117,1.1117,1.1117,1.1117,1.1117,1.1117,1.1111,1.1149,1.118,1.1366,1.1558,1.1744,1.1929,1.2077,1.2268,1.2305,1.2305,1.2305,1.2305,1.2305,1.2305,1.2305,1.2305,1.2305,1.2378,1.2703,1.3208,1.389,1.4494,1.5223,1.5902,1.6906,1.7108,1.7521,1.821,1.889,1.9426,1.9913,2.0206,2.0372,2.0489,3.5927,3.5989,3.5892,3.5765,3.5631,3.5599,3.5432,3.5247,3.5308,3.5246,3.5063,3.4991,3.4936,3.4812,3.4618,3.4316,3.3947,3.3889,3.3266,3.2449,3.1723,3.0112,2.7712,2.5764,2.3535,2.0504,1.9673,1.9,1.7818,1.5974,1.5234,1.4736,1.3954,1.3528,1.389,1.4697,1.4982,1.4573,1.3831,1.2814,1.17,1.0594,0.9884,0.9884,0.9884,0.9992,1.0143,1.0143,1.0218,1.0293,1.0368,1.0368,1.0443,1.04,1.0453,1.0555,1.0278,1.0384,1.0473,1.0513,1.0547,1.0676,1.0527,1.0545,1.047,1.0383,1.0293,1.0481,1.0706,1.0818,1.085,1.0999,1.108,1.1117,1.1117,1.1117,1.1117,1.1117,1.1117,1.1117,1.1117,1.1111,1.1149,1.1217,1.1403,1.1632,1.1855,1.204,1.2187,1.2268,1.2305,1.2305,1.2305,1.2305,1.2305,1.2305,1.2305,1.2305,1.2342,1.2519,1.3025,1.3608,1.4106,1.4565,1.6044,1.6923,1.6982,1.7102,1.7792,1.8446,1.9155,1.965,2.0001,2.0255,2.0411,3.5839,3.601,3.5975,3.5904,3.5784,3.5764,3.5655,3.5454,3.5514,3.545,3.5231,3.5215,3.5117,3.4898,3.4575,3.4305,3.4105,3.3992,3.362,3.2927,3.2223,3.0643,2.8079,2.6159,2.3962,2.1353,2.0094,1.8946,1.7808,1.6044,1.5111,1.4871,1.4091,1.3346,1.3781,1.4625,1.4812,1.4266,1.3781,1.2712,1.118,1.0299,0.996,0.9884,0.9884,0.9922,0.996,0.9954,0.9992,0.9992,0.9992,1.0073,1.018,1.0067,1.0212,1.0404,1.0482,1.047,1.0513,1.0544,1.0507,1.0689,1.0625,1.0556,1.0406,1.0331,1.0293,1.0475,1.0663,1.0738,1.0775,1.0962,1.108,1.1117,1.1117,1.1117,1.1117,1.1117,1.1117,1.1117,1.1117,1.1117,1.1111,1.1186,1.1254,1.1521,1.1781,1.1966,1.215,1.2231,1.2305,1.2305,1.2305,1.2305,1.2305,1.2305,1.2305,1.2305,1.2342,1.2409,1.2806,1.3208,1.3346,1.4099,1.5604,1.656,1.643,1.6709,1.7362,1.8156,1.8966,1.945,1.9854,2.0098,2.0303,3.5767,3.5972,3.5952,3.5855,3.5745,3.5757,3.5616,3.5479,3.5456,3.5378,3.5231,3.519,3.5037,3.4772,3.4561,3.4393,3.4191,3.4166,3.3873,3.3299,3.2549,3.1318,2.9545,2.7804,2.5491,2.2635,2.1144,1.9792,1.8247,1.6897,1.6044,1.5755,1.4736,1.4214,1.407,1.4446,1.4446,1.3977,1.3208,1.2033,1.0887,1.018,0.9884,0.9884,0.9884,0.9884,0.9884,0.9884,0.9884,0.9884,0.9884,0.9916,0.9992,0.9954,0.9986,1.0099,1.0137,1.0244,1.0475,1.0594,1.0625,1.0663,1.07,1.0594,1.0331,1.0293,1.0255,1.0143,1.0475,1.0625,1.07,1.0925,1.1037,1.1117,1.1117,1.1117,1.1117,1.1117,1.1117,1.1117,1.1117,1.1117,1.1117,1.1111,1.1223,1.1446,1.1669,1.1892,1.2077,1.2194,1.2268,1.2305,1.2305,1.2305,1.2305,1.2305,1.2305,1.2305,1.2305,1.2378,1.2556,1.2806,1.3127,1.3564,1.4681,1.5355,1.5681,1.6675,1.7646,1.8279,1.8808,1.9327,1.9745,1.9942,2.0186,3.5744,3.5995,3.5937,3.5856,3.5778,3.5744,3.5661,3.5526,3.5521,3.54,3.5235,3.5144,3.4936,3.4689,3.4612,3.4473,3.4276,3.4281,3.4012,3.3565,3.2964,3.2002,3.0566,2.9182,2.7051,2.3782,2.2351,2.0843,1.9138,1.7711,1.701,1.6837,1.5171,1.4744,1.476,1.4482,1.4158,1.4129,1.2622,1.1484,1.07,0.9916,0.9728,0.9695,0.9776,0.9814,0.9884,0.9884,0.9884,0.9884,0.9884,0.9916,0.9922,0.9916,0.9916,0.996,0.996,1.003,1.0255,1.04,1.0625,1.0738,1.0812,1.07,1.0556,1.0519,1.0475,1.0255,1.0443,1.0588,1.0625,1.0887,1.1043,1.1117,1.1117,1.1117,1.1117,1.1117,1.1117,1.1117,1.1117,1.1117,1.1117,1.1117,1.1223,1.1372,1.1595,1.1787,1.2009,1.2194,1.2268,1.2305,1.2305,1.2305,1.2305,1.2305,1.2305,1.2305,1.2305,1.2342,1.2489,1.2879,1.3346,1.3781,1.425,1.4982,1.5797,1.689,1.7922,1.8318,1.8716,1.9247,1.9666,1.9872,2.0108,3.5765,3.6015,3.5996,3.5987,3.596,3.5897,3.5875,3.5817,3.5768,3.5674,3.545,3.5243,3.4982,3.479,3.4645,3.4528,3.4393,3.4136,3.4068,3.3891,3.3459,3.2485,3.1281,2.9881,2.8116,2.5549,2.371,2.1946,2.0273,1.8739,1.7794,1.6793,1.5658,1.495,1.4537,1.4294,1.3985,1.3688,1.2335,1.1372,1.0663,0.9873,0.9165,0.9284,0.9365,0.9511,0.9846,0.9809,0.9809,0.9809,0.9884,0.9884,0.9884,0.9884,0.9884,0.9884,0.9884,0.9954,1.003,1.0143,1.0331,1.0631,1.0812,1.0812,1.0818,1.0625,1.0588,1.0625,1.0663,1.07,1.0812,1.0968,1.108,1.1117,1.1117,1.1117,1.1117,1.1117,1.1117,1.1117,1.1117,1.1117,1.1117,1.1117,1.1149,1.1298,1.1595,1.1781,1.2083,1.2268,1.2268,1.2305,1.2305,1.2305,1.2305,1.2305,1.2305,1.2305,1.2305,1.2305,1.2342,1.2849,1.3462,1.3926,1.4394,1.5152,1.5945,1.6952,1.7784,1.818,1.8652,1.9256,1.9745,2.0059,2.0255,3.5729,3.5923,3.5976,3.5966,3.5944,3.5914,3.5889,3.5885,3.5827,3.5649,3.5418,3.5192,3.4992,3.481,3.4666,3.4591,3.4454,3.4148,3.4173,3.4043,3.3556,3.2898,3.188,3.0615,2.891,2.6832,2.4982,2.2808,2.0588,1.9792,1.8772,1.7648,1.6498,1.5807,1.5242,1.4186,1.3659,1.3331,1.2482,1.1632,1.0775,1.0175,0.9425,0.8937,0.8937,0.8975,0.916,0.9435,0.9511,0.9587,0.9776,0.9846,0.9884,0.9884,0.9884,0.9884,0.9884,0.9884,0.9922,1.003,1.0331,1.0669,1.0812,1.085,1.0962,1.0738,1.0631,1.0669,1.0781,1.0812,1.0812,1.0968,1.1117,1.1117,1.1117,1.1117,1.1117,1.1117,1.1111,1.1111,1.1111,1.1117,1.1117,1.1117,1.1149,1.1223,1.1521,1.1811,1.2077,1.2305,1.2305,1.2305,1.2305,1.2305,1.2305,1.2305,1.2305,1.2305,1.2305,1.2305,1.2378,1.2959,1.3571,1.4034,1.4537,1.5294,1.6092,1.7005,1.7647,1.8098,1.8698,1.9367,1.9775,2.0167,2.0411,3.5737,3.5904,3.5975,3.5986,3.595,3.5912,3.5897,3.5872,3.5842,3.5612,3.5308,3.5187,3.5027,3.4831,3.4666,3.4612,3.4473,3.4197,3.4136,3.3992,3.372,3.3194,3.2417,3.1318,2.9799,2.8015,2.6312,2.4207,2.2575,2.1229,1.9985,1.8841,1.7711,1.6724,1.5392,1.4114,1.3236,1.3119,1.2556,1.1929,1.1074,1.0319,0.9722,0.8965,0.8856,0.8742,0.8818,0.9013,0.9203,0.9359,0.9549,0.9771,0.9846,0.9884,0.9884,0.9884,0.9884,0.9884,0.9922,1.0105,1.0368,1.0631,1.0775,1.0812,1.085,1.0887,1.085,1.0781,1.0812,1.0887,1.0887,1.1037,1.1117,1.1117,1.1223,1.1223,1.1186,1.1149,1.1111,1.1105,1.1111,1.1117,1.1149,1.1186,1.126,1.1335,1.1521,1.1781,1.204,1.2231,1.2305,1.2305,1.2305,1.2305,1.2305,1.2305,1.2305,1.2305,1.2305,1.2305,1.2489,1.3032,1.3426,1.3745,1.4394,1.5294,1.618,1.7015,1.7567,1.8081,1.8802,1.9618,1.9824,2.0177,2.0411,3.5764,3.5902,3.5975,3.5992,3.5987,3.5923,3.5889,3.5894,3.583,3.5618,3.5333,3.5274,3.5138,3.4898,3.471,3.4612,3.4495,3.4099,3.3921,3.3941,3.381,3.3299,3.2515,3.1549,3.0409,2.9286,2.75,2.5944,2.5134,2.2618,2.1098,1.9814,1.8395,1.7019,1.5498,1.4013,1.3382,1.3346,1.2572,1.2063,1.1434,1.0501,0.983,0.9263,0.878,0.8589,0.8632,0.878,0.8975,0.917,0.9435,0.9695,0.9846,0.9884,0.9884,0.9884,0.9884,0.9884,0.9922,1.0105,1.0331,1.0519,1.0663,1.0812,1.1005,1.1074,1.1037,1.0925,1.1037,1.108,1.1074,1.1074,1.1117,1.1149,1.126,1.1335,1.126,1.1223,1.1217,1.1254,1.1186,1.1117,1.1186,1.126,1.1372,1.1484,1.1601,1.1787,1.204,1.2157,1.2268,1.2305,1.2305,1.2305,1.2305,1.2305,1.2305,1.2305,1.2305,1.2305,1.2305,1.2526,1.2959,1.339,1.4142,1.5037,1.6036,1.7008,1.7678,1.8377,1.919,1.9854,2.002,2.0216,2.045,3.564,3.5774,3.5845,3.5917,3.5989,3.5923,3.5889,3.5878,3.583,3.5664,3.5438,3.5352,3.5203,3.5,3.4751,3.4602,3.4517,3.4173,3.3985,3.3972,3.3855,3.3299,3.2549,3.1655,3.0712,2.9658,2.8105,2.6685,2.5635,2.3767,2.2074,2.0651,1.8632,1.6982,1.6123,1.5037,1.4178,1.4086,1.3426,1.2666,1.1909,1.1062,1.0244,0.9556,0.8813,0.8403,0.8441,0.8665,0.8932,0.9127,0.9392,0.9846,0.9922,0.9922,0.9922,0.9916,0.9916,0.9884,0.9954,1.0105,1.0293,1.0481,1.0594,1.0818,1.1043,1.1117,1.1117,1.1117,1.1117,1.1117,1.1117,1.1111,1.1117,1.1149,1.1223,1.1329,1.1329,1.1372,1.1372,1.1446,1.1446,1.1446,1.1484,1.1484,1.1595,1.1669,1.1818,1.1929,1.215,1.2231,1.2305,1.2305,1.2305,1.2305,1.2305,1.2305,1.2305,1.2305,1.2305,1.2305,1.2305,1.2305,1.2415,1.2849,1.3781,1.4732,1.5766,1.6826,1.7933,1.8787,1.9389,1.9875,2.002,2.0216,2.0527,3.5596,3.571,3.5771,3.5871,3.5991,3.5935,3.5894,3.5872,3.5815,3.5684,3.5496,3.5299,3.5176,3.5018,3.4732,3.4572,3.4539,3.4185,3.3947,3.3934,3.3842,3.3468,3.2778,3.1725,3.094,3.0008,2.8948,2.7685,2.6828,2.5638,2.3393,2.0743,1.8645,1.7828,1.6957,1.5842,1.4922,1.4752,1.4214,1.3571,1.2792,1.1872,1.0881,1.0013,0.9231,0.8518,0.8479,0.8703,0.9046,0.9198,0.9614,1.011,1.0067,1.0105,1.0143,1.018,1.0143,1.0073,0.9992,1.018,1.0406,1.0631,1.0625,1.0812,1.1074,1.1149,1.1117,1.1117,1.1117,1.1117,1.1117,1.1117,1.1117,1.1149,1.1298,1.1403,1.144,1.1446,1.1595,1.1669,1.1669,1.1706,1.1744,1.1781,1.1818,1.1929,1.2003,1.2114,1.2224,1.2268,1.2305,1.2305,1.2305,1.2305,1.2305,1.2305,1.2305,1.2305,1.2305,1.2305,1.2305,1.2305,1.2305,1.2415,1.3346,1.4377,1.5488,1.6562,1.7768,1.8648,1.9257,1.9666,1.9963,2.0255,2.0576,3.5626,3.5694,3.5768,3.5869,3.5972,3.5931,3.5869,3.5803,3.5795,3.5679,3.5502,3.5243,3.5125,3.5008,3.463,3.4487,3.4506,3.4191,3.3985,3.386,3.382,3.3578,3.2924,3.1899,3.1031,3.0359,2.9456,2.8389,2.8091,2.6201,2.3652,2.1334,1.9554,1.8683,1.7668,1.6611,1.5807,1.5525,1.5037,1.4502,1.3954,1.2865,1.1909,1.0981,1.0088,0.9301,0.9079,0.9041,0.9273,0.9539,0.9841,1.018,1.0363,1.0475,1.0625,1.0663,1.0556,1.0368,1.0218,1.0481,1.0631,1.0856,1.0856,1.1074,1.1186,1.1186,1.1117,1.1117,1.1117,1.1117,1.1117,1.1117,1.1117,1.126,1.1446,1.1521,1.1521,1.1595,1.1781,1.1855,1.1818,1.1861,1.1972,1.2009,1.2009,1.2083,1.215,1.215,1.2224,1.2268,1.2305,1.2305,1.2305,1.2305,1.2305,1.2305,1.2305,1.2305,1.2305,1.2305,1.2305,1.2305,1.2305,1.2489,1.3062,1.403,1.5394,1.6577,1.767,1.8425,1.9203,1.9668,2.0051,2.0313,2.0615,3.5615,3.5702,3.5723,3.5834,3.5976,3.5928,3.583,3.5743,3.573,3.5654,3.5554,3.5381,3.52,3.506,3.4763,3.4567,3.4409,3.4252,3.4023,3.3881,3.3793,3.3233,3.2574,3.1812,3.0946,3.0137,2.932,2.8653,2.7913,2.6268,2.4651,2.2772,2.0306,1.928,1.8392,1.736,1.6784,1.6202,1.5596,1.5392,1.5065,1.4155,1.3172,1.2221,1.1187,1.0372,0.9755,0.9609,0.9803,0.9846,1.0293,1.0588,1.0438,1.0513,1.0594,1.0781,1.085,1.0887,1.0812,1.0999,1.1149,1.1186,1.1223,1.1267,1.1341,1.1267,1.1155,1.1186,1.1186,1.1223,1.1186,1.1149,1.1149,1.126,1.1484,1.1632,1.1669,1.1818,1.1966,1.2046,1.2009,1.2046,1.2157,1.2194,1.2194,1.2268,1.2268,1.2224,1.2224,1.2268,1.2305,1.2305,1.2305,1.2305,1.2305,1.2305,1.2305,1.2305,1.2305,1.2305,1.2305,1.2305,1.2305,1.2629,1.3244,1.4274,1.5556,1.6571,1.737,1.8396,1.9174,1.9669,2.014,2.043,2.0615,3.5568,3.5706,3.571,3.5806,3.5935,3.5914,3.5804,3.5684,3.5708,3.5672,3.5591,3.54,3.5227,3.5043,3.4705,3.4472,3.4404,3.4185,3.3985,3.386,3.3807,3.3375,3.2676,3.1882,3.1094,3.0191,2.9409,2.8818,2.7963,2.6538,2.4858,2.3799,2.0957,1.9706,1.8795,1.775,1.6922,1.6376,1.5991,1.5956,1.5666,1.5119,1.4104,1.352,1.2451,1.1483,1.0689,1.0619,1.04,1.0331,1.0738,1.085,1.0812,1.0887,1.085,1.1074,1.1186,1.1186,1.1111,1.1335,1.1446,1.1521,1.1558,1.1632,1.1558,1.1446,1.1372,1.1372,1.1335,1.1335,1.126,1.1223,1.1223,1.1223,1.1484,1.1713,1.1855,1.2003,1.2114,1.2231,1.2268,1.2268,1.2305,1.2305,1.2305,1.2305,1.2305,1.2268,1.2268,1.2268,1.2305,1.2305,1.2305,1.2305,1.2305,1.2305,1.2305,1.2305,1.2305,1.2305,1.2305,1.2342,1.2342,1.2813,1.3426,1.4525,1.5584,1.6174,1.6947,1.8118,1.9199,1.963,2.0101,2.0489,2.0615,3.5585,3.5702,3.57,3.5783,3.5885,3.586,3.5764,3.5618,3.5667,3.5654,3.5541,3.5338,3.5171,3.4981,3.4614,3.4394,3.4262,3.4111,3.3934,3.3793,3.3753,3.3484,3.3032,3.2263,3.1468,3.0683,2.9886,2.9081,2.8165,2.6883,2.5602,2.4692,2.2462,2.0756,1.9434,1.8281,1.7531,1.7051,1.6393,1.6053,1.5983,1.5147,1.4112,1.4319,1.3599,1.2668,1.2154,1.1724,1.1335,1.1149,1.1037,1.1149,1.1223,1.1446,1.1409,1.1446,1.1595,1.1552,1.1521,1.1669,1.1706,1.1781,1.1855,1.1892,1.1781,1.1595,1.1521,1.1521,1.1521,1.1484,1.1446,1.1446,1.1409,1.1484,1.1632,1.1818,1.1929,1.2187,1.2475,1.2592,1.2629,1.2556,1.2305,1.2305,1.2305,1.2305,1.2305,1.2305,1.2305,1.2305,1.2305,1.2305,1.2305,1.2305,1.2305,1.2305,1.2305,1.2305,1.2305,1.2305,1.2305,1.2342,1.2415,1.3025,1.3716,1.4537,1.5426,1.6156,1.7126,1.8365,1.9235,1.9627,2.0051,2.0478,2.0615,3.5585,3.5716,3.5819,3.5852,3.5827,3.5778,3.5691,3.5628,3.5628,3.5591,3.5494,3.5304,3.5096,3.4917,3.4622,3.439,3.4105,3.3992,3.3842,3.3698,3.3629,3.3534,3.3349,3.2632,3.1846,3.1036,3.0207,2.9278,2.831,2.721,2.6279,2.5493,2.3221,2.11,2.0533,1.9291,1.8099,1.7658,1.6766,1.6079,1.5842,1.5623,1.5048,1.4649,1.3852,1.3404,1.2931,1.2528,1.2248,1.207,1.1669,1.1521,1.1335,1.1744,1.1855,1.1861,1.1972,1.1966,1.1966,1.2003,1.2003,1.1972,1.1972,1.1966,1.1892,1.1744,1.1669,1.1706,1.1706,1.1669,1.1632,1.1632,1.1632,1.1706,1.1818,1.1892,1.2003,1.2372,1.2769,1.2879,1.2952,1.2739,1.2452,1.2305,1.2305,1.2305,1.2305,1.2305,1.2305,1.2305,1.2305,1.2305,1.2305,1.2305,1.2305,1.2305,1.2305,1.2305,1.2305,1.2305,1.2305,1.2599,1.2849,1.3353,1.3998,1.4788,1.5627,1.6536,1.7559,1.8697,1.9395,1.9799,2.0177,2.0586,2.0615,3.5016,3.5207,3.5736,3.5899,3.5819,3.5765,3.5696,3.5628,3.5598,3.5554,3.5481,3.5361,3.5185,3.4898,3.4632,3.4325,3.4005,3.3868,3.3726,3.3573,3.3415,3.3342,3.3114,3.2797,3.1864,3.0978,2.9859,2.8896,2.8293,2.7312,2.6412,2.5956,2.3577,2.1889,2.1522,1.9727,1.8559,1.8065,1.6929,1.621,1.5737,1.5384,1.5517,1.504,1.4934,1.4307,1.3629,1.323,1.2872,1.2512,1.2077,1.1892,1.1781,1.1966,1.204,1.2083,1.2157,1.2305,1.2305,1.2268,1.2261,1.2157,1.212,1.2157,1.2659,1.2475,1.204,1.204,1.204,1.2003,1.1892,1.1855,1.1855,1.1892,1.1929,1.2003,1.2114,1.2335,1.2806,1.3208,1.3098,1.2806,1.2556,1.2409,1.2409,1.2342,1.2342,1.2342,1.2335,1.2372,1.2372,1.2335,1.2342,1.2305,1.2305,1.2305,1.2342,1.2342,1.2372,1.2409,1.2489,1.2922,1.3361,1.368,1.4178,1.5037,1.5874,1.6804,1.7804,1.8899,1.9508,2.0029,2.0322,2.0615,2.0615,3.4244,3.4619,3.5443,3.5824,3.5819,3.578,3.5717,3.5608,3.5598,3.5554,3.5507,3.5481,3.5258,3.4917,3.4545,3.4242,3.3974,3.3762,3.3587,3.3401,3.3157,3.3099,3.291,3.2568,3.1793,3.0663,2.9387,2.8842,2.8372,2.7378,2.6651,2.6226,2.473,2.282,2.1401,2.0083,1.9126,1.8146,1.717,1.6463,1.5807,1.5207,1.5525,1.5913,1.6088,1.5215,1.4402,1.397,1.3499,1.2922,1.2489,1.2298,1.2224,1.2298,1.2231,1.2268,1.2305,1.2342,1.2305,1.2305,1.2305,1.2268,1.2305,1.2556,1.3025,1.3025,1.2556,1.2445,1.2445,1.2231,1.2114,1.2046,1.2046,1.204,1.2077,1.2077,1.2224,1.2409,1.2915,1.3426,1.3208,1.2915,1.2806,1.2659,1.2445,1.2378,1.2378,1.2372,1.2409,1.2445,1.2482,1.2445,1.2409,1.2378,1.2342,1.2378,1.2415,1.2562,1.2599,1.2592,1.2666,1.2966,1.3324,1.3724,1.433,1.5114,1.6101,1.7081,1.8124,1.9097,1.9777,2.0254,2.0371,2.0615,2.0615,3.3732,3.4522,3.4785,3.5197,3.573,3.5716,3.5674,3.5622,3.5598,3.5554,3.5514,3.546,3.5273,3.487,3.4478,3.4147,3.3863,3.3671,3.3477,3.3304,3.307,3.2945,3.2702,3.2332,3.1899,3.0663,2.9291,2.8558,2.8226,2.7469,2.6875,2.6546,2.5315,2.3881,2.2947,2.1701,2.0642,1.94,1.8335,1.7736,1.7413,1.6611,1.5313,1.5596,1.6079,1.5108,1.4517,1.4859,1.4366,1.3688,1.3046,1.279,1.2673,1.2636,1.2599,1.2489,1.2526,1.2482,1.2452,1.2415,1.2415,1.2378,1.2452,1.2703,1.3098,1.3426,1.3135,1.3135,1.2989,1.2445,1.2261,1.2231,1.2194,1.2194,1.2231,1.2231,1.2268,1.2703,1.3215,1.339,1.3317,1.3244,1.3244,1.2915,1.2378,1.2342,1.2415,1.2409,1.2526,1.2562,1.2592,1.2556,1.2519,1.2519,1.2562,1.2526,1.2562,1.2709,1.282,1.2863,1.29,1.2893,1.3258,1.3695,1.4336,1.5077,1.6139,1.7143,1.8304,1.9239,2.0022,2.0537,2.0605,2.0615,2.0615]}]]